[[{"header":{"parameterUnit":"m.s-1","parameterCategory":1,"la1":31.0,"la2":29.5877,"lo1":-88.7671,"lo2":-86.6584,"dx":0.0162,"dy":0.0185,"nx":115,"ny":88,"refTime":"2022-12-23T18:00:00:Z","depth":0,"parameterNumber":2,"parameterNumberName":"U-component_of_WINDS"},"data":[0.0,0.0,0.0,0.0,0.0,0.0,0.0,0.0,0.0,0.0,0.0,0.0,0.0,0.0,0.0,0.0,0.0,0.0,0.0,0.0,0.0,0.0,0.0,0.0,0.0,0.0,0.0,0.0,0.0,0.0,0.0,0.0,0.0,0.0,0.0,0.0,0.0,0.0,0.0,0.0,0.0,0.0,0.0,0.0,0.0,0.0,0.0,0.0,0.0,0.0,0.0,0.0,0.0,0.0,0.0,0.0,0.0,0.0,0.0,0.0,0.0,0.0,0.0,0.0,0.0,0.0,0.0,0.0,0.0,0.0,0.0,0.0,0.0,0.0,0.0,0.0,0.0,0.0,0.0,0.0,0.0,0.0,0.0,0.0,0.0,0.0,0.0,0.0,0.0,0.0,0.0,0.0,0.0,0.0,0.0,0.0,0.0,0.0,0.0,0.0,0.0,0.0,0.0,0.0,0.0,0.0,0.0,0.0,0.0,0.0,0.0,0.0,0.0,0.0,0.0,0.0,0.0,0.0,0.0,0.0,0.0,0.0,0.0,0.0,0.0,0.0,0.0,0.0,0.0,0.0,0.0,0.0,0.0,0.0,0.0,0.0,0.0,0.0,0.0,0.0,0.0,0.0,0.0,0.0,0.0,0.0,0.0,0.0,0.0,0.0,0.0,0.0,0.0,0.0,0.0,0.0,0.0,0.0,0.0,0.0,0.0,0.0,0.0,0.0,0.0,0.0,0.0,0.0,0.0,0.0,0.0,0.0,0.0,0.0,0.0,0.0,0.0,0.0,0.0,0.0,0.0,0.0,0.0,0.0,0.0,0.0,0.0,0.0,0.0,0.0,0.0,0.0,0.0,0.0,0.0,0.0,0.0,0.0,0.0,0.0,0.0,0.0,0.0,0.0,0.0,0.0,0.0,0.0,0.0,0.0,0.0,0.0,0.0,0.0,0.0,0.0,0.0,0.0,0.0,0.0,0.0,0.0,0.0,0.0,0.0,0.0,0.0,0.0,0.0,0.0,0.0,0.0,0.0,0.0,0.0,0.0,0.0,0.0,0.0,0.0,0.0,0.0,0.0,0.0,0.0,0.0,0.0,0.0,0.0,0.0,0.0,0.0,0.0,0.0,0.0,0.0,0.0,0.0,0.0,0.0,0.0,0.0,0.0,0.0,0.0,0.0,0.0,0.0,0.0,0.0,0.0,0.0,0.0,0.0,0.0,0.0,0.0,0.0,0.0,0.0,0.0,0.0,0.0,0.0,0.0,0.0,0.0,0.0,0.0,0.0,0.0,0.0,0.0,0.0,0.0,0.0,0.0,0.0,0.0,0.0,0.0,0.0,0.0,0.0,0.0,0.0,0.0,0.0,0.0,0.0,0.0,0.0,0.0,0.0,0.0,0.0,0.0,0.0,0.0,0.0,0.0,0.0,0.0,0.0,0.0,0.0,0.0,0.0,0.0,0.0,0.0,0.0,0.0,0.0,0.0,0.0,0.0,0.0,0.0,0.0,0.0,0.0,0.0,0.0,0.0,0.0,0.0,0.0,0.0,0.0,0.0,0.0,0.0,0.0,0.0,0.0,0.0,0.0,0.0,0.0,0.0,0.0,0.0,0.0,0.0,0.0,0.0,0.0,0.0,0.0,0.0,0.0,0.0,0.0,0.0,0.0,0.0,0.0,0.0,0.0,0.0,0.0,0.0,0.0,0.0,0.0,0.0,0.0,0.0,0.0,0.0,0.0,0.0,0.0,0.0,0.0,0.0,0.0,0.0,0.0,0.0,0.0,0.0,0.0,0.0,0.0,0.0,0.0,0.0,0.0,0.0,0.0,0.0,0.0,0.0,0.0,0.0,0.0,0.0,0.0,0.0,0.0,0.0,0.0,0.0,0.0,0.0,0.0,0.0,0.0,0.0,0.0,0.0,0.0,0.0,0.0,0.0,0.0,0.0,0.0,0.0,0.0,0.0,0.0,0.0,0.0,0.0,0.0,0.0,0.0,0.0,0.0,0.0,0.0,0.0,0.0,0.0,0.0,0.0,0.0,0.0,0.0,0.0,0.0,0.0,0.0,0.0,0.0,0.0,0.0,0.0,0.0,0.0,0.0,0.0,0.0,0.0,0.0,0.0,0.0,0.0,0.0,0.0,0.0,0.0,0.0,0.0,0.0,0.0,0.0,0.0,0.0,0.0,0.0,0.0,0.0,0.0,0.0,0.0,0.0,0.0,0.0,0.0,0.0,0.0,0.0,0.0,0.0,0.0,0.0,0.0,0.0,0.0,0.0,0.0,0.0,0.0,0.0,0.0,0.0,0.0,0.0,0.0,0.0,0.0,0.0,0.0,0.0,0.0,0.0,0.0,0.0,0.0,0.0,0.0,0.0,0.0,0.0,0.0,0.0,0.0,0.0,0.0,0.0,0.0,0.0,0.0,0.0,0.0,0.0,0.0,0.0,0.0,0.0,0.0,0.0,0.0,0.0,0.0,0.0,0.0,0.0,0.0,0.0,0.0,0.0,0.0,0.0,0.0,0.0,0.0,0.0,0.0,0.0,0.0,0.0,0.0,0.0,0.0,0.0,0.0,0.0,0.0,0.0,0.0,0.0,0.0,0.0,0.0,0.0,0.0,0.0,0.0,0.0,0.0,0.0,0.0,0.0,0.0,0.0,0.0,0.0,0.0,0.0,0.0,0.0,0.0,0.0,0.0,0.0,0.0,0.0,0.0,0.0,0.0,0.0,0.0,0.0,0.0,0.0,0.0,0.0,0.0,0.0,0.0,0.0,0.0,0.0,0.0,0.0,0.0,0.0,0.0,0.0,0.0,0.0,0.0,0.0,0.0,0.0,0.0,0.0,0.0,0.0,0.0,0.0,0.0,0.0,0.0,0.0,0.0,0.0,0.0,0.0,0.0,0.0,0.0,0.0,0.0,0.0,0.0,0.0,0.0,0.0,0.0,0.0,0.0,0.0,0.0,0.0,0.0,0.0,0.0,0.0,0.0,0.0,0.0,0.0,0.0,0.0,0.0,0.0,0.0,0.0,0.0,0.0,0.0,0.0,0.0,0.0,0.0,0.0,0.0,0.0,0.0,0.0,0.0,0.0,0.0,0.0,0.0,0.0,0.0,0.0,0.0,0.0,0.0,0.0,0.0,0.0,0.0,0.0,0.0,0.0,0.0,0.0,0.0,0.0,0.0,0.0,0.0,0.0,0.0,0.0,0.0,0.0,0.0,0.0,0.0,0.0,0.0,0.0,0.0,0.0,0.0,0.0,0.0,0.0,0.0,0.0,0.0,0.0,0.0,0.0,0.0,0.0,0.0,0.0,0.0,0.0,0.0,0.0,0.0,0.0,0.0,0.0,0.0,0.0,0.0,0.0,0.0,0.0,0.0,0.0,0.0,0.0,0.0,0.0,0.0,0.0,0.0,0.0,0.0,0.0,0.0,0.0,0.0,0.0,0.0,0.0,0.0,0.0,0.0,0.0,0.0,0.0,0.0,0.0,0.0,0.0,0.0,0.0,0.0,0.0,0.0,0.0,0.0,0.0,0.0,0.0,0.0,0.0,0.0,0.0,0.0,0.0,0.0,0.0,0.0,0.0,0.0,0.0,0.0,0.0,0.0,0.0,0.0,0.0,0.0,0.0,0.0,0.0,0.0,0.0,0.0,0.0,0.0,0.0,0.0,0.0,0.0,0.0,0.0,0.0,0.0,0.0,0.0,0.0,0.0,0.0,0.0,0.0,0.0,0.0,0.0,0.0,0.0,0.0,0.0,0.0,0.0,0.0,0.0,0.0,0.0,0.0,0.0,0.0,0.0,0.0,0.0,0.0,0.0,0.0,0.0,0.0,0.0,0.0,0.0,0.0,0.0,0.0,0.0,0.0,0.0,0.0,0.0,0.0,0.0,0.0,0.0,0.0,0.0,0.0,0.0,0.0,0.0,0.0,0.0,0.0,0.0,0.0,0.0,0.0,0.0,0.0,0.0,0.0,0.0,0.0,0.0,0.0,0.0,0.0,0.0,0.0,0.0,0.0,0.0,0.0,0.0,0.0,0.0,0.0,0.0,0.0,0.0,0.0,0.0,0.0,0.0,0.0,0.0,0.0,0.0,0.0,0.0,0.0,0.0,0.0,0.0,0.0,0.0,0.0,0.0,0.0,0.0,0.0,0.0,0.0,0.0,0.0,0.0,0.0,0.0,0.0,0.0,0.0,0.0,0.0,0.0,0.0,0.0,0.0,0.0,0.0,0.0,0.0,0.0,0.0,0.0,0.0,4.9864,0.0,0.0,0.0,4.9526,0.0,0.0,0.0,0.0,0.0,0.0,0.0,0.0,0.0,0.0,0.0,0.0,0.0,0.0,0.0,0.0,0.0,0.0,0.0,0.0,0.0,0.0,0.0,0.0,0.0,0.0,0.0,0.0,0.0,0.0,0.0,0.0,0.0,0.0,0.0,0.0,0.0,0.0,0.0,0.0,0.0,0.0,0.0,0.0,0.0,0.0,0.0,0.0,0.0,0.0,0.0,0.0,0.0,0.0,0.0,0.0,0.0,0.0,0.0,0.0,0.0,0.0,0.0,0.0,0.0,0.0,0.0,0.0,0.0,0.0,0.0,0.0,0.0,0.0,0.0,0.0,0.0,0.0,0.0,0.0,0.0,0.0,0.0,0.0,0.0,0.0,0.0,0.0,0.0,0.0,0.0,0.0,0.0,0.0,0.0,0.0,0.0,0.0,0.0,0.0,0.0,0.0,0.0,0.0,0.0,0.0,0.0,0.0,0.0,0.0,5.0323,4.959,5.1541,5.1579,4.9624,0.0,0.0,0.0,0.0,0.0,0.0,0.0,0.0,0.0,0.0,0.0,0.0,0.0,0.0,0.0,0.0,0.0,0.0,0.0,0.0,0.0,0.0,0.0,0.0,0.0,0.0,0.0,0.0,0.0,0.0,0.0,0.0,0.0,0.0,0.0,0.0,0.0,0.0,0.0,0.0,0.0,0.0,0.0,0.0,0.0,0.0,0.0,0.0,0.0,0.0,0.0,0.0,0.0,0.0,0.0,0.0,0.0,0.0,0.0,0.0,0.0,0.0,0.0,0.0,0.0,0.0,0.0,0.0,0.0,0.0,0.0,0.0,0.0,0.0,0.0,0.0,0.0,0.0,0.0,0.0,0.0,0.0,0.0,0.0,0.0,0.0,0.0,0.0,0.0,0.0,0.0,0.0,0.0,0.0,0.0,0.0,0.0,0.0,0.0,0.0,0.0,0.0,0.0,0.0,0.0,0.0,0.0,0.0,0.0,0.0,0.0,0.0,5.2985,5.313,5.0651,0.0,0.0,0.0,0.0,0.0,0.0,0.0,0.0,0.0,0.0,0.0,0.0,0.0,0.0,0.0,0.0,0.0,0.0,0.0,0.0,0.0,0.0,0.0,0.0,0.0,0.0,0.0,0.0,0.0,0.0,0.0,0.0,0.0,0.0,0.0,0.0,0.0,0.0,0.0,0.0,0.0,0.0,0.0,0.0,0.0,0.0,0.0,0.0,0.0,0.0,0.0,0.0,0.0,0.0,0.0,0.0,0.0,0.0,0.0,0.0,0.0,0.0,0.0,0.0,0.0,0.0,0.0,0.0,0.0,0.0,0.0,0.0,0.0,0.0,0.0,0.0,0.0,0.0,0.0,0.0,0.0,0.0,0.0,0.0,0.0,0.0,0.0,0.0,0.0,0.0,0.0,0.0,0.0,0.0,0.0,0.0,0.0,0.0,0.0,0.0,0.0,0.0,0.0,0.0,0.0,0.0,0.0,0.0,0.0,0.0,5.0714,5.2052,5.303,0.0,5.2157,0.0,0.0,0.0,0.0,0.0,0.0,0.0,0.0,0.0,0.0,0.0,0.0,0.0,0.0,0.0,0.0,0.0,0.0,0.0,0.0,0.0,0.0,0.0,0.0,0.0,0.0,0.0,0.0,0.0,0.0,0.0,0.0,0.0,0.0,0.0,0.0,0.0,0.0,0.0,0.0,0.0,0.0,0.0,0.0,0.0,0.0,0.0,0.0,0.0,0.0,0.0,0.0,0.0,0.0,0.0,0.0,0.0,0.0,0.0,0.0,0.0,0.0,0.0,0.0,0.0,0.0,0.0,0.0,0.0,0.0,0.0,0.0,0.0,0.0,0.0,0.0,0.0,0.0,0.0,0.0,0.0,0.0,0.0,0.0,0.0,0.0,0.0,0.0,0.0,0.0,0.0,0.0,0.0,0.0,0.0,0.0,0.0,0.0,0.0,0.0,0.0,0.0,0.0,0.0,0.0,0.0,0.0,0.0,0.0,0.0,5.2161,5.3668,5.4414,5.4042,0.0,0.0,0.0,0.0,0.0,0.0,0.0,0.0,0.0,0.0,0.0,0.0,0.0,0.0,0.0,0.0,0.0,0.0,0.0,0.0,0.0,0.0,0.0,0.0,0.0,0.0,0.0,0.0,0.0,0.0,0.0,0.0,0.0,0.0,0.0,0.0,0.0,0.0,0.0,0.0,0.0,0.0,0.0,0.0,0.0,0.0,0.0,0.0,0.0,0.0,0.0,0.0,0.0,0.0,0.0,0.0,0.0,0.0,0.0,0.0,0.0,0.0,0.0,0.0,0.0,0.0,0.0,0.0,0.0,0.0,0.0,0.0,0.0,0.0,0.0,0.0,0.0,0.0,0.0,0.0,0.0,0.0,0.0,0.0,0.0,0.0,0.0,0.0,0.0,0.0,0.0,0.0,0.0,0.0,0.0,0.0,0.0,0.0,0.0,0.0,0.0,0.0,0.0,0.0,0.0,0.0,0.0,0.0,0.0,0.0,5.226,5.4028,5.5793,5.5776,5.4775,5.2844,0.0,0.0,0.0,0.0,0.0,0.0,0.0,0.0,0.0,0.0,0.0,0.0,0.0,0.0,0.0,0.0,0.0,0.0,0.0,0.0,0.0,0.0,0.0,0.0,0.0,0.0,0.0,0.0,0.0,0.0,0.0,0.0,0.0,0.0,0.0,0.0,0.0,0.0,0.0,0.0,0.0,0.0,0.0,0.0,0.0,0.0,0.0,0.0,0.0,0.0,0.0,0.0,0.0,0.0,0.0,0.0,0.0,0.0,0.0,0.0,0.0,0.0,0.0,0.0,0.0,0.0,0.0,0.0,0.0,0.0,0.0,0.0,0.0,0.0,0.0,0.0,0.0,0.0,0.0,0.0,0.0,0.0,0.0,0.0,0.0,0.0,0.0,0.0,0.0,0.0,0.0,0.0,0.0,0.0,0.0,0.0,0.0,0.0,0.0,0.0,0.0,0.0,0.0,0.0,0.0,0.0,0.0,0.0,5.4093,5.4441,5.5971,5.8736,5.6751,5.4875,0.0,0.0,0.0,0.0,0.0,0.0,0.0,0.0,0.0,0.0,0.0,0.0,0.0,0.0,0.0,0.0,0.0,0.0,0.0,0.0,0.0,0.0,0.0,0.0,0.0,0.0,0.0,0.0,0.0,0.0,0.0,0.0,0.0,0.0,0.0,0.0,0.0,0.0,0.0,0.0,0.0,0.0,0.0,0.0,0.0,0.0,0.0,0.0,0.0,0.0,0.0,0.0,0.0,0.0,0.0,0.0,0.0,0.0,0.0,0.0,0.0,0.0,0.0,0.0,0.0,0.0,0.0,0.0,0.0,0.0,0.0,0.0,0.0,0.0,0.0,0.0,0.0,0.0,0.0,0.0,0.0,0.0,0.0,0.0,0.0,0.0,0.0,0.0,0.0,0.0,0.0,0.0,0.0,0.0,0.0,0.0,0.0,0.0,0.0,0.0,0.0,0.0,0.0,0.0,0.0,0.0,0.0,0.0,0.0,5.1044,5.3416,5.6653,6.0377,5.7883,5.6149,0.0,0.0,0.0,0.0,0.0,0.0,0.0,0.0,0.0,0.0,0.0,0.0,0.0,0.0,0.0,0.0,0.0,0.0,0.0,0.0,0.0,0.0,0.0,0.0,0.0,0.0,0.0,0.0,0.0,0.0,0.0,0.0,0.0,0.0,0.0,0.0,0.0,0.0,0.0,0.0,0.0,0.0,0.0,0.0,0.0,0.0,0.0,0.0,0.0,0.0,0.0,0.0,0.0,0.0,0.0,0.0,0.0,0.0,0.0,0.0,0.0,0.0,0.0,0.0,0.0,0.0,0.0,0.0,0.0,0.0,0.0,0.0,0.0,0.0,0.0,0.0,0.0,0.0,0.0,0.0,0.0,0.0,0.0,0.0,0.0,0.0,0.0,0.0,0.0,0.0,0.0,0.0,0.0,0.0,0.0,0.0,0.0,0.0,0.0,0.0,0.0,0.0,0.0,0.0,0.0,0.0,0.0,0.0,0.0,5.239,5.5602,5.868,6.1361,5.8969,5.6826,0.0,0.0,0.0,0.0,0.0,0.0,0.0,0.0,0.0,0.0,0.0,0.0,0.0,0.0,0.0,0.0,0.0,0.0,0.0,0.0,0.0,0.0,0.0,0.0,0.0,0.0,0.0,0.0,0.0,0.0,0.0,0.0,0.0,0.0,0.0,0.0,0.0,0.0,0.0,0.0,0.0,0.0,0.0,0.0,0.0,0.0,0.0,0.0,0.0,0.0,0.0,0.0,0.0,0.0,0.0,0.0,0.0,0.0,0.0,0.0,0.0,0.0,0.0,0.0,0.0,0.0,0.0,0.0,0.0,0.0,0.0,0.0,0.0,0.0,0.0,0.0,0.0,0.0,0.0,0.0,0.0,0.0,0.0,0.0,0.0,0.0,0.0,0.0,0.0,0.0,0.0,0.0,0.0,0.0,0.0,0.0,0.0,0.0,0.0,0.0,0.0,0.0,0.0,0.0,0.0,0.0,0.0,0.0,5.2459,5.9112,6.1344,6.2247,6.1655,6.0077,5.676,0.0,0.0,0.0,0.0,0.0,0.0,0.0,0.0,0.0,0.0,0.0,0.0,0.0,0.0,0.0,0.0,0.0,0.0,0.0,0.0,0.0,0.0,0.0,0.0,0.0,0.0,0.0,0.0,0.0,0.0,0.0,0.0,0.0,0.0,0.0,0.0,0.0,0.0,0.0,0.0,0.0,0.0,0.0,0.0,0.0,0.0,0.0,0.0,0.0,0.0,0.0,0.0,0.0,0.0,0.0,0.0,0.0,0.0,0.0,0.0,0.0,0.0,0.0,0.0,0.0,0.0,0.0,0.0,0.0,0.0,0.0,0.0,0.0,0.0,0.0,0.0,0.0,0.0,0.0,0.0,0.0,0.0,0.0,0.0,0.0,0.0,0.0,0.0,0.0,0.0,0.0,0.0,0.0,0.0,0.0,0.0,0.0,0.0,0.0,0.0,0.0,0.0,0.0,0.0,0.0,0.0,0.0,0.0,0.0,5.5593,6.1422,6.4432,6.4075,6.1469,5.9278,0.0,0.0,0.0,0.0,0.0,0.0,0.0,0.0,0.0,0.0,0.0,0.0,0.0,0.0,0.0,0.0,0.0,0.0,0.0,0.0,0.0,0.0,0.0,0.0,0.0,0.0,0.0,0.0,0.0,0.0,0.0,0.0,0.0,0.0,0.0,0.0,0.0,0.0,0.0,0.0,0.0,0.0,0.0,0.0,0.0,0.0,0.0,0.0,0.0,0.0,0.0,0.0,0.0,0.0,0.0,0.0,0.0,0.0,0.0,0.0,0.0,0.0,0.0,0.0,0.0,0.0,0.0,0.0,0.0,0.0,0.0,0.0,0.0,0.0,0.0,0.0,0.0,0.0,0.0,0.0,0.0,0.0,0.0,0.0,0.0,0.0,0.0,0.0,0.0,0.0,0.0,0.0,0.0,0.0,0.0,0.0,0.0,0.0,0.0,0.0,0.0,0.0,0.0,0.0,0.0,0.0,0.0,0.0,0.0,5.9218,6.5682,6.9077,6.8458,6.5264,6.2515,6.0141,0.0,0.0,0.0,0.0,0.0,0.0,0.0,0.0,0.0,0.0,0.0,0.0,0.0,0.0,0.0,0.0,0.0,0.0,0.0,0.0,0.0,0.0,0.0,0.0,0.0,0.0,0.0,0.0,0.0,0.0,0.0,0.0,0.0,0.0,0.0,0.0,0.0,0.0,0.0,0.0,0.0,0.0,0.0,0.0,0.0,0.0,0.0,0.0,0.0,0.0,0.0,0.0,0.0,0.0,0.0,0.0,0.0,0.0,0.0,0.0,0.0,0.0,0.0,0.0,0.0,0.0,0.0,0.0,0.0,0.0,0.0,0.0,0.0,0.0,0.0,0.0,0.0,0.0,0.0,0.0,0.0,0.0,0.0,0.0,0.0,0.0,0.0,0.0,0.0,0.0,0.0,0.0,0.0,0.0,0.0,0.0,0.0,0.0,0.0,0.0,0.0,0.0,0.0,0.0,0.0,0.0,0.0,0.0,6.8172,7.3776,7.5807,7.3927,7.0697,6.6135,0.0,0.0,0.0,0.0,0.0,0.0,0.0,0.0,0.0,0.0,0.0,0.0,0.0,0.0,0.0,0.0,0.0,0.0,0.0,0.0,0.0,0.0,0.0,0.0,0.0,0.0,0.0,0.0,0.0,0.0,0.0,0.0,0.0,0.0,0.0,0.0,0.0,0.0,0.0,0.0,0.0,0.0,0.0,0.0,0.0,0.0,0.0,0.0,0.0,0.0,0.0,0.0,0.0,0.0,0.0,0.0,0.0,0.0,0.0,0.0,0.0,0.0,0.0,0.0,0.0,0.0,0.0,0.0,0.0,0.0,0.0,0.0,0.0,0.0,0.0,0.0,0.0,0.0,0.0,0.0,0.0,0.0,0.0,0.0,0.0,0.0,0.0,0.0,0.0,0.0,0.0,0.0,0.0,0.0,0.0,0.0,0.0,0.0,0.0,0.0,0.0,0.0,0.0,0.0,0.0,0.0,0.0,0.0,0.0,7.5642,8.1802,8.2538,7.7451,7.301,6.9064,0.0,0.0,0.0,0.0,0.0,0.0,0.0,0.0,0.0,0.0,0.0,0.0,0.0,0.0,0.0,0.0,0.0,0.0,0.0,0.0,0.0,0.0,0.0,0.0,0.0,0.0,0.0,0.0,0.0,0.0,0.0,0.0,0.0,0.0,0.0,0.0,0.0,0.0,0.0,0.0,0.0,0.0,0.0,0.0,0.0,0.0,0.0,0.0,0.0,0.0,0.0,0.0,0.0,0.0,0.0,0.0,0.0,0.0,0.0,0.0,0.0,0.0,0.0,0.0,0.0,0.0,0.0,0.0,0.0,0.0,0.0,0.0,0.0,0.0,0.0,0.0,0.0,0.0,0.0,0.0,0.0,0.0,0.0,0.0,0.0,0.0,0.0,0.0,0.0,0.0,0.0,0.0,0.0,0.0,0.0,0.0,0.0,0.0,0.0,0.0,0.0,0.0,0.0,0.0,0.0,0.0,0.0,0.0,7.3539,8.0911,8.6059,8.6921,8.3251,7.8442,7.378,0.0,0.0,0.0,0.0,0.0,0.0,0.0,0.0,0.0,0.0,0.0,0.0,0.0,0.0,0.0,0.0,0.0,0.0,0.0,0.0,0.0,0.0,0.0,0.0,0.0,0.0,0.0,0.0,0.0,0.0,0.0,0.0,0.0,0.0,0.0,0.0,0.0,0.0,0.0,0.0,0.0,0.0,0.0,0.0,0.0,0.0,0.0,0.0,0.0,0.0,0.0,0.0,0.0,0.0,0.0,0.0,0.0,0.0,0.0,0.0,0.0,0.0,0.0,0.0,0.0,0.0,0.0,0.0,0.0,0.0,0.0,0.0,0.0,0.0,0.0,0.0,0.0,0.0,0.0,0.0,0.0,0.0,0.0,0.0,0.0,0.0,0.0,0.0,0.0,0.0,0.0,0.0,0.0,0.0,0.0,0.0,0.0,0.0,0.0,0.0,0.0,0.0,0.0,0.0,0.0,0.0,0.0,0.0,7.684,8.4569,8.7924,8.9638,8.9417,8.4866,7.9029,0.0,0.0,0.0,0.0,0.0,0.0,0.0,0.0,0.0,0.0,0.0,0.0,0.0,0.0,0.0,0.0,0.0,0.0,0.0,0.0,0.0,0.0,0.0,0.0,0.0,0.0,0.0,0.0,0.0,0.0,0.0,0.0,0.0,0.0,0.0,0.0,0.0,0.0,0.0,0.0,0.0,0.0,0.0,0.0,0.0,0.0,0.0,0.0,0.0,0.0,0.0,0.0,0.0,0.0,0.0,0.0,0.0,0.0,0.0,0.0,0.0,0.0,0.0,0.0,0.0,0.0,0.0,0.0,0.0,0.0,0.0,0.0,0.0,0.0,0.0,0.0,0.0,0.0,0.0,0.0,0.0,0.0,0.0,0.0,0.0,0.0,0.0,0.0,0.0,0.0,0.0,0.0,0.0,0.0,0.0,0.0,0.0,0.0,0.0,0.0,0.0,0.0,0.0,0.0,0.0,0.0,0.0,0.0,7.9791,8.7191,8.9933,9.0996,9.0372,8.5673,8.0608,0.0,0.0,0.0,0.0,0.0,0.0,0.0,0.0,0.0,0.0,0.0,0.0,0.0,0.0,0.0,0.0,0.0,0.0,0.0,0.0,0.0,0.0,0.0,0.0,0.0,0.0,0.0,0.0,0.0,0.0,0.0,0.0,0.0,0.0,0.0,0.0,0.0,0.0,0.0,0.0,0.0,0.0,0.0,0.0,0.0,0.0,0.0,0.0,4.9424,0.0,0.0,0.0,0.0,0.0,0.0,0.0,0.0,0.0,0.0,0.0,0.0,0.0,0.0,0.0,0.0,0.0,0.0,0.0,0.0,0.0,0.0,0.0,0.0,0.0,0.0,0.0,0.0,0.0,0.0,0.0,0.0,0.0,0.0,0.0,0.0,0.0,0.0,0.0,0.0,0.0,0.0,0.0,0.0,0.0,0.0,0.0,0.0,0.0,0.0,0.0,0.0,0.0,0.0,0.0,0.0,0.0,0.0,0.0,8.2287,8.9053,9.0959,9.1583,9.1106,8.8683,8.4168,0.0,0.0,0.0,0.0,0.0,0.0,0.0,0.0,0.0,0.0,0.0,0.0,0.0,0.0,0.0,0.0,0.0,0.0,0.0,0.0,0.0,0.0,0.0,0.0,0.0,0.0,0.0,0.0,0.0,0.0,0.0,0.0,0.0,0.0,0.0,0.0,0.0,0.0,0.0,0.0,0.0,0.0,0.0,0.0,0.0,0.0,0.0,0.0,0.0,0.0,0.0,0.0,0.0,0.0,0.0,0.0,0.0,0.0,0.0,0.0,0.0,0.0,0.0,0.0,0.0,0.0,0.0,0.0,0.0,0.0,0.0,0.0,0.0,0.0,0.0,0.0,0.0,0.0,0.0,0.0,0.0,0.0,0.0,0.0,0.0,0.0,0.0,0.0,0.0,0.0,0.0,0.0,0.0,0.0,0.0,0.0,0.0,0.0,0.0,0.0,0.0,0.0,0.0,0.0,0.0,0.0,0.0,7.7264,8.4317,9.03,9.151,9.1913,9.1803,9.1913,8.8023,7.969,0.0,0.0,0.0,0.0,0.0,0.0,0.0,0.0,0.0,0.0,0.0,0.0,0.0,0.0,0.0,0.0,0.0,0.0,0.0,0.0,0.0,0.0,0.0,0.0,0.0,0.0,0.0,0.0,0.0,0.0,0.0,0.0,0.0,0.0,0.0,0.0,0.0,0.0,5.1522,5.5209,0.0,0.0,0.0,0.0,0.0,0.0,0.0,0.0,5.2963,0.0,0.0,0.0,0.0,0.0,0.0,0.0,0.0,0.0,0.0,0.0,0.0,0.0,0.0,0.0,0.0,0.0,0.0,0.0,0.0,0.0,0.0,0.0,0.0,0.0,0.0,0.0,0.0,0.0,0.0,0.0,0.0,0.0,0.0,0.0,0.0,0.0,0.0,0.0,0.0,0.0,0.0,0.0,0.0,0.0,0.0,0.0,0.0,0.0,0.0,0.0,0.0,0.0,0.0,0.0,0.0,7.4472,7.9935,8.5264,9.0482,9.2097,9.2537,9.184,9.2501,8.9674,8.292,0.0,0.0,0.0,0.0,0.0,0.0,0.0,0.0,0.0,0.0,0.0,0.0,0.0,0.0,0.0,0.0,0.0,0.0,0.0,0.0,0.0,0.0,0.0,0.0,0.0,0.0,0.0,0.0,0.0,0.0,0.0,0.0,0.0,0.0,0.0,0.0,0.0,0.0,0.0,6.0757,6.2212,0.0,0.0,0.0,0.0,0.0,0.0,0.0,0.0,5.4513,0.0,0.0,0.0,0.0,0.0,0.0,0.0,0.0,0.0,0.0,0.0,0.0,0.0,0.0,0.0,0.0,0.0,0.0,0.0,0.0,0.0,0.0,0.0,0.0,0.0,0.0,0.0,0.0,0.0,0.0,0.0,0.0,0.0,0.0,0.0,0.0,0.0,0.0,0.0,0.0,0.0,0.0,0.0,0.0,0.0,0.0,0.0,0.0,0.0,0.0,0.0,0.0,0.0,0.0,0.0,7.3654,8.2396,8.8545,9.1803,9.3088,9.3529,9.3125,9.3492,9.0665,0.0,0.0,0.0,0.0,0.0,0.0,0.0,0.0,0.0,0.0,0.0,0.0,0.0,0.0,0.0,0.0,0.0,0.0,0.0,0.0,0.0,0.0,0.0,0.0,0.0,0.0,0.0,0.0,0.0,0.0,0.0,0.0,0.0,0.0,0.0,0.0,0.0,0.0,0.0,0.0,6.2584,6.4072,6.5662,0.0,0.0,0.0,0.0,0.0,0.0,5.7585,5.7007,0.0,0.0,0.0,0.0,0.0,0.0,0.0,0.0,0.0,0.0,0.0,0.0,0.0,0.0,0.0,0.0,0.0,0.0,0.0,0.0,0.0,0.0,0.0,0.0,0.0,0.0,0.0,0.0,0.0,0.0,0.0,0.0,0.0,0.0,0.0,0.0,0.0,0.0,0.0,0.0,0.0,0.0,0.0,0.0,0.0,0.0,0.0,0.0,0.0,0.0,0.0,0.0,0.0,0.0,0.0,7.2188,8.3806,9.0922,9.3015,9.4042,9.4446,9.4299,9.4446,9.151,0.0,0.0,0.0,0.0,0.0,0.0,0.0,0.0,0.0,0.0,0.0,0.0,0.0,0.0,0.0,0.0,0.0,0.0,0.0,0.0,0.0,0.0,0.0,0.0,0.0,0.0,0.0,0.0,0.0,0.0,0.0,0.0,0.0,0.0,0.0,0.0,0.0,0.0,0.0,0.0,0.0,6.6,6.9045,6.4918,0.0,0.0,0.0,0.0,6.125,6.1422,0.0,0.0,0.0,0.0,0.0,0.0,0.0,0.0,0.0,0.0,0.0,0.0,0.0,0.0,0.0,0.0,0.0,0.0,0.0,0.0,0.0,0.0,0.0,0.0,0.0,0.0,0.0,0.0,0.0,0.0,0.0,0.0,0.0,0.0,0.0,0.0,0.0,0.0,0.0,0.0,0.0,0.0,0.0,0.0,0.0,0.0,0.0,0.0,0.0,0.0,0.0,0.0,0.0,0.0,0.0,0.0,7.3583,8.2679,8.9271,9.2941,9.4556,9.4997,9.4336,9.4997,9.2317,0.0,0.0,0.0,0.0,0.0,0.0,0.0,0.0,0.0,0.0,0.0,0.0,0.0,0.0,0.0,0.0,0.0,0.0,0.0,0.0,0.0,0.0,0.0,0.0,0.0,0.0,0.0,0.0,0.0,0.0,0.0,0.0,0.0,0.0,0.0,0.0,0.0,0.0,0.0,0.0,0.0,6.9823,7.0906,6.8166,6.6237,0.0,0.0,6.5337,6.9035,6.8534,0.0,0.0,0.0,0.0,0.0,0.0,0.0,0.0,0.0,0.0,0.0,0.0,0.0,0.0,0.0,0.0,0.0,0.0,0.0,0.0,0.0,0.0,0.0,0.0,0.0,0.0,0.0,0.0,0.0,0.0,0.0,0.0,0.0,0.0,0.0,0.0,0.0,0.0,0.0,0.0,0.0,0.0,0.0,0.0,0.0,0.0,0.0,0.0,0.0,0.0,0.0,0.0,0.0,0.0,0.0,6.9102,7.4604,8.453,9.1253,9.4373,9.6025,9.6906,9.7016,9.6906,9.3822,0.0,0.0,0.0,0.0,0.0,0.0,0.0,0.0,0.0,0.0,0.0,0.0,0.0,0.0,0.0,0.0,0.0,0.0,0.0,0.0,0.0,0.0,0.0,0.0,0.0,0.0,0.0,0.0,0.0,0.0,0.0,0.0,0.0,0.0,0.0,0.0,0.0,0.0,0.0,0.0,0.0,0.0,7.4018,7.164,0.0,0.0,0.0,7.0193,7.2857,0.0,0.0,0.0,0.0,0.0,0.0,0.0,0.0,0.0,0.0,0.0,0.0,0.0,0.0,0.0,0.0,0.0,0.0,0.0,0.0,0.0,0.0,0.0,0.0,0.0,0.0,0.0,0.0,0.0,0.0,0.0,0.0,0.0,0.0,0.0,0.0,0.0,0.0,0.0,0.0,0.0,0.0,0.0,0.0,0.0,0.0,0.0,0.0,0.0,0.0,0.0,0.0,0.0,0.0,0.0,0.0,0.0,7.5653,8.6349,9.3015,9.5474,9.7052,9.8264,9.9071,9.83,0.0,0.0,0.0,0.0,0.0,0.0,0.0,0.0,0.0,0.0,0.0,0.0,0.0,0.0,0.0,0.0,0.0,0.0,0.0,0.0,0.0,0.0,0.0,0.0,0.0,0.0,0.0,4.6007,0.0,0.0,0.0,0.0,0.0,0.0,0.0,0.0,0.0,0.0,0.0,0.0,0.0,0.0,7.0973,7.6183,7.4885,7.4391,0.0,0.0,7.429,7.661,7.7026,7.6008,0.0,0.0,0.0,0.0,0.0,0.0,0.0,0.0,0.0,0.0,0.0,0.0,0.0,0.0,0.0,0.0,0.0,0.0,0.0,0.0,0.0,0.0,0.0,0.0,0.0,0.0,0.0,0.0,0.0,0.0,0.0,0.0,0.0,0.0,0.0,0.0,0.0,0.0,0.0,0.0,0.0,0.0,0.0,0.0,0.0,0.0,0.0,0.0,0.0,0.0,0.0,0.0,0.0,0.0,7.1712,7.7285,8.6864,9.3088,9.5437,9.7089,9.8264,9.9071,9.8337,9.4887,0.0,0.0,0.0,0.0,0.0,0.0,0.0,0.0,0.0,0.0,0.0,0.0,0.0,0.0,0.0,0.0,0.0,0.0,0.0,0.0,0.0,0.0,0.0,0.0,0.0,0.0,0.0,0.0,0.0,0.0,0.0,0.0,0.0,0.0,0.0,0.0,0.0,0.0,0.0,0.0,0.0,7.1007,7.6183,7.7617,7.895,0.0,7.8379,7.7533,8.1845,8.0989,7.8195,7.33,0.0,0.0,0.0,0.0,0.0,0.0,0.0,0.0,0.0,0.0,0.0,0.0,0.0,0.0,0.0,0.0,0.0,0.0,0.0,0.0,0.0,0.0,0.0,0.0,0.0,0.0,0.0,0.0,0.0,0.0,0.0,0.0,0.0,0.0,0.0,0.0,0.0,0.0,0.0,0.0,0.0,0.0,0.0,0.0,0.0,0.0,0.0,0.0,0.0,0.0,0.0,0.0,0.0,7.3016,7.9559,8.8175,9.4299,9.7603,9.8814,9.9989,10.131,10.054,9.7309,0.0,0.0,0.0,0.0,0.0,0.0,0.0,0.0,0.0,0.0,0.0,0.0,0.0,0.0,0.0,0.0,0.0,0.0,0.0,0.0,0.0,0.0,0.0,0.0,0.0,0.0,0.0,0.0,5.4363,5.5108,5.3484,0.0,0.0,0.0,0.0,0.0,0.0,0.0,0.0,0.0,0.0,7.4631,7.9883,8.0155,0.0,0.0,8.2687,8.1634,8.5592,8.3483,8.0575,7.8097,7.3964,0.0,0.0,0.0,0.0,0.0,0.0,0.0,0.0,0.0,0.0,0.0,0.0,0.0,0.0,0.0,0.0,0.0,0.0,0.0,0.0,0.0,0.0,0.0,0.0,0.0,0.0,0.0,0.0,0.0,0.0,0.0,0.0,0.0,0.0,0.0,0.0,0.0,0.0,0.0,0.0,0.0,0.0,0.0,0.0,0.0,0.0,0.0,0.0,0.0,0.0,0.0,0.0,7.4347,8.1305,8.9124,9.4923,9.8668,9.9769,10.1053,10.2632,10.2155,9.9328,0.0,0.0,0.0,0.0,0.0,0.0,0.0,0.0,0.0,0.0,0.0,0.0,0.0,0.0,0.0,0.0,0.0,0.0,0.0,0.0,0.0,0.0,0.0,0.0,0.0,0.0,0.0,0.0,5.6156,5.6224,5.4465,0.0,0.0,0.0,0.0,0.0,0.0,0.0,0.0,0.0,0.0,7.7579,8.2603,8.2449,8.3439,8.7599,8.5228,8.4155,8.7335,8.5211,8.2732,8.1534,0.0,0.0,0.0,0.0,0.0,0.0,0.0,0.0,0.0,0.0,0.0,0.0,0.0,0.0,0.0,0.0,0.0,0.0,0.0,0.0,0.0,0.0,0.0,0.0,0.0,0.0,0.0,5.4436,0.0,0.0,5.3408,0.0,0.0,0.0,0.0,0.0,0.0,0.0,0.0,0.0,0.0,0.0,0.0,0.0,0.0,0.0,0.0,0.0,0.0,0.0,0.0,0.0,0.0,7.5726,8.215,8.9454,9.474,9.7897,9.9475,10.109,10.2632,10.2705,10.0393,9.5584,0.0,0.0,0.0,0.0,0.0,0.0,0.0,0.0,0.0,0.0,0.0,0.0,0.0,0.0,0.0,0.0,0.0,0.0,0.0,0.0,0.0,0.0,0.0,0.0,0.0,0.0,5.3822,5.4262,5.4431,0.0,0.0,0.0,0.0,0.0,0.0,0.0,0.0,0.0,7.1162,7.5183,7.9019,8.3469,8.4654,8.5794,8.7952,8.5587,8.4406,8.6862,8.6028,8.4535,0.0,0.0,0.0,0.0,0.0,0.0,0.0,0.0,0.0,0.0,0.0,0.0,0.0,0.0,0.0,0.0,0.0,0.0,0.0,0.0,0.0,0.0,0.0,0.0,0.0,0.0,0.0,6.2401,6.163,0.0,0.0,0.0,0.0,0.0,0.0,0.0,0.0,0.0,0.0,0.0,7.4221,7.69,0.0,0.0,0.0,0.0,0.0,0.0,0.0,0.0,0.0,0.0,0.0,0.0,7.7818,8.3838,9.151,9.6795,9.9402,10.054,10.1604,10.2669,10.3219,10.1237,9.6428,0.0,0.0,0.0,0.0,0.0,0.0,0.0,0.0,0.0,0.0,0.0,0.0,0.0,0.0,0.0,0.0,0.0,0.0,0.0,0.0,0.0,0.0,0.0,0.0,0.0,5.6469,0.0,0.0,0.0,0.0,0.0,0.0,0.0,0.0,0.0,0.0,6.3964,6.8964,7.4681,7.8675,8.1992,8.4526,8.6277,8.8016,0.0,0.0,0.0,0.0,0.0,0.0,0.0,0.0,0.0,0.0,0.0,0.0,0.0,0.0,7.6911,7.0172,6.6992,6.5504,6.5824,0.0,0.0,0.0,0.0,0.0,0.0,0.0,0.0,0.0,0.0,0.0,0.0,0.0,0.0,6.8274,6.7797,6.7247,0.0,0.0,0.0,0.0,0.0,0.0,0.0,0.0,7.6864,7.9323,8.0461,8.2847,8.2553,7.9984,7.8883,7.5763,0.0,0.0,0.0,0.0,0.0,0.0,0.0,0.0,8.0167,8.5894,9.3015,9.7603,9.9402,10.0796,10.1898,10.2669,10.2925,10.1457,9.8043,9.3786,8.9748,0.0,0.0,0.0,0.0,0.0,0.0,0.0,0.0,0.0,0.0,0.0,0.0,0.0,0.0,0.0,0.0,0.0,0.0,0.0,0.0,0.0,0.0,0.0,5.9974,0.0,0.0,0.0,0.0,0.0,0.0,0.0,0.0,0.0,6.4923,6.9768,7.5012,7.9431,8.2641,8.5033,8.6441,0.0,0.0,0.0,0.0,0.0,0.0,0.0,8.7692,8.7178,8.5196,8.2884,8.0645,8.2517,8.4058,8.3177,0.0,0.0,7.6974,7.3817,7.2446,7.2778,7.3344,7.3434,7.2257,7.3446,7.4245,0.0,0.0,0.0,0.0,6.9082,0.0,0.0,0.0,7.2899,7.2899,0.0,7.2789,0.0,0.0,0.0,0.0,6.9376,7.2349,0.0,0.0,8.6004,8.8977,9.0482,9.1216,9.0886,8.9528,8.9271,8.7252,8.3214,7.5763,0.0,0.0,0.0,0.0,0.0,0.0,8.27,8.8206,9.3859,9.7126,9.8007,10.0283,10.1861,10.2632,10.1934,10.1127,10.0209,9.5878,9.1803,8.839,8.0828,0.0,0.0,0.0,0.0,0.0,0.0,0.0,0.0,0.0,0.0,0.0,0.0,0.0,0.0,0.0,0.0,0.0,0.0,0.0,0.0,6.5455,0.0,0.0,0.0,0.0,0.0,0.0,0.0,0.0,0.0,7.2865,7.0961,7.5913,8.1266,8.517,0.0,0.0,0.0,0.0,8.8844,9.1528,8.9958,8.9493,9.1764,9.2024,9.1913,9.1913,0.0,0.0,8.6885,8.861,8.9344,8.5673,8.7582,8.8793,8.6334,8.3141,8.1117,8.1018,8.1346,8.1838,8.1809,8.262,8.4202,8.1232,0.0,0.0,0.0,0.0,7.4661,7.6644,7.947,8.0057,7.9984,7.9396,7.8809,0.0,0.0,0.0,0.0,0.0,0.0,8.0461,8.4719,8.5967,8.828,9.151,9.1693,9.1546,9.1106,9.1106,9.0225,8.8536,8.6811,8.0791,7.1027,0.0,0.0,0.0,0.0,8.6004,8.9968,9.496,9.7933,9.8778,10.054,10.1898,10.2669,10.1934,10.1384,10.1164,9.9255,9.5951,9.1033,8.6921,0.0,0.0,0.0,0.0,0.0,0.0,0.0,0.0,0.0,0.0,0.0,0.0,0.0,0.0,0.0,0.0,0.0,0.0,0.0,6.3192,6.9792,7.1865,0.0,0.0,0.0,0.0,0.0,0.0,0.0,0.0,0.0,7.8702,8.0684,8.2902,0.0,0.0,8.8636,8.7851,9.1326,9.4241,9.4783,9.5495,0.0,9.6902,9.6061,9.529,9.529,9.4556,9.3639,9.2868,9.2574,9.2207,9.151,9.1803,9.1803,9.1069,8.8867,8.7044,8.671,8.6728,8.6377,8.5299,8.5863,8.6502,8.7839,8.4058,8.0498,7.936,7.9984,8.0461,8.2333,8.5086,8.5563,8.571,8.549,8.5013,8.3177,8.0314,7.8589,0.0,0.0,0.0,8.4829,8.8683,8.8683,9.0188,9.2721,9.2794,9.2794,9.2758,9.2464,9.2244,9.206,9.2244,8.8096,7.9984,0.0,8.1379,8.1048,8.5416,8.8977,9.1657,9.6061,9.8447,9.8668,10.0466,10.1714,10.2191,10.1751,10.1494,10.1494,10.0723,9.8741,9.5327,9.1326,8.7178,0.0,0.0,0.0,0.0,0.0,0.0,0.0,0.0,0.0,0.0,0.0,5.9857,5.536,0.0,0.0,0.0,6.5635,6.8102,7.075,7.6063,0.0,0.0,0.0,0.0,0.0,0.0,0.0,7.6523,7.9961,8.2737,8.4792,8.5333,8.5845,8.679,8.9203,9.055,8.9758,0.0,9.6431,9.6531,9.7537,9.8518,9.8992,9.83,9.764,9.7676,9.6869,9.6355,9.6795,9.6098,9.5694,9.5988,9.5804,9.5474,9.5474,9.4226,9.261,9.102,9.0866,9.0631,8.9564,8.977,8.995,9.3345,9.2794,8.6848,8.5123,8.6224,8.6261,8.7545,8.9564,8.9601,9.0005,9.0665,9.0702,8.9454,8.7215,8.4389,0.0,8.7509,8.7619,8.9711,9.3382,9.3382,9.3822,9.4556,9.452,9.4483,9.4483,9.3749,9.3749,9.4299,9.3712,9.2574,9.0996,8.9601,8.8757,8.8573,9.0078,9.173,9.3418,9.7052,9.8631,9.8154,10.0393,10.1567,10.1604,10.1641,10.1677,10.1567,10.087,10.0429,10.0136,9.452,9.0225,8.7802,0.0,0.0,0.0,0.0,0.0,0.0,0.0,0.0,0.0,0.0,0.0,0.0,0.0,0.0,0.0,7.8565,0.0,8.3287,8.2964,0.0,0.0,0.0,7.4549,7.487,7.7922,8.0678,8.2432,0.0,0.0,8.9381,8.9601,8.9674,8.9784,9.1767,9.3298,9.3686,9.5229,9.6603,9.7413,9.7594,9.8045,9.9279,9.9365,9.9292,9.9292,9.9255,9.9108,9.9071,9.8961,9.9035,9.8888,9.9071,9.8998,9.9071,9.8704,9.797,9.4224,9.4226,9.4666,9.4515,9.4515,9.4552,9.5474,9.4813,9.3272,9.1767,9.0372,9.0372,9.0702,9.1216,9.1216,9.1326,9.151,9.1546,9.1253,9.0629,9.0555,9.0922,9.1693,9.2941,9.4336,9.5804,9.5841,9.6282,9.6979,9.6428,9.6135,9.6135,9.5951,9.5621,9.5254,9.5658,9.5327,9.441,9.4556,9.3455,9.1179,9.2611,9.4226,9.5841,9.6795,9.808,9.9695,10.1494,10.2412,10.2412,10.2999,10.3036,10.2448,10.2228,10.1567,10.0319,9.8227,9.6245,9.441,8.6114,0.0,0.0,0.0,0.0,0.0,0.0,0.0,0.0,0.0,6.9077,6.2834,0.0,7.2011,0.0,8.3478,8.6261,8.2847,8.5097,0.0,0.0,8.1842,8.1007,8.5114,8.327,8.3184,8.7262,8.7772,8.8757,9.0959,9.1216,9.1693,9.2941,9.3639,9.4261,9.4943,9.7466,9.933,9.9513,9.9988,10.0591,10.079,10.0907,10.087,10.0907,10.0393,10.0026,10.0026,9.9512,9.9108,9.9108,9.9108,9.9108,9.9145,9.9108,9.8851,9.7897,9.786,9.797,9.797,9.7933,9.7933,9.753,9.7126,9.7089,9.6318,9.496,9.3529,9.2905,9.2941,9.3308,9.3455,9.3455,9.3859,9.4006,9.4042,9.485,9.5217,9.5327,9.6539,9.7346,9.775,9.7419,9.7456,9.786,9.7089,9.6906,9.7236,9.6869,9.6649,9.6575,9.6649,9.6465,9.6061,9.6502,9.5804,9.4153,9.4923,9.5658,9.6171,9.7236,9.8924,10.1274,10.2265,10.2705,10.2742,10.3476,10.3366,10.2191,10.2852,10.2338,10.0393,9.9548,9.8227,9.6208,9.0739,8.6848,0.0,0.0,0.0,0.0,0.0,0.0,0.0,0.0,0.0,0.0,0.0,7.7892,7.958,8.6224,8.894,8.5196,8.8536,9.0739,9.0262,8.7949,8.7509,9.0188,8.8096,8.7509,9.0152,9.0408,9.1033,9.2684,9.2905,9.3382,9.4666,9.5144,9.5658,9.6575,9.8741,10.0393,10.0796,10.12,10.1494,10.1494,10.1494,10.1494,10.1457,10.1127,10.0833,10.0796,10.0466,10.0172,10.0172,10.0172,10.0172,10.0172,10.0172,10.0172,10.0172,10.0172,9.9916,9.9255,9.9108,9.9108,9.9365,9.9255,9.9255,9.9218,9.8888,9.6098,9.4923,9.496,9.5658,9.5988,9.6025,9.6685,9.7016,9.7052,9.775,9.8117,9.8264,9.9035,9.9402,9.9365,9.8668,9.8264,9.8007,9.7236,9.7199,9.7823,9.7089,9.7163,9.8007,9.7456,9.7089,9.7052,9.7199,9.7163,9.6869,9.6979,9.6575,9.5731,9.7933,10.0136,10.2191,10.2632,10.2852,10.2889,10.3733,10.3513,10.2045,10.3219,10.2889,10.0723,9.9842,9.8374,9.6098,9.4813,9.1436,0.0,8.4572,0.0,0.0,0.0,0.0,0.0,0.0,0.0,0.0,8.3386,8.4315,8.1856,8.8023,9.1289,8.9307,9.2537,9.474,9.474,9.4042,9.3235,9.2391,9.217,9.2134,9.2134,9.2794,9.3565,9.4299,9.4446,9.474,9.5547,9.6171,9.6906,9.7933,9.9292,10.0576,10.1494,10.1751,10.2008,10.1934,10.1898,10.1898,10.1861,10.1898,10.1788,10.1861,10.1824,10.1751,10.1641,10.1567,10.1567,10.1531,10.1457,10.1457,10.1384,10.1347,10.098,9.9879,9.9548,9.9402,10.065,10.0099,10.0062,9.9695,9.9035,9.8447,9.819,9.819,9.8374,9.8447,9.8447,9.8594,9.8668,9.8668,9.8814,9.9255,9.9879,10.0686,10.1017,10.1017,10.087,10.0099,9.8888,9.8043,9.775,9.7823,9.7089,9.7456,9.8888,9.9365,9.9292,9.8704,9.9952,9.9622,9.7787,0.0,0.0,0.0,9.8227,9.9328,9.9879,10.2338,10.366,10.3696,10.5128,0.0,10.4504,10.41,10.3403,10.2301,10.1457,0.0,0.0,0.0,0.0,0.0,0.0,0.0,0.0,0.0,0.0,0.0,8.44,8.3961,8.2128,8.6485,8.8206,8.538,9.0335,9.3896,9.4116,9.5951,9.7199,9.7199,9.6465,9.5694,9.4923,9.4226,9.3822,9.3822,9.3969,9.441,9.5144,9.529,9.5584,9.6282,9.6612,9.7309,9.8704,9.9695,10.0833,10.2155,10.2925,10.3366,10.3439,10.3366,10.3293,10.3439,10.3439,10.3403,10.3366,10.3366,10.3146,10.2632,10.2485,10.2265,10.1677,10.1494,10.1604,10.1494,10.1531,10.1384,10.109,10.1053,10.1053,10.1861,10.1494,10.1494,10.1017,0.0,10.0283,10.0283,10.0209,9.9438,9.9328,9.9732,10.0099,10.0283,10.0283,10.0283,10.0503,10.0907,10.131,10.1714,10.2045,10.1274,10.0686,10.0246,9.9071,9.8704,9.9035,9.8668,9.9108,10.0246,10.0686,10.0686,10.0283,10.0686,10.0283,9.9145,9.9475,9.9475,9.9071,10.0246,10.1274,10.2081,10.366,10.4504,10.4541,10.5715,0.0,0.0,0.0,0.0,0.0,0.0,0.0,0.0,9.6795,0.0,9.2501,9.0115,8.861,8.8169,8.7802,8.8243,8.9858,9.0372,8.9748,8.7729,9.0592,9.1767,9.0262,9.3051,9.507,9.5511,9.6942,9.7897,9.786,9.753,9.6979,9.6208,9.5731,9.5327,9.5034,9.5254,9.5658,9.6025,9.6098,9.6245,9.6649,9.6722,9.7456,9.9255,10.0026,10.098,10.2925,10.3586,10.388,10.388,10.388,10.3917,10.388,10.388,10.388,10.388,10.388,10.3733,10.3366,10.3293,10.3146,10.2815,10.2669,10.2669,10.2669,10.2669,10.2669,10.2632,10.2045,10.1641,10.2925,10.2925,10.2925,10.2522,10.1898,10.1898,10.1751,10.1384,9.9952,0.0,0.0,10.1127,10.1567,10.1714,10.1861,10.2008,10.2118,10.2118,10.2485,10.3072,10.1751,10.1274,10.142,10.0136,9.9879,10.0466,10.0356,10.087,10.1898,10.1934,10.1898,10.1861,10.1384,10.109,10.0943,10.0943,10.131,10.2118,10.2522,10.3329,10.4651,10.5128,10.5348,10.5348,10.6302,10.6156,10.4834,10.5825,10.5458,10.3476,10.3072,10.1898,9.9695,9.8741,9.7823,9.6759,9.5951,9.5437,9.529,9.4666,9.4299,9.4299,9.4446,9.4153,9.3382,9.3896,9.4299,9.4299,9.5034,9.5547,9.5731,9.7163,9.8154,9.83,9.83,9.8043,9.7419,9.7199,9.6832,9.6171,9.6502,9.6906,9.6906,9.6759,9.6832,9.7052,9.7089,9.786,10.0099,10.1127,10.2081,10.3733,10.4357,10.443,10.4357,10.443,10.432,10.4467,10.443,10.432,10.432,10.432,10.4284,10.4137,10.4137,10.4027,10.3917,10.377,10.388,10.388,10.388,10.388,10.377,10.2889,10.2228,10.3733,10.3733,10.3696,10.366,10.3549,10.3549,10.2779,10.142,10.0503,10.0209,10.0356,10.1127,10.1861,10.2558,10.3256,10.3917,10.4577,10.4614,10.4687,10.4761,10.4541,10.3403,10.1531,10.1274,10.12,10.1274,10.065,10.142,10.3366,10.3586,10.3549,10.366,10.4137,10.41,10.3439,10.3403,10.377,10.4577,10.3329,10.2815,10.3072,10.5128,10.6192,10.6266,10.7661,10.8358,10.8138,10.7,10.6229,10.5862,10.4504,10.2962,10.1274,10.0393,9.8998,9.6869,9.5951,9.5217,9.4556,9.4336,9.4299,9.4336,9.4923,9.4997,9.4226,9.4226,9.4299,9.4336,9.5107,9.5804,9.6502,9.797,9.9145,9.9805,9.9952,9.9916,9.9695,9.9181,9.8484,9.7676,9.764,9.7787,9.7823,9.7309,9.7456,9.83,9.83,9.8888,10.1641,10.3586,10.4467,10.4944,10.5605,10.5972,10.5935,10.6046,10.6046,10.6046,10.6046,10.6046,10.6046,10.6046,10.5825,10.5128,10.5091,10.4798,10.421,10.388,10.4063,10.4137,10.421,10.4137,10.4247,10.3917,10.3696,10.4541,10.4577,10.4541,10.4284,10.388,10.388,10.3256,10.2118,10.131,10.0686,10.0429,10.1604,10.2375,10.2742,10.3549,10.41,10.443,10.443,10.4687,10.5091,10.5128,10.4541,10.3549,10.3439,10.3219,10.2852,10.3366,10.4173,10.5238,10.6119,10.6559,10.6559,10.6523,10.6046,10.5348,10.5678,10.6302,10.7073,10.5972,10.5348,10.5385,10.689,10.7697,10.7734,10.8468,10.8799,10.8799,10.8101,10.7697,10.7697,10.6523,10.4944,10.2925,10.2045,10.054,9.819,9.7236,9.6649,9.6245,9.6245,9.6428,9.6869,9.7236,9.7309,9.6942,9.6098,9.5584,9.5584,9.5951,9.6282,9.6722,9.8154,9.9402,10.0209,10.1053,10.1384,10.1053,10.109,10.0576,9.9512,9.9585,9.9842,9.9842,9.9512,9.9292,9.9769,9.9695,10.076,10.3036,10.4761,10.5825,10.5862,10.6486,10.6963,10.7073,10.744,10.7661,10.7697,10.7697,10.7697,10.7697,10.7697,10.7514,10.7183,10.678,10.6339,10.5899,10.5495,10.5458,10.5825,10.5899,10.6009,10.6376,10.6559,10.6082,10.5678,10.5678,10.5862,10.5568,10.5018,10.4981,10.4541,10.377,10.2962,10.2118,10.1567,10.2375,10.2889,10.3329,10.4284,10.4834,10.4981,10.4981,10.5348,10.5862,10.5752,10.5568,10.5385,10.5238,10.4761,10.4394,10.5678,10.6486,10.6816,10.8101,10.8688,10.8468,10.7881,10.7257,10.667,10.7257,10.7991,10.8725,10.8358,10.8028,10.7881,10.8652,10.9055,10.9055,10.9276,10.9349,10.9312,10.9166,10.9055,10.9019,10.8285,10.689,10.4871,10.3623,10.2045,10.0136,9.8961,9.8521,9.8704,9.8704,9.8998,9.9585,9.9659,9.9659,9.9548,9.8521,9.7603,9.7346,9.7456,9.7566,9.7823,9.9035,10.0172,10.0833,10.2081,10.2669,10.2228,10.2595,10.2448,10.12,10.1384,10.1714,10.1751,10.1604,10.1164,10.076,10.1531,10.2815,10.4063,10.5568,10.6596,10.7,10.7477,10.7807,10.7881,10.8321,10.8652,10.8799,10.8762,10.8652,10.8652,10.8725,10.8762,10.8542,10.8211,10.7807,10.7771,10.7367,10.722,10.7587,10.7661,10.7918,10.8395,10.8505,10.8211,10.733,10.7477,10.8064,10.8431,10.8211,10.8248,10.7771,10.7,10.6266,10.5458,10.4504,10.3293,10.3549,10.4981,10.6486,10.7477,10.8175,10.8321,10.8285,10.8285,10.7697,10.6963,10.6266,10.5532,10.5054,10.5128,10.6009,10.689,10.7514,10.8431,10.8468,10.7771,10.7624,10.7587,10.7477,10.7551,10.8028,10.8799,10.9423,10.9423,10.8799,10.9459,10.99,10.99,11.0597,11.1001,11.0854,11.0267,10.9863,10.9826,10.9166,10.8248,10.7147,10.5054,10.3366,10.2412,10.0943,10.0393,10.1053,10.1164,10.1127,10.1237,10.1274,10.1274,10.1274,10.1127,10.0393,9.9438,9.9585,9.9805,10.0062,10.131,10.2191,10.2375,10.3219,10.3733,10.366,10.3733,10.3439,10.2595,10.2669,10.2595,10.2705,10.2301,10.1751,10.1824,10.3256,10.4614,10.5275,10.6339,10.7734,10.8321,10.8688,10.8688,10.8725,10.8725,10.9019,10.8945,10.8872,10.8982,10.9092,10.9019,10.8835,10.9239,10.8835,10.8725,10.8688,10.8578,10.8542,10.8615,10.8725,10.8762,10.8835,10.8945,10.8725,10.7587,10.7661,10.8468,10.8799,10.8799,10.8799,10.8615,10.8211,10.6926,10.6192,10.5752,10.4651,10.4761,10.5935,10.7073,10.8028,10.8762,10.8799,10.8799,10.8835,10.8909,10.8321,10.7183,10.7294,10.6816,10.6046,10.7183,10.7991,10.8468,10.9569,10.9569,10.8468,10.8762,10.8542,10.7734,10.8542,10.9166,10.9496,11.0304,11.056,11.0267,11.0047,10.9753,10.9423,11.0083,11.0744,11.1111,11.0854,11.0928,11.1295,11.0634,10.9643,10.8358,10.689,10.5715,10.4871,10.3329,10.2338,10.2228,10.2191,10.2412,10.2889,10.2925,10.2925,10.2925,10.2925,10.2595,10.2045,10.1384,10.1017,10.1127,10.2045,10.2889,10.3403,10.4137,10.4651,10.4614,10.5054,10.5054,10.432,10.4577,10.4871,10.4834,10.4614,10.4394,10.4357,10.5018,10.5568,10.6926,10.7514,10.8285,10.979,11.023,10.9973,10.9679,10.9973,11.0157,11.023,11.023,11.023,11.023,11.023,11.023,11.023,10.9863,10.9569,10.9496,10.9092,10.8909,10.9312,11.001,11.023,11.023,11.023,11.0377,10.7734,10.8064,10.9019,10.9459,10.9459,10.9459,10.9459,10.9276,10.7954,10.7257,10.6963,10.6156,10.6376,10.733,10.7771,10.8468,10.9386,10.9459,10.9606,10.979,11.0157,10.9716,10.8688,10.8909,10.8395,10.7514,10.8688,10.9716,11.0157,11.0964,11.0817,10.9716,10.9826,10.9386,10.8505,10.9643,11.045,11.0707,11.1441,11.1772,11.1478,11.0964,11.0267,10.9606,11.023,11.0928,11.1515,11.1735,11.2102,11.2653,11.2139,11.1258,10.9863,10.8615,10.7477,10.6449,10.5275,10.4541,10.4357,10.4394,10.4614,10.5165,10.5238,10.5238,10.5238,10.5238,10.5238,10.5165,10.4173,10.3439,10.2595,10.3219,10.4027,10.4834,10.5495,10.5862,10.6156,10.6706,10.6816,10.6302,10.6633,10.7073,10.7037,10.6963,10.6853,10.6559,10.6192,10.6376,10.8175,10.8321,10.8725,11.0817,11.1331,11.1184,11.056,11.0964,11.1441,11.1625,11.1625,11.1845,11.1882,11.1845,11.1845,11.1772,11.1111,11.0707,11.0707,11.0193,10.9753,11.0487,11.1111,11.1588,11.1808,11.1808,11.2176,10.8028,10.8982,11.045,11.1111,11.1111,11.1111,11.1111,11.1038,11.0157,10.9423,10.8652,10.7844,10.8358,10.9606,10.9055,10.9643,11.0964,11.1111,11.1478,11.1992,11.1478,11.1111,11.1001,11.0304,10.9496,10.8688,11.0083,11.1662,11.3057,11.2616,11.1955,11.1074,11.0377,10.9936,10.9826,11.0597,11.1515,11.2029,11.2873,11.3057,11.2432,11.2322,11.1845,11.1184,11.1808,11.2176,11.2359,11.3057,11.346,11.3534,11.3424,11.302,11.2102,11.001,10.8101,10.6706,10.6376,10.6926,10.8064,10.8175,10.8248,10.8395,10.8175,10.8431,10.8101,10.8101,10.8101,10.8431,10.7954,10.711,10.5385,10.5605,10.6376,10.711,10.7367,10.7734,10.8431,10.8321,10.8652,10.8468,10.8395,10.8431,10.8578,10.8688,10.8285,10.7807,10.7514,10.7881,10.8688,10.8872,10.9533,11.0854,11.1772,11.2065,11.1441,11.1845,11.2249,11.2396,11.2726,11.3277,11.3424,11.3497,11.3424,11.324,11.2543,11.2139,11.2102,11.1919,11.1625,11.1845,11.2102,11.2506,11.28,11.3277,11.357,11.0671,11.1882,11.2506,11.2726,11.2726,11.2726,11.2726,11.2653,11.1882,11.1074,11.0304,10.9459,10.9459,11.001,11.023,11.1221,11.2653,11.2726,11.2873,11.313,11.2873,11.2212,11.1221,11.0891,11.0047,10.9202,11.045,11.2029,11.3387,11.3277,11.2469,11.1368,11.0928,11.0304,10.9643,11.056,11.1368,11.1735,11.291,11.3424,11.3203,11.3167,11.2763,11.1992,11.1735,11.1882,11.2396,11.2689,11.3277,11.4305,11.3864,11.346,11.302,11.1368,10.9863,10.8799,10.8211,10.8175,10.8688,10.8799,10.8799,10.8799,10.8799,10.8835,10.8799,10.8799,10.8799,10.8835,10.8799,10.8248,10.7844,10.7771,10.8028,10.8285,10.8358,10.8468,10.8688,10.8799,10.8799,10.8799,10.8799,10.8799,10.8982,10.9239,10.9423,10.9202,10.9129,10.9423,10.9973,10.9936,11.012,11.1515,11.2212,11.2506,11.2836,11.291,11.3167,11.3203,11.3387,11.3534,11.3644,11.3754,11.3717,11.3791,11.3387,11.313,11.291,11.2836,11.2726,11.291,11.3167,11.3277,11.3534,11.3901,11.4231,11.2212,11.313,11.3497,11.357,11.357,11.357,11.357,11.3534,11.302,11.2176,11.1258,11.0634,11.0524,11.0817,11.1368,11.2653,11.4158,11.3864,11.3717,11.3974,11.3974,11.3277,11.2176,11.1992,11.1111,11.0047,11.1221,11.2689,11.3827,11.3974,11.3277,11.2065,11.1735,11.0928,11.0047,11.1184,11.1992,11.2286,11.357,11.4378,11.4341,11.4341,11.3974,11.324,11.2653,11.2469,11.28,11.302,11.3754,11.4892,11.4635,11.4121,11.3534,11.2322,11.1221,11.045,10.9863,10.9569,10.9569,10.9569,10.9606,10.9569,10.9606,10.9569,10.9569,10.9569,10.9569,10.9569,10.9569,10.9606,10.9569,10.9569,10.9496,10.9276,10.9202,10.9312,10.9533,10.9606,10.9606,10.9679,10.9679,10.9643,10.9643,11.0083,11.0304,11.0377,11.0193,11.0304,11.0891,11.0817,11.0817,11.2139,11.291,11.3424,11.3864,11.4158,11.4121,11.4121,11.4341,11.4268,11.4194,11.4194,11.4231,11.4231,11.4121,11.3864,11.3717,11.3644,11.3717,11.3901,11.4011,11.4121,11.4305,11.4488,11.4818,11.2469,11.2763,11.3277,11.3754,11.3791,11.3827,11.3681,11.3754,11.3717,11.291,11.1772,11.1331,11.1698,11.2249,11.2359,11.3681,11.5149,11.4378,11.4194,11.4782,11.4818,11.4305,11.3424,11.3313,11.2579,11.1221,11.2763,11.3901,11.4635,11.4745,11.4378,11.3607,11.2836,11.2176,11.1295,11.2726,11.3534,11.3791,11.5002,11.581,11.5993,11.581,11.5369,11.4745,11.4561,11.4194,11.3644,11.4231,11.4892,11.5773,11.581,11.5185,11.3901,11.291,11.2065,11.1515,11.1221,11.1111,11.1148,11.1074,11.0964,11.0964,11.1074,11.0964,11.1038,11.1074,11.1148,11.1221,11.1221,11.1221,11.1221,11.1221,11.0891,11.0157,11.001,11.0304,11.0928,11.1184,11.1184,11.1111,11.1038,11.1148,11.1148,11.1038,11.1074,11.1038,11.0707,11.0634,11.1405,11.1478,11.1662,11.2543,11.3534,11.4305,11.4855,11.5332,11.5185,11.5075,11.5406,11.5516,11.5369,11.5332,11.5259,11.5222,11.4965,11.4745,11.4451,11.4378,11.4488,11.4635,11.4782,11.4929,11.5112,11.5296,11.5516,11.4378,11.4892,11.5112,11.5222,11.5259,11.5222,11.5259,11.5259,11.5222,11.4635,11.3717,11.3093,11.2983,11.3167,11.324,11.3937,11.5112,11.5149,11.5369,11.5589,11.5626,11.4855,11.3791,11.357,11.302,11.2322,11.3093,11.4011,11.4782,11.5369,11.5479,11.5112,11.4415,11.3974,11.357,11.4194,11.4415,11.4525,11.5442,11.5993,11.5993,11.5993,11.5589,11.4929,11.4818,11.4672,11.4451,11.4158,11.4635,11.592,11.5479,11.5185,11.4965,11.3937,11.3387,11.346,11.2065,11.1478,11.1882,11.1552,11.1295,11.1221,11.1221,11.1515,11.1919,11.2029,11.2249,11.2689,11.2836,11.2836,11.2836,11.2836,11.2249,11.0964,11.0854,11.1148,11.1845,11.2029,11.2029,11.1955,11.1552,11.1258,11.1221,11.1258,11.1552,11.1955,11.1772,11.1919,11.2543,11.2726,11.3167,11.3974,11.4672,11.5039,11.5442,11.5663,11.5589,11.5516,11.5773,11.5993,11.5993,11.5993,11.5993,11.592,11.5663,11.5442,11.5185,11.5112,11.5185,11.5332,11.5479,11.5699,11.592,11.5993,11.5993,11.5553,11.5993,11.5993,11.5993,11.5993,11.5993,11.5993,11.5993,11.5993,11.5516,11.4782,11.4268,11.4048,11.4048,11.4048,11.4672,11.5663,11.625,11.6434,11.6397,11.6066,11.5259,11.4084,11.3681,11.335,11.3167,11.3937,11.4745,11.5296,11.6287,11.658,11.5993,11.5479,11.4855,11.4525,11.4965,11.5149,11.5039,11.5883,11.6323,11.6066,11.5993,11.5883,11.5736,11.5699,11.5846,11.603,11.5332,11.5259,11.581,11.5516,11.5516,11.5846,11.5039,11.4598,11.4415,11.3534,11.2689,11.28,11.2432,11.2102,11.2065,11.2102,11.2286,11.2763,11.2836,11.313,11.346,11.3534,11.357,11.357,11.357,11.3093,11.2249,11.2139,11.2322,11.2763,11.2836,11.2836,11.2726,11.2432,11.2139,11.2102,11.2102,11.2286,11.2763,11.2836,11.291,11.3534,11.3791,11.4341,11.4782,11.5112,11.5479,11.5846,11.5993,11.5993,11.592,11.592,11.5993,11.5993,11.5993,11.5993,11.5993,11.5846,11.581,11.5589,11.5699,11.5773,11.5993,11.5993,11.5993,11.5993,11.5993,11.5993,11.5993,11.5993,11.5993,11.5993,11.603,11.6103,11.614,11.6103,11.625,11.5883,11.5259,11.5112,11.5075,11.5075,11.5149,11.5846,11.7058,11.7204,11.7278,11.7094,11.6617,11.581,11.4892,11.4158,11.3681,11.3717,11.4965,11.5773,11.592,11.7241,11.7645,11.658,11.6213,11.5516,11.4965,11.5553,11.581,11.5626,11.6617,11.6911,11.6323,11.625,11.6544,11.7168,11.7204,11.7461,11.7828,11.7351,11.6764,11.6213,11.6103,11.6103,11.6103,11.603,11.5553,11.5002,11.4818,11.4231,11.3827,11.3424,11.335,11.3313,11.3313,11.3607,11.3607,11.3681,11.3791,11.3974,11.3937,11.3864,11.3901,11.3901,11.3827,11.3754,11.3607,11.3607,11.3644,11.3644,11.3644,11.3644,11.3607,11.3534,11.335,11.335,11.346,11.3644,11.3681,11.3754,11.4084,11.4525,11.4782,11.5149,11.5516,11.5699,11.5993,11.5993,11.5993,11.5993,11.603,11.603,11.603,11.603,11.5993,11.5993,11.6213,11.614,11.6066,11.614,11.6066,11.603,11.603,11.5993,11.603,11.6103,11.6323,11.5993,11.5993,11.5993,11.5993,11.6103,11.6617,11.6874,11.6984,11.7498,11.7535,11.7314,11.6837,11.6837,11.7351,11.6801,11.7168,11.7902,11.8085,11.8085,11.8049,11.7902,11.6947,11.5773,11.4855,11.4194,11.3937,11.4818,11.5406,11.603,11.7204,11.7938,11.8599,11.7425,11.7351,11.7865,11.7204,11.7168,11.7425,11.7755,11.8012,11.7755,11.7682,11.7865,11.8049,11.8085,11.8195,11.8416,11.8195,11.7718,11.6984,11.6911,11.6874,11.6837,11.6397,11.5993,11.5699,11.5149,11.4782,11.4451,11.3974,11.3644,11.357,11.3754,11.3864,11.4415,11.4488,11.4782,11.5149,11.5369,11.5296,11.5332,11.5296,11.5296,11.5296,11.4818,11.4488,11.4488,11.4488,11.4488,11.4415,11.4011,11.3791,11.3717,11.3754,11.3937,11.4341,11.4525,11.4635,11.4965,11.5222,11.5479,11.5626,11.5883,11.592,11.5993,11.5993,11.5993,11.5993,11.603,11.6103,11.6103,11.6103,11.603,11.5993,11.6764,11.6911,11.6617,11.647,11.6323,11.6287,11.614,11.6213,11.6287,11.6397,11.6801,11.6177,11.6507,11.6507,11.669,11.7021,11.7535,11.7718,11.7792,11.8195,11.8416,11.8306,11.7938,11.7975,11.8306,11.7902,11.8159,11.8856,11.8893,11.8893,11.8893,11.8856,11.8159,11.7094,11.6177,11.5553,11.5222,11.5553,11.625,11.7058,11.7828,11.8709,11.9223,11.8673,11.8599,11.8746,11.8673,11.8232,11.8452,11.8673,11.8783,11.8452,11.8416,11.8636,11.8783,11.893,11.904,11.937,11.948,11.893,11.8012,11.7718,11.7718,11.7682,11.7314,11.6874,11.6544,11.603,11.5699,11.5296,11.4855,11.4635,11.4598,11.4598,11.4818,11.5185,11.5296,11.5589,11.5846,11.5993,11.5993,11.5993,11.5993,11.5993,11.5846,11.5589,11.5296,11.5296,11.5296,11.5296,11.5185,11.4892,11.4598,11.4598,11.4561,11.4818,11.5149,11.5296,11.5516,11.5773,11.5956,11.5993,11.5993,11.603,11.603,11.625,11.636,11.658,11.6544,11.6764,11.669,11.6654,11.6617,11.6727,11.6911,11.7388,11.7608,11.7314,11.7131,11.7131,11.7021,11.669,11.6544,11.6727,11.6984,11.7388,11.6617,11.7351,11.7351,11.7755,11.8306,11.8489,11.8526,11.8526,11.8746,11.8819,11.8783,11.8709,11.8819,11.8673,11.8893,11.9076,11.9737,11.9737,11.9737,11.9737,11.97,11.9297,11.8673,11.7828,11.7241,11.6911,11.7131,11.7571,11.8085,11.893,11.948,11.9664,11.9627,11.926,11.9187,11.9297,11.9187,11.904,11.948,11.948,11.9076,11.9003,11.926,11.9664,11.9737,12.0067,12.0545,12.0691,12.0141,11.8746,11.8599,11.8526,11.8489,11.8489,11.8049,11.7425,11.7094,11.6727,11.6213,11.592,11.5846,11.5773,11.581,11.5993,11.5883,11.5883,11.592,11.5993,11.5993,11.5993,11.5993,11.5993,11.5993,11.5993,11.5956,11.5993,11.5993,11.5993,11.5993,11.5993,11.5956,11.5993,11.5993,11.5993,11.5956,11.5589,11.5736,11.581,11.592,11.5956,11.5993,11.5993,11.603,11.6066,11.6397,11.6727,11.7058,11.7278,11.7682,11.7792,11.7682,11.7682,11.7792,11.8012,11.8232,11.8269,11.8122,11.8012,11.8049,11.7718,11.7388,11.7314,11.7388,11.7755,11.8159,11.7425,11.8159,11.8159,11.8232,11.8489,11.9076,11.9333,11.937,12.0067,12.0214,12.0324,12.0324,12.0288,12.0288,12.0214,12.0471,12.0508,12.0545,12.0618,12.0618,12.0618,12.0545,12.0141,11.9407,11.8416,11.7645,11.7241,11.7682,11.8342,11.8783,11.937,12.0398,11.9994,11.9847,12.0214,11.9811,11.9921,12.0251,12.0545,12.0471,12.0288,12.0214,12.0324,12.0545,12.0545,12.0655,12.0838,12.0912,12.0728,12.0288,11.97,11.9333,11.926,11.8819,11.8452,11.8122,11.7608,11.7204,11.6911,11.6434,11.603,11.6103,11.603,11.5993,11.5993,11.5993,11.5993,11.5993,11.5993,11.5993,11.5993,11.5993,11.5993,11.5993,11.5993,11.5993,11.5993,11.5993,11.5993,11.5993,11.5993,11.5993,11.5993,11.5993,11.5993,11.5993,11.5993,11.5993,11.5993,11.5993,11.6103,11.6177,11.625,11.6434,11.7021,11.7498,11.7975,11.8342,11.8709,11.8893,11.8819,11.8673,11.8746,11.8856,11.893,11.893,11.8966,11.904,11.9113,11.8599,11.8159,11.8159,11.8232,11.8599,11.893,11.7902,11.893,11.8966,11.9187,11.959,11.9994,12.0214,12.0288,12.0655,12.0912,12.0912,12.0912,12.0912,12.0912,12.0912,12.0875,12.0912,12.0912,12.0912,12.0875,12.0875,12.0912,12.0875,12.0398,11.9517,11.8416,11.7938,11.8232,11.8746,11.904,11.97,12.0765,12.0398,12.0435,12.0802,12.0398,12.0471,12.0728,12.0912,12.0912,12.0912,12.0912,12.0912,12.0912,12.0912,12.0912,12.0912,12.0912,12.0912,12.0765,12.0435,12.0214,12.0178,11.9774,11.9407,11.893,11.8636,11.8085,11.7718,11.7058,11.658,11.6544,11.625,11.603,11.5993,11.5993,11.5993,11.5993,11.5993,11.5993,11.5993,11.5993,11.5993,11.5993,11.603,11.5993,11.5993,11.5993,11.5993,11.5993,11.5993,11.5993,11.5993,11.5993,11.5993,11.5993,11.5993,11.5993,11.5993,11.603,11.636,11.647,11.658,11.6911,11.7645,11.8269,11.8966,11.9407,11.9847,11.9994,11.9994,11.9847,11.97,11.9737,11.9811,11.9957,12.0031,12.0104,11.9884,11.9333,11.8966,11.8966,11.9003,11.9187,11.9627,11.8452,11.9774,11.9774,12.0214,12.0838,12.0875,12.0875,12.0875,12.0912,12.0912,12.0971,12.1029,12.1274,12.1218,12.1181,12.1124,12.0912,12.0912,12.0912,12.0912,12.0912,12.0912,12.0875,12.0728,12.0435,11.9737,11.8966,11.904,11.937,11.9664,11.9957,12.0765,12.0912,12.0838,12.0875,12.0912,12.0838,12.0912,12.0912,12.0912,12.0912,12.0912,12.0912,12.0912,12.0912,12.0912,12.0912,12.0912,12.0912,12.0912,12.0912,12.0912,12.0912,12.0875,12.0655,11.9811,11.9554,11.9113,11.8563,11.7865,11.7351,11.7241,11.6654,11.614,11.6066,11.603,11.614,11.6287,11.6434,11.658,11.636,11.658,11.6544,11.647,11.6397,11.636,11.636,11.6323,11.6434,11.5993,11.5993,11.5993,11.5993,11.5993,11.5993,11.5993,11.5993,11.603,11.603,11.625,11.6617,11.6984,11.7131,11.7682,11.8416,11.915,11.9811,12.0067,12.0618,12.0655,12.0728,12.0545,12.0324,12.0581,12.0691,12.0691,12.0655,12.0581,12.0288,11.9884,11.9774,11.9811,11.9811,11.9811,12.0178,11.9774,12.0691,12.0691,12.0765,12.0912,12.0912,12.0912,12.0912,12.0912,12.0912,12.0971,12.1674,12.1953,12.204,12.2089,12.1674,12.1181,12.0971,12.0912,12.0912,12.0912,12.0912,12.0912,12.0912,12.0765,12.0508,11.9847,11.9554,11.9627,11.9627,12.0178,12.0765,12.0912,12.0912,12.0912,12.0912,12.0912,12.0912,12.0912,12.0912,12.0912,12.0912,12.0912,12.0912,12.0912,12.0912,12.0912,12.0912,12.0912,12.0912,12.0912,12.0912,12.0912,12.0912,12.0802,12.0508,12.0031,11.9627,11.9333,11.8673,11.7902,11.7388,11.7021,11.6654,11.625,11.6103,11.6434,11.7021,11.7535,11.7902,11.7975,11.7755,11.7902,11.7938,11.7828,11.7828,11.7828,11.7718,11.7314,11.6544,11.625,11.6177,11.636,11.6323,11.614,11.6103,11.6066,11.6177,11.6287,11.6617,11.7058,11.7425,11.7792,11.8489,11.926,11.9994,12.0618,12.0545,12.0802,12.0802,12.0875,12.0875,12.0912,12.0912,12.0912,12.0838,12.0875,12.0912,12.0802,12.0398,12.0508,12.0618,12.0471,12.0324,12.0471,12.0104,12.0875,12.0912,12.0912,12.0912,12.0912,12.0912,12.0912,12.0912,12.0912,12.1181,12.1815,12.2306,12.2474,12.2923,12.2556,12.1763,12.1029,12.0912,12.0912,12.0912,12.0912,12.1007,12.0971,12.0912,12.0802,12.0435,12.0251,12.0251,12.0288,12.0508,12.0765,12.0912,12.0912,12.0912,12.0912,12.0912,12.0912,12.0912,12.0912,12.0912,12.0912,12.0912,12.0912,12.0912,12.0912,12.0912,12.0912,12.0912,12.0912,12.0912,12.0912,12.0912,12.0912,12.0912,12.0838,12.0471,12.0251,12.0104,11.9517,11.8856,11.8452,11.7792,11.7351,11.7094,11.7021,11.7058,11.7682,11.8049,11.8416,11.8342,11.8452,11.8416,11.8416,11.8452,11.8489,11.8452,11.8452,11.7975,11.7278,11.7021,11.7021,11.7204,11.6984,11.647,11.625,11.6213,11.636,11.6617,11.7094,11.7645,11.8452,11.8893,11.937,11.9957,12.0398,12.0912,12.0912,12.0912,12.0912,12.0912,12.0912,12.0912,12.0912,12.0912,12.0912,12.0912,12.0912,12.0912,12.0912,12.0838,12.0802,12.0838,12.0912,12.0912,12.0251,12.0912,12.1124,12.1181,12.1181,12.1181,12.1181,12.1181,12.1181,12.1237,12.133,12.239,12.2965,12.3122,12.3465,12.3427,12.2306,12.1477,12.133,12.1274,12.133,12.1274,12.1477,12.1274,12.1274,12.1293,12.0897,12.0912,12.0802,12.0802,12.0875,12.0912,12.0912,12.0912,12.0912,12.0912,12.0912,12.0912,12.0912,12.0912,12.0912,12.0912,12.0912,12.0912,12.0912,12.0912,12.0912,12.0912,12.0912,12.0912,12.0912,12.0912,12.0912,12.0912,12.0912,12.0912,12.0912,12.0912,12.0691,12.0324,11.9737,11.9297,11.8379,11.8159,11.8085,11.7975,11.8012,11.8489,11.893,11.9076,11.9187,11.8966,11.9003,11.904,11.904,11.8966,11.9113,11.9187,11.926,11.8636,11.8085,11.7828,11.7975,11.7792,11.7278,11.7241,11.7204,11.7204,11.7461,11.7828,11.8489,11.9517,12.0141,12.0435,12.0691,12.0618,12.0912,12.0912,12.0912,12.0912,12.0912,12.0912,12.0912,12.0912,12.0912,12.0912,12.0912,12.0912,12.0912,12.0912,12.0912,12.0912,12.0912,12.0912,12.0912,12.0802,12.0971,12.1852,12.2174,12.2174,12.2174,12.2174,12.2174,12.2174,12.2174,12.2259,12.3902,12.4688,12.4816,12.4816,12.3973,12.2806,12.2089,12.204,12.2126,12.204,12.2428,12.3081,12.2474,12.2089,12.1865,12.133,12.0971,12.0912,12.0912,12.0912,12.0912,12.0912,12.0912,12.0912,12.0912,12.0912,12.0912,12.0912,12.0912,12.0912,12.0912,12.0912,12.0912,12.0912,12.0912,12.0912,12.0912,12.0912,12.0912,12.0912,12.0912,12.0912,12.0912,12.0912,12.0912,12.0912,12.0912,12.0875,12.0691,12.0324,11.9884,11.926,11.8966,11.8783,11.904,11.926,11.9407,12.0031,12.0361,12.0288,12.0471,12.0545,12.0435,12.0251,12.0324,12.0398,11.9921,11.9994,11.9921,11.9333,11.8856,11.8673,11.8416,11.8195,11.8195,11.8195,11.8159,11.8342,11.8746,11.915,12.0141,12.0545,12.0802,12.0912,12.0912,12.0912,12.0912,12.0912,12.0912,12.0912,12.0912,12.0912,12.0912,12.0912,12.0912,12.0912,12.0912,12.0912,12.0912,12.0912,12.0912,12.0912,12.0912,12.0912,12.2594,12.2511,12.239,12.2601,12.3159,12.3159,12.3122,12.3122,12.3122,12.3122,12.3427,12.4557,12.5478,12.5782,12.5478,12.4752,12.3831,12.2886,12.2682,12.2923,12.2763,12.2923,12.3427,12.3352,12.3003,12.239,12.1865,12.1422,12.1124,12.0912,12.0912,12.0912,12.0912,12.0912,12.0912,12.0912,12.0912,12.0912,12.0912,12.0912,12.0912,12.0912,12.0912,12.0912,12.0912,12.0912,12.0912,12.0912,12.0912,12.0912,12.0912,12.0912,12.0912,12.0912,12.0912,12.0912,12.0912,12.0912,12.0912,12.0912,12.0655,12.0324,11.9921,11.9407,11.9297,11.9774,12.0288,12.0324,12.0655,12.0875,12.0912,12.0912,12.0912,12.0912,12.0912,12.0912,12.0912,12.0912,12.0691,12.0691,12.0581,11.9994,11.937,11.8966,11.8893,11.9003,11.8893,11.8746,11.915,11.9774,12.0178,12.0618,12.0838,12.0875,12.0912,12.0912,12.0912,12.0912,12.0912,12.0912,12.0912,12.0912,12.0912,12.0912,12.0912,12.0912,12.0912,12.0912,12.0912,12.0912,12.0912,12.0912,12.0912,12.0912,12.0912,12.4289,12.4462,12.3503,12.3465,12.4151,12.4151,12.4151,12.4151,12.4151,12.4151,12.4424,12.5141,12.6077,12.6402,12.5931,12.5419,12.5042,12.3686,12.3613,12.3613,12.3613,12.3797,12.4357,12.4395,12.3759,12.2965,12.239,12.1953,12.1477,12.1029,12.0912,12.0912,12.0912,12.0912,12.0912,12.0912,12.0912,12.0912,12.0912,12.0912,12.0912,12.0912,12.0912,12.0912,12.0912,12.0912,12.0912,12.0912,12.0912,12.0912,12.0912,12.0912,12.0912,12.0912,12.0912,12.0912,12.0912,12.0912,12.0912,12.0912,12.0912,12.0691,12.0471,12.0031,12.0031,12.0581,12.0912,12.0802,12.0838,12.0912,12.0912,12.0912,12.0912,12.0912,12.0912,12.0912,12.0912,12.0912,12.0912,12.0838,12.0765,12.0838,12.0214,11.9627,11.9517,11.9737,11.9627,11.937,11.9811,12.0471,12.0655,12.0875,12.0912,12.0912,12.0912,12.0912,12.0912,12.0912,12.0912,12.0912,12.0912,12.0912,12.0912,12.0912,12.0912,12.0912,12.0912,12.0912,12.0912,12.0912,12.0912,12.0912,12.0912,12.0912,12.0912,12.5669,12.6402,12.5419,12.498,12.5141,12.5141,12.5103,12.5141,12.5103,12.5103,12.5202,12.6077,12.6541,12.6629,12.6453,12.6024,12.5262,12.5042,12.498,12.498,12.5103,12.53,12.5669,12.5419,12.498,12.4453,12.3539,12.2682,12.204,12.1385,12.1124,12.0912,12.0912,12.0912,12.0912,12.0912,12.0912,12.0912,12.0912,12.0912,12.0912,12.0912,12.0912,12.0912,12.0912,12.0912,12.0912,12.0912,12.0912,12.0912,12.0912,12.0912,12.0912,12.0912,12.0912,12.0912,12.0912,12.0912,12.0912,12.0912,12.0912,12.0875,12.0765,12.0655,12.0618,12.0765,12.0912,12.0912,12.0912,12.0912,12.0912,12.0912,12.0912,12.0912,12.0912,12.0912,12.0912,12.0912,12.0912,12.0912,12.0912,12.0912,12.0912,12.0251,12.0104,12.0324,12.0398,12.0104,12.0251,12.0765,12.0802,12.0912,12.0912,12.0912,12.0912,12.0912,12.0912,12.0912,12.0912,12.0912,12.0912,12.0912,12.0912,12.0912,12.0912,12.0912,12.0912,12.0912,12.0912,12.0912,12.0912,12.0912,12.0912,12.0912,12.0912,12.6312,12.6678,12.626,12.6169,12.6077,12.6077,12.6077,12.6077,12.6077,12.6077,12.6116,12.6541,12.6717,12.6717,12.6678,12.6541,12.6024,12.5419,12.5631,12.5726,12.5688,12.5876,12.6169,12.626,12.5782,12.5202,12.4319,12.3238,12.2222,12.1902,12.1385,12.1124,12.0971,12.0912,12.0912,12.0912,12.0912,12.0912,12.0912,12.0912,12.0912,12.0912,12.0912,12.0912,12.0912,12.0912,12.0912,12.0912,12.0912,12.0912,12.0912,12.0912,12.0912,12.0912,12.0912,12.0912,12.0912,12.0912,12.0912,12.0912,12.0912,12.0912,12.0912,12.0912,12.0912,12.0912,12.0912,12.0912,12.0912,12.0912,12.0912,12.0912,12.0912,12.0912,12.0912,12.0912,12.0912,12.0912,12.0912,12.0912,12.0912,12.0912,12.0912,12.0838,12.0802,12.0838,12.0875,12.0912,12.0912,12.0912,12.0912,12.0912,12.0912,12.0912,12.0912,12.0912,12.0912,12.0912,12.0912,12.0912,12.0912,12.0912,12.0912,12.0912,12.0912,12.0912,12.0912,12.0912,12.0912,12.0912,12.0912,12.0912,12.0912,12.0912,12.0912,12.6717,12.6717,12.6717,12.6717,12.6717,12.6717,12.6717,12.6717,12.6678,12.6717,12.6717,12.6717,12.6717,12.6717,12.6717,12.6678,12.6453,12.6077,12.6169,12.6169,12.6169,12.6169,12.6491,12.6629,12.6312,12.5688,12.5202,12.4319,12.339,12.2682,12.1953,12.1477,12.1066,12.0912,12.0912,12.0912,12.0912,12.0912,12.0912,12.0912,12.0912,12.0912,12.0912,12.0912,12.0912,12.0912,12.0912,12.0912,12.0912,12.0912,12.0912,12.0912,12.0912,12.0912,12.0912,12.0912,12.0912,12.0912,12.0912,12.0912,12.0912,12.0912,12.0912,12.0912,12.0912,12.0912,12.0912,12.0912,12.0912,12.0912,12.0912,12.0912,12.0912,12.0912,12.0912,12.0912,12.0912,12.0912,12.0912,12.0912,12.0912,12.0912,12.0912,12.0912,12.0912,12.0912,12.0912,12.0912,12.0912,12.0912,12.0912,12.0912,12.0912,12.0912,12.0912,12.0912,12.0912,12.0912,12.0912,12.0912,12.0912,12.0912,12.0912,12.0912,12.0912,12.0912,12.0912,12.0912,12.0912,12.0912,12.0912,12.0912,12.0912,12.0912,12.0912,12.6717,12.6717,12.6717,12.6717,12.6717,12.6717,12.6717,12.6717,12.6717,12.6717,12.6717,12.6717,12.6717,12.6717,12.6717,12.6717,12.6717,12.6629,12.6629,12.6541,12.6541,12.6629,12.6678,12.6629,12.6591,12.6402,12.5876,12.5262,12.4816,12.3539,12.2682,12.2174,12.1763,12.1124,12.1007,12.0912,12.0912,12.0912,12.0912,12.0912,12.0912,12.0912,12.0912,12.0912,12.0912,12.0912,12.0912,12.0912,12.0912,12.0912,12.0912,12.0912,12.0912,12.0912,12.0912,12.0912,12.0912,12.0912,12.0912,12.0912,12.0912,12.0912,12.0912,12.0912,12.0912,12.0912,12.0912,12.0912,12.0912,12.0912,12.0912,12.0912,12.0912,12.0912,12.0912,12.0912,12.0912,12.0912,12.0912,12.0912,12.0912,12.0912,12.0912,12.0912,12.0912,12.0912,12.0912,12.0912,12.0912,12.0912,12.0912,12.0912,12.0912,12.0912,12.0912,12.0912,12.0912,12.0912,12.0912,12.0912,12.0912,12.0912,12.0912,12.0912,12.0912,12.0912,12.0912,12.0912,12.0912,12.0912,12.0912,12.0912,12.0912,12.0912,12.0912,12.6717,12.6717,12.6717,12.6717,12.6717,12.6717,12.6717,12.6717,12.6717,12.6717,12.6717,12.6717,12.6717,12.6717,12.6717,12.6717,12.6717,12.6717,12.6717,12.6717,12.6717,12.6717,12.6717,12.6717,12.6717,12.6629,12.626,12.5726,12.5103,12.4251,12.3759,12.3352,12.272,12.2163,12.1274,12.0912,12.0912,12.0912,12.0912,12.0912,12.0912,12.0912,12.0912,12.0912,12.0912,12.0912,12.0912,12.0912,12.0912,12.0912,12.0912,12.0912,12.0912,12.0912,12.0912,12.0912,12.0912,12.0912,12.0912,12.0912,12.0912,12.0912,12.0912,12.0912,12.0912,12.0912,12.0912,12.0912,12.0912,12.0912,12.0912,12.0912,12.0912,12.0912,12.0912,12.0912,12.0912,12.0912,12.0912,12.0912,12.0912,12.0912,12.0912,12.0912,12.0912,12.0912,12.0912,12.0912,12.0912,12.0912,12.0912,12.0912,12.0912,12.0912,12.0912,12.0912,12.0912,12.0912,12.0912,12.0912,12.0912,12.0912,12.0912,12.0912,12.0912,12.0912,12.0912,12.0912,12.0912,12.0912,12.0912,12.0912,12.0912,12.0912,12.0912,12.6717,12.6717,12.6717,12.6717,12.6717,12.6717,12.6717,12.6717,12.6717,12.6717,12.6717,12.6717,12.6717,12.6717,12.6717,12.6717,12.6717,12.6717,12.6717,12.6717,12.6717,12.6717,12.6717,12.6717,12.6717,12.6717,12.6629,12.6312,12.5782,12.5381,12.4623,12.394,12.3834,12.3081,12.2211,12.1763,12.1053,12.0829,12.0545,12.0912,12.0912,12.0912,12.0912,12.0912,12.0912,12.0912,12.0912,12.0912,12.0912,12.0912,12.0912,12.0912,12.0912,12.0912,12.0912,12.0912,12.0912,12.0912,12.0912,12.0912,12.0912,12.0912,12.0912,12.0912,12.0912,12.0912,12.0912,12.0912,12.0912,12.0912,12.0912,12.0912,12.0912,12.0912,12.0912,12.0912,12.0912,12.0912,12.0912,12.0912,12.0912,12.0912,12.0912,12.0912,12.0912,12.0912,12.0912,12.0912,12.0912,12.0912,12.0912,12.0912,12.0912,12.0912,12.0912,12.0912,12.0912,12.0912,12.0912,12.0912,12.0912,12.0912,12.0912,12.0912,12.0912,12.0912,12.0912,12.0912,12.0912,12.0912,12.0912,12.0912,12.0912,12.0912,12.0912,12.6717,12.6717,12.6717,12.6717,12.6717,12.6717,12.6717,12.6717,12.6717,12.6717,12.6717,12.6717,12.6717,12.6717,12.6717,12.664,12.6524,12.6524,12.6524,12.6524,12.6409,12.6563,12.6678,12.6717,12.6717,12.6717,12.6678,12.6629,12.6541,12.5931,12.5018,12.4357,12.4395,12.3936,12.3426,12.2614,12.1582,12.0997,12.042,12.0787,12.0838,12.0912,12.0912,12.0912,12.0912,12.0912,12.0912,12.0912,12.0912,12.0912,12.0912,12.0912,12.0912,12.0912,12.0912,12.0912,12.0912,12.0912,12.0912,12.0912,12.0912,12.0912,12.0912,12.0912,12.0912,12.0912,12.0912,12.0912,12.0912,12.0912,12.0912,12.0912,12.0912,12.0912,12.0912,12.0912,12.0912,12.0912,12.0912,12.0912,12.0912,12.0912,12.0912,12.0912,12.0912,12.0912,12.0912,12.0912,12.0912,12.0912,12.0912,12.0912,12.0912,12.0912,12.0912,12.0912,12.0912,12.0912,12.0912,12.0912,12.0912,12.0912,12.0912,12.0912,12.0912,12.0912,12.0912,12.0912,12.0912,12.0912,12.0912,12.0912,12.0912,12.0912,12.0912,12.6717,12.6717,12.6717,12.6717,12.6717,12.6717,12.6717,12.6717,12.6717,12.6717,12.6717,12.6717,12.6717,12.6717,12.6717,12.6332,12.5986,12.5794,12.5755,12.5832,12.6024,12.6255,12.6486,12.6717,12.6717,12.6717,12.6717,12.6717,12.6678,12.6222,12.6169,12.5969,12.5612,12.5033,12.4281,12.3567,12.2586,12.1544,12.074,12.0567,12.0802,12.0912,12.0912,12.0912,12.0912,12.0912,12.0912,12.0912,12.0912,12.0912,12.0912,12.0912,12.0912,12.0912,12.0912,12.0912,12.0912,12.0912,12.0912,12.0912,12.0912,12.0912,12.0912,12.0912,12.0912,12.0912,12.0912,12.0912,12.0912,12.0912,12.0912,12.0912,12.0912,12.0912,12.0912,12.0912,12.0912,12.0912,12.0912,12.0912,12.0912,12.0912,12.0912,12.0912,12.0912,12.0912,12.0912,12.0912,12.0912,12.0912,12.0912,12.0912,12.0912,12.0912,12.0912,12.0912,12.0912,12.0912,12.0912,12.0912,12.0912,12.0912,12.0912,12.0912,12.0912,12.0912,12.0912,12.0912,12.0912,12.0912,12.0912,12.0912,12.0912,12.0912,12.0912,12.6717,12.6717,12.6717,12.6717,12.6717,12.6717,12.6717,12.6717,12.6717,12.6717,12.6717,12.6717,12.6717,12.6717,12.6678,12.6255,12.5524,12.5909,12.5909,12.5563,12.5678,12.6217,12.6601,12.6717,12.6717,12.6717,12.6717,12.6717,12.6717,12.6717,12.6629,12.6629,12.6717,12.6094,12.5229,12.4359,12.3529,12.2427,12.143,12.0756,12.0691,12.0912,12.0912,12.0912,12.0912,12.0912,12.0912,12.0912,12.0912,12.0912,12.0912,12.0912,12.0912,12.0912,12.0912,12.0912,12.0912,12.0912,12.0912,12.0912,12.0912,12.0912,12.0912,12.0912,12.0912,12.0912,12.0912,12.0912,12.0912,12.0912,12.0912,12.0912,12.0912,12.0912,12.0912,12.0912,12.0912,12.0912,12.0912,12.0912,12.0912,12.0912,12.0912,12.0912,12.0912,12.0912,12.0912,12.0912,12.0912,12.0912,12.0912,12.0912,12.0912,12.0912,12.0912,12.0912,12.0912,12.0912,12.0912,12.0912,12.0912,12.0912,12.0912,12.0912,12.0912,12.0912,12.0912,12.0912,12.0912,12.0912,12.0912,12.0912,12.0912,12.0912,12.0912,12.6717,12.6717,12.6717,12.6717,12.6717,12.6717,12.6717,12.6717,12.6717,12.6717,12.6717,12.6717,12.6717,12.6717,12.6678,12.6178,12.5755,12.5909,12.587,12.5447,12.587,12.6371,12.6601,12.6717,12.6717,12.6717,12.6717,12.6717,12.6717,12.6717,12.6717,12.6717,12.6717,12.6426,12.612,12.4905,12.4026,12.3306,12.2036,12.107,12.0897,12.0912,12.0912,12.0912,12.0912,12.0912,12.0912,12.0912,12.0912,12.0912,12.0912,12.0912,12.0912,12.0912,12.0912,12.0912,12.0912,12.0912,12.0912,12.0912,12.0912,12.0912,12.0912,12.0912,12.0912,12.0912,12.0912,12.0912,12.0912,12.0912,12.0912,12.0912,12.0912,12.0912,12.0912,12.0912,12.0912,12.0912,12.0912,12.0912,12.0912,12.0912,12.0912,12.0912,12.0912,12.0912,12.0912,12.0912,12.0912,12.0912,12.0912,12.0912,12.0912,12.0912,12.0912,12.0912,12.0912,12.0912,12.0912,12.0912,12.0912,12.0912,12.0912,12.0912,12.0912,12.0912,12.0912,12.0912,12.0912,12.0912,12.0912,12.0912,12.0912,12.0912,12.0912,12.6717,12.6717,12.6717,12.6717,12.6717,12.6717,12.6717,12.6717,12.6717,12.6717,12.6717,12.6717,12.6717,12.6717,12.6678,12.6217,12.5678,12.5794,12.5601,12.5486,12.5794,12.6332,12.6601,12.6717,12.6717,12.6717,12.6717,12.6717,12.6717,12.6717,12.6717,12.6717,12.6717,12.6717,12.6629,12.5361,12.4684,12.3874,12.2936,12.174,12.1127,12.0934,12.0912,12.0912,12.0912,12.0912,12.0912,12.0912,12.0912,12.0912,12.0912,12.0912,12.0912,12.0912,12.0912,12.0912,12.0912,12.0912,12.0912,12.0912,12.0912,12.0912,12.0912,12.0912,12.0912,12.0912,12.0912,12.0912,12.0912,12.0912,12.0912,12.0912,12.0912,12.0912,12.0912,12.0912,12.0912,12.0912,12.0912,12.0912,12.0912,12.0912,12.0912,12.0912,12.0912,12.0912,12.0912,12.0912,12.0912,12.0912,12.0912,12.0912,12.0912,12.0912,12.0912,12.0912,12.0912,12.0912,12.0912,12.0912,12.0912,12.0912,12.0912,12.0912,12.0912,12.0912,12.0912,12.0912,12.0912,12.0912,12.0912,12.0912,12.0912,12.0912,12.0912,12.6717,12.6717,12.6717,12.6717,12.6717,12.6717,12.6717,12.6717,12.6717,12.6717,12.6717,12.6717,12.6717,12.6717,12.6678,12.6255,12.564,12.587,12.5717,12.5601,12.5832,12.6294,12.6563,12.6717,12.6717,12.6717,12.6717,12.6717,12.6717,12.6717,12.6717,12.6755,12.6755,12.6794,12.6668,12.6039,12.523,12.396,12.3595,12.2819,12.1742,12.1309,12.0934,12.0912,12.0912,12.0971,12.0912,12.0912,12.0912,12.0912,12.0912,12.0912,12.0912,12.0912,12.0912,12.0912,12.0912,12.0912,12.0912,12.0912,12.0912,12.0912,12.0912,12.0912,12.0912,12.0912,12.0912,12.0912,12.0912,12.0912,12.0912,12.0912,12.0912,12.0912,12.0912,12.0912,12.0912,12.0912,12.0912,12.0912,12.0912,12.0912,12.0912,12.0912,12.0912,12.0912,12.0912,12.0912,12.0912,12.0912,12.0912,12.0912,12.0912,12.0912,12.0912,12.0912,12.0912,12.0912,12.0912,12.0912,12.0912,12.0912,12.0912,12.0912,12.0912,12.0912,12.0912,12.0912,12.0912,12.0912,12.0912,12.0912,12.0912,12.0912,12.0912,12.6717,12.6717,12.6717,12.6717,12.6717,12.6717,12.6717,12.6717,12.6717,12.6717,12.6717,12.6717,12.6717,12.6717,12.6678,12.614,12.5947,12.6255,12.6063,12.6024,12.6332,12.6524,12.6601,12.6717,12.6717,12.6717,12.6717,12.6717,12.6717,12.6871,12.7025,12.6909,12.6948,12.7025,12.6986,12.686,12.6337,12.521,12.4637,12.4205,12.3013,12.1813,12.1652,12.1422,12.1274,12.1274,12.1274,12.1124,12.1218,12.1066,12.1066,12.0912,12.0912,12.0912,12.0912,12.0912,12.0912,12.0912,12.0912,12.0912,12.0912,12.0912,12.0912,12.0912,12.0912,12.0912,12.0912,12.0912,12.0912,12.0912,12.0912,12.0912,12.0912,12.0912,12.0912,12.0912,12.0912,12.0912,12.0912,12.0912,12.0912,12.0912,12.0912,12.0912,12.0912,12.0912,12.0912,12.0912,12.0912,12.0912,12.0912,12.0912,12.0912,12.0912,12.0912,12.0912,12.0912,12.0912,12.0912,12.0912,12.0912,12.0912,12.0912,12.0912,12.0912,12.0912,12.0912,12.0912,12.0912,12.0912,12.0912,12.0912,12.0912,12.0912,12.0912,12.6717,12.6717,12.6717,12.6717,12.6717,12.6717,12.6717,12.6717,12.6717,12.6717,12.6717,12.6717,12.6717,12.6717,12.6717,12.6486,12.6371,12.664,12.664,12.6563,12.6601,12.6678,12.6717,12.6717,12.6717,12.6717,12.6717,12.6717,12.6832,12.7294,12.764,12.7602,12.8409,12.8602,12.8602,12.8321,12.7733,12.6538,12.5822,12.5408,12.4245,12.3411,12.3352,12.3236,12.3199,12.3199,12.3081,12.239,12.2174,12.1815,12.133,12.0971,12.0912,12.0912,12.0912,12.0912,12.0912,12.0912,12.0912,12.0912,12.0912,12.0912,12.0912,12.0912,12.0912,12.0912,12.0912,12.0912,12.0912,12.0912,12.0912,12.0912,12.0912,12.0912,12.0912,12.0912,12.0912,12.0912,12.0912,12.0912,12.0912,12.0912,12.0912,12.0912,12.0912,12.0912,12.0912,12.0912,12.0912,12.0912,12.0912,12.0912,12.0912,12.0912,12.0912,12.0912,12.0912,12.0912,12.0912,12.0912,12.0912,12.0912,12.0912,12.0912,12.0912,12.0912,12.0912,12.0912,12.0912,12.0912,12.0912,12.0912,12.0912,12.0912,12.0912]},{"header":{"parameterUnit":"m.s-1","parameterCategory":1,"la1":31.0,"la2":29.5877,"lo1":-88.7671,"lo2":-86.6584,"dx":0.0162,"dy":0.0185,"nx":115,"ny":88,"refTime":"2022-12-23T18:00:00:Z","depth":0,"parameterNumber":3,"parameterNumberName":"V-component_of_WINDS"},"data":[0.0,0.0,0.0,0.0,0.0,0.0,0.0,0.0,0.0,0.0,0.0,0.0,0.0,0.0,0.0,0.0,0.0,0.0,0.0,0.0,0.0,0.0,0.0,0.0,0.0,0.0,0.0,0.0,0.0,0.0,0.0,0.0,0.0,0.0,0.0,0.0,0.0,0.0,0.0,0.0,0.0,0.0,0.0,0.0,0.0,0.0,0.0,0.0,0.0,0.0,0.0,0.0,0.0,0.0,0.0,0.0,0.0,0.0,0.0,0.0,0.0,0.0,0.0,0.0,0.0,0.0,0.0,0.0,0.0,0.0,0.0,0.0,0.0,0.0,0.0,0.0,0.0,0.0,0.0,0.0,0.0,0.0,0.0,0.0,0.0,0.0,0.0,0.0,0.0,0.0,0.0,0.0,0.0,0.0,0.0,0.0,0.0,0.0,0.0,0.0,0.0,0.0,0.0,0.0,0.0,0.0,0.0,0.0,0.0,0.0,0.0,0.0,0.0,0.0,0.0,0.0,0.0,0.0,0.0,0.0,0.0,0.0,0.0,0.0,0.0,0.0,0.0,0.0,0.0,0.0,0.0,0.0,0.0,0.0,0.0,0.0,0.0,0.0,0.0,0.0,0.0,0.0,0.0,0.0,0.0,0.0,0.0,0.0,0.0,0.0,0.0,0.0,0.0,0.0,0.0,0.0,0.0,0.0,0.0,0.0,0.0,0.0,0.0,0.0,0.0,0.0,0.0,0.0,0.0,0.0,0.0,0.0,0.0,0.0,0.0,0.0,0.0,0.0,0.0,0.0,0.0,0.0,0.0,0.0,0.0,0.0,0.0,0.0,0.0,0.0,0.0,0.0,0.0,0.0,0.0,0.0,0.0,0.0,0.0,0.0,0.0,0.0,0.0,0.0,0.0,0.0,0.0,0.0,0.0,0.0,0.0,0.0,0.0,0.0,0.0,0.0,0.0,0.0,0.0,0.0,0.0,0.0,0.0,0.0,0.0,0.0,0.0,0.0,0.0,0.0,0.0,0.0,0.0,0.0,0.0,0.0,0.0,0.0,0.0,0.0,0.0,0.0,0.0,0.0,0.0,0.0,0.0,0.0,0.0,0.0,0.0,0.0,0.0,0.0,0.0,0.0,0.0,0.0,0.0,0.0,0.0,0.0,0.0,0.0,0.0,0.0,0.0,0.0,0.0,0.0,0.0,0.0,0.0,0.0,0.0,0.0,0.0,0.0,0.0,0.0,0.0,0.0,0.0,0.0,0.0,0.0,0.0,0.0,0.0,0.0,0.0,0.0,0.0,0.0,0.0,0.0,0.0,0.0,0.0,0.0,0.0,0.0,0.0,0.0,0.0,0.0,0.0,0.0,0.0,0.0,0.0,0.0,0.0,0.0,0.0,0.0,0.0,0.0,0.0,0.0,0.0,0.0,0.0,0.0,0.0,0.0,0.0,0.0,0.0,0.0,0.0,0.0,0.0,0.0,0.0,0.0,0.0,0.0,0.0,0.0,0.0,0.0,0.0,0.0,0.0,0.0,0.0,0.0,0.0,0.0,0.0,0.0,0.0,0.0,0.0,0.0,0.0,0.0,0.0,0.0,0.0,0.0,0.0,0.0,0.0,0.0,0.0,0.0,0.0,0.0,0.0,0.0,0.0,0.0,0.0,0.0,0.0,0.0,0.0,0.0,0.0,0.0,0.0,0.0,0.0,0.0,0.0,0.0,0.0,0.0,0.0,0.0,0.0,0.0,0.0,0.0,0.0,0.0,0.0,0.0,0.0,0.0,0.0,0.0,0.0,0.0,0.0,0.0,0.0,0.0,0.0,0.0,0.0,0.0,0.0,0.0,0.0,0.0,0.0,0.0,0.0,0.0,0.0,0.0,0.0,0.0,0.0,0.0,0.0,0.0,0.0,0.0,0.0,0.0,0.0,0.0,0.0,0.0,0.0,0.0,0.0,0.0,0.0,0.0,0.0,0.0,0.0,0.0,0.0,0.0,0.0,0.0,0.0,0.0,0.0,0.0,0.0,0.0,0.0,0.0,0.0,0.0,0.0,0.0,0.0,0.0,0.0,0.0,0.0,0.0,0.0,0.0,0.0,0.0,0.0,0.0,0.0,0.0,0.0,0.0,0.0,0.0,0.0,0.0,0.0,0.0,0.0,0.0,0.0,0.0,0.0,0.0,0.0,0.0,0.0,0.0,0.0,0.0,0.0,0.0,0.0,0.0,0.0,0.0,0.0,0.0,0.0,0.0,0.0,0.0,0.0,0.0,0.0,0.0,0.0,0.0,0.0,0.0,0.0,0.0,0.0,0.0,0.0,0.0,0.0,0.0,0.0,0.0,0.0,0.0,0.0,0.0,0.0,0.0,0.0,0.0,0.0,0.0,0.0,0.0,0.0,0.0,0.0,0.0,0.0,0.0,0.0,0.0,0.0,0.0,0.0,0.0,0.0,0.0,0.0,0.0,0.0,0.0,0.0,0.0,0.0,0.0,0.0,0.0,0.0,0.0,0.0,0.0,0.0,0.0,0.0,0.0,0.0,0.0,0.0,0.0,0.0,0.0,0.0,0.0,0.0,0.0,0.0,0.0,0.0,0.0,0.0,0.0,0.0,0.0,0.0,0.0,0.0,0.0,0.0,0.0,0.0,0.0,0.0,0.0,0.0,0.0,0.0,0.0,0.0,0.0,0.0,0.0,0.0,0.0,0.0,0.0,0.0,0.0,0.0,0.0,0.0,0.0,0.0,0.0,0.0,0.0,0.0,0.0,0.0,0.0,0.0,0.0,0.0,0.0,0.0,0.0,0.0,0.0,0.0,0.0,0.0,0.0,0.0,0.0,0.0,0.0,0.0,0.0,0.0,0.0,0.0,0.0,0.0,0.0,0.0,0.0,0.0,0.0,0.0,0.0,0.0,0.0,0.0,0.0,0.0,0.0,0.0,0.0,0.0,0.0,0.0,0.0,0.0,0.0,0.0,0.0,0.0,0.0,0.0,0.0,0.0,0.0,0.0,0.0,0.0,0.0,0.0,0.0,0.0,0.0,0.0,0.0,0.0,0.0,0.0,0.0,0.0,0.0,0.0,0.0,0.0,0.0,0.0,0.0,0.0,0.0,0.0,0.0,0.0,0.0,0.0,0.0,0.0,0.0,0.0,0.0,0.0,0.0,0.0,0.0,0.0,0.0,0.0,0.0,0.0,0.0,0.0,0.0,0.0,0.0,0.0,0.0,0.0,0.0,0.0,0.0,0.0,0.0,0.0,0.0,0.0,0.0,0.0,0.0,0.0,0.0,0.0,0.0,0.0,0.0,0.0,0.0,0.0,0.0,0.0,0.0,0.0,0.0,0.0,0.0,0.0,0.0,0.0,0.0,0.0,0.0,0.0,0.0,0.0,0.0,0.0,0.0,0.0,0.0,0.0,0.0,0.0,0.0,0.0,0.0,0.0,0.0,0.0,0.0,0.0,0.0,0.0,0.0,0.0,0.0,0.0,0.0,0.0,0.0,0.0,0.0,0.0,0.0,0.0,0.0,0.0,0.0,0.0,0.0,0.0,0.0,0.0,0.0,0.0,0.0,0.0,0.0,0.0,0.0,0.0,0.0,0.0,0.0,0.0,0.0,0.0,0.0,0.0,0.0,0.0,0.0,0.0,0.0,0.0,0.0,0.0,0.0,0.0,0.0,0.0,0.0,0.0,0.0,0.0,0.0,0.0,0.0,0.0,0.0,0.0,0.0,0.0,0.0,0.0,0.0,0.0,0.0,0.0,0.0,0.0,0.0,0.0,0.0,0.0,0.0,0.0,0.0,0.0,0.0,0.0,0.0,0.0,0.0,0.0,0.0,0.0,0.0,0.0,0.0,0.0,0.0,0.0,0.0,0.0,0.0,0.0,0.0,0.0,0.0,0.0,0.0,0.0,0.0,0.0,0.0,0.0,0.0,0.0,0.0,0.0,0.0,0.0,0.0,0.0,0.0,0.0,0.0,0.0,0.0,0.0,0.0,0.0,0.0,0.0,0.0,0.0,0.0,0.0,0.0,0.0,0.0,0.0,0.0,0.0,0.0,0.0,0.0,0.0,0.0,0.0,0.0,0.0,0.0,0.0,0.0,0.0,0.0,0.0,0.0,0.0,0.0,0.0,0.0,0.0,0.0,0.0,0.0,0.0,0.0,0.0,0.0,0.0,0.0,0.0,0.0,0.0,0.0,0.0,0.0,0.0,0.0,0.0,0.0,0.0,0.0,0.0,0.0,0.0,0.0,0.0,0.0,-2.8789,0.0,0.0,0.0,-2.8594,0.0,0.0,0.0,0.0,0.0,0.0,0.0,0.0,0.0,0.0,0.0,0.0,0.0,0.0,0.0,0.0,0.0,0.0,0.0,0.0,0.0,0.0,0.0,0.0,0.0,0.0,0.0,0.0,0.0,0.0,0.0,0.0,0.0,0.0,0.0,0.0,0.0,0.0,0.0,0.0,0.0,0.0,0.0,0.0,0.0,0.0,0.0,0.0,0.0,0.0,0.0,0.0,0.0,0.0,0.0,0.0,0.0,0.0,0.0,0.0,0.0,0.0,0.0,0.0,0.0,0.0,0.0,0.0,0.0,0.0,0.0,0.0,0.0,0.0,0.0,0.0,0.0,0.0,0.0,0.0,0.0,0.0,0.0,0.0,0.0,0.0,0.0,0.0,0.0,0.0,0.0,0.0,0.0,0.0,0.0,0.0,0.0,0.0,0.0,0.0,0.0,0.0,0.0,0.0,0.0,0.0,0.0,0.0,0.0,0.0,-2.8616,-2.7206,-2.9161,-2.9331,-2.7225,0.0,0.0,0.0,0.0,0.0,0.0,0.0,0.0,0.0,0.0,0.0,0.0,0.0,0.0,0.0,0.0,0.0,0.0,0.0,0.0,0.0,0.0,0.0,0.0,0.0,0.0,0.0,0.0,0.0,0.0,0.0,0.0,0.0,0.0,0.0,0.0,0.0,0.0,0.0,0.0,0.0,0.0,0.0,0.0,0.0,0.0,0.0,0.0,0.0,0.0,0.0,0.0,0.0,0.0,0.0,0.0,0.0,0.0,0.0,0.0,0.0,0.0,0.0,0.0,0.0,0.0,0.0,0.0,0.0,0.0,0.0,0.0,0.0,0.0,0.0,0.0,0.0,0.0,0.0,0.0,0.0,0.0,0.0,0.0,0.0,0.0,0.0,0.0,0.0,0.0,0.0,0.0,0.0,0.0,0.0,0.0,0.0,0.0,0.0,0.0,0.0,0.0,0.0,0.0,0.0,0.0,0.0,0.0,0.0,0.0,0.0,0.0,-2.9219,-2.9602,-2.7216,0.0,0.0,0.0,0.0,0.0,0.0,0.0,0.0,0.0,0.0,0.0,0.0,0.0,0.0,0.0,0.0,0.0,0.0,0.0,0.0,0.0,0.0,0.0,0.0,0.0,0.0,0.0,0.0,0.0,0.0,0.0,0.0,0.0,0.0,0.0,0.0,0.0,0.0,0.0,0.0,0.0,0.0,0.0,0.0,0.0,0.0,0.0,0.0,0.0,0.0,0.0,0.0,0.0,0.0,0.0,0.0,0.0,0.0,0.0,0.0,0.0,0.0,0.0,0.0,0.0,0.0,0.0,0.0,0.0,0.0,0.0,0.0,0.0,0.0,0.0,0.0,0.0,0.0,0.0,0.0,0.0,0.0,0.0,0.0,0.0,0.0,0.0,0.0,0.0,0.0,0.0,0.0,0.0,0.0,0.0,0.0,0.0,0.0,0.0,0.0,0.0,0.0,0.0,0.0,0.0,0.0,0.0,0.0,0.0,0.0,-2.6682,-2.7241,-2.79,0.0,-2.9659,0.0,0.0,0.0,0.0,0.0,0.0,0.0,0.0,0.0,0.0,0.0,0.0,0.0,0.0,0.0,0.0,0.0,0.0,0.0,0.0,0.0,0.0,0.0,0.0,0.0,0.0,0.0,0.0,0.0,0.0,0.0,0.0,0.0,0.0,0.0,0.0,0.0,0.0,0.0,0.0,0.0,0.0,0.0,0.0,0.0,0.0,0.0,0.0,0.0,0.0,0.0,0.0,0.0,0.0,0.0,0.0,0.0,0.0,0.0,0.0,0.0,0.0,0.0,0.0,0.0,0.0,0.0,0.0,0.0,0.0,0.0,0.0,0.0,0.0,0.0,0.0,0.0,0.0,0.0,0.0,0.0,0.0,0.0,0.0,0.0,0.0,0.0,0.0,0.0,0.0,0.0,0.0,0.0,0.0,0.0,0.0,0.0,0.0,0.0,0.0,0.0,0.0,0.0,0.0,0.0,0.0,0.0,0.0,0.0,0.0,-2.6434,-2.6031,-2.5374,-2.6067,0.0,0.0,0.0,0.0,0.0,0.0,0.0,0.0,0.0,0.0,0.0,0.0,0.0,0.0,0.0,0.0,0.0,0.0,0.0,0.0,0.0,0.0,0.0,0.0,0.0,0.0,0.0,0.0,0.0,0.0,0.0,0.0,0.0,0.0,0.0,0.0,0.0,0.0,0.0,0.0,0.0,0.0,0.0,0.0,0.0,0.0,0.0,0.0,0.0,0.0,0.0,0.0,0.0,0.0,0.0,0.0,0.0,0.0,0.0,0.0,0.0,0.0,0.0,0.0,0.0,0.0,0.0,0.0,0.0,0.0,0.0,0.0,0.0,0.0,0.0,0.0,0.0,0.0,0.0,0.0,0.0,0.0,0.0,0.0,0.0,0.0,0.0,0.0,0.0,0.0,0.0,0.0,0.0,0.0,0.0,0.0,0.0,0.0,0.0,0.0,0.0,0.0,0.0,0.0,0.0,0.0,0.0,0.0,0.0,0.0,-2.735,-2.5915,-2.4987,-2.4252,-2.4963,-2.7071,0.0,0.0,0.0,0.0,0.0,0.0,0.0,0.0,0.0,0.0,0.0,0.0,0.0,0.0,0.0,0.0,0.0,0.0,0.0,0.0,0.0,0.0,0.0,0.0,0.0,0.0,0.0,0.0,0.0,0.0,0.0,0.0,0.0,0.0,0.0,0.0,0.0,0.0,0.0,0.0,0.0,0.0,0.0,0.0,0.0,0.0,0.0,0.0,0.0,0.0,0.0,0.0,0.0,0.0,0.0,0.0,0.0,0.0,0.0,0.0,0.0,0.0,0.0,0.0,0.0,0.0,0.0,0.0,0.0,0.0,0.0,0.0,0.0,0.0,0.0,0.0,0.0,0.0,0.0,0.0,0.0,0.0,0.0,0.0,0.0,0.0,0.0,0.0,0.0,0.0,0.0,0.0,0.0,0.0,0.0,0.0,0.0,0.0,0.0,0.0,0.0,0.0,0.0,0.0,0.0,0.0,0.0,0.0,-3.1073,-2.7292,-2.5067,-2.4781,-2.5714,-2.6765,0.0,0.0,0.0,0.0,0.0,0.0,0.0,0.0,0.0,0.0,0.0,0.0,0.0,0.0,0.0,0.0,0.0,0.0,0.0,0.0,0.0,0.0,0.0,0.0,0.0,0.0,0.0,0.0,0.0,0.0,0.0,0.0,0.0,0.0,0.0,0.0,0.0,0.0,0.0,0.0,0.0,0.0,0.0,0.0,0.0,0.0,0.0,0.0,0.0,0.0,0.0,0.0,0.0,0.0,0.0,0.0,0.0,0.0,0.0,0.0,0.0,0.0,0.0,0.0,0.0,0.0,0.0,0.0,0.0,0.0,0.0,0.0,0.0,0.0,0.0,0.0,0.0,0.0,0.0,0.0,0.0,0.0,0.0,0.0,0.0,0.0,0.0,0.0,0.0,0.0,0.0,0.0,0.0,0.0,0.0,0.0,0.0,0.0,0.0,0.0,0.0,0.0,0.0,0.0,0.0,0.0,0.0,0.0,0.0,-2.9322,-2.6632,-2.4487,-2.3328,-2.2947,-2.3978,0.0,0.0,0.0,0.0,0.0,0.0,0.0,0.0,0.0,0.0,0.0,0.0,0.0,0.0,0.0,0.0,0.0,0.0,0.0,0.0,0.0,0.0,0.0,0.0,0.0,0.0,0.0,0.0,0.0,0.0,0.0,0.0,0.0,0.0,0.0,0.0,0.0,0.0,0.0,0.0,0.0,0.0,0.0,0.0,0.0,0.0,0.0,0.0,0.0,0.0,0.0,0.0,0.0,0.0,0.0,0.0,0.0,0.0,0.0,0.0,0.0,0.0,0.0,0.0,0.0,0.0,0.0,0.0,0.0,0.0,0.0,0.0,0.0,0.0,0.0,0.0,0.0,0.0,0.0,0.0,0.0,0.0,0.0,0.0,0.0,0.0,0.0,0.0,0.0,0.0,0.0,0.0,0.0,0.0,0.0,0.0,0.0,0.0,0.0,0.0,0.0,0.0,0.0,0.0,0.0,0.0,0.0,0.0,0.0,-2.7856,-2.6969,-2.5211,-2.2485,-2.2194,-2.2959,0.0,0.0,0.0,0.0,0.0,0.0,0.0,0.0,0.0,0.0,0.0,0.0,0.0,0.0,0.0,0.0,0.0,0.0,0.0,0.0,0.0,0.0,0.0,0.0,0.0,0.0,0.0,0.0,0.0,0.0,0.0,0.0,0.0,0.0,0.0,0.0,0.0,0.0,0.0,0.0,0.0,0.0,0.0,0.0,0.0,0.0,0.0,0.0,0.0,0.0,0.0,0.0,0.0,0.0,0.0,0.0,0.0,0.0,0.0,0.0,0.0,0.0,0.0,0.0,0.0,0.0,0.0,0.0,0.0,0.0,0.0,0.0,0.0,0.0,0.0,0.0,0.0,0.0,0.0,0.0,0.0,0.0,0.0,0.0,0.0,0.0,0.0,0.0,0.0,0.0,0.0,0.0,0.0,0.0,0.0,0.0,0.0,0.0,0.0,0.0,0.0,0.0,0.0,0.0,0.0,0.0,0.0,0.0,-2.7893,-2.6939,-2.8442,-2.6904,-2.2593,-2.3665,-2.4239,0.0,0.0,0.0,0.0,0.0,0.0,0.0,0.0,0.0,0.0,0.0,0.0,0.0,0.0,0.0,0.0,0.0,0.0,0.0,0.0,0.0,0.0,0.0,0.0,0.0,0.0,0.0,0.0,0.0,0.0,0.0,0.0,0.0,0.0,0.0,0.0,0.0,0.0,0.0,0.0,0.0,0.0,0.0,0.0,0.0,0.0,0.0,0.0,0.0,0.0,0.0,0.0,0.0,0.0,0.0,0.0,0.0,0.0,0.0,0.0,0.0,0.0,0.0,0.0,0.0,0.0,0.0,0.0,0.0,0.0,0.0,0.0,0.0,0.0,0.0,0.0,0.0,0.0,0.0,0.0,0.0,0.0,0.0,0.0,0.0,0.0,0.0,0.0,0.0,0.0,0.0,0.0,0.0,0.0,0.0,0.0,0.0,0.0,0.0,0.0,0.0,0.0,0.0,0.0,0.0,0.0,0.0,0.0,0.0,-2.5335,-2.6548,-2.6032,-2.348,-2.2982,-2.335,0.0,0.0,0.0,0.0,0.0,0.0,0.0,0.0,0.0,0.0,0.0,0.0,0.0,0.0,0.0,0.0,0.0,0.0,0.0,0.0,0.0,0.0,0.0,0.0,0.0,0.0,0.0,0.0,0.0,0.0,0.0,0.0,0.0,0.0,0.0,0.0,0.0,0.0,0.0,0.0,0.0,0.0,0.0,0.0,0.0,0.0,0.0,0.0,0.0,0.0,0.0,0.0,0.0,0.0,0.0,0.0,0.0,0.0,0.0,0.0,0.0,0.0,0.0,0.0,0.0,0.0,0.0,0.0,0.0,0.0,0.0,0.0,0.0,0.0,0.0,0.0,0.0,0.0,0.0,0.0,0.0,0.0,0.0,0.0,0.0,0.0,0.0,0.0,0.0,0.0,0.0,0.0,0.0,0.0,0.0,0.0,0.0,0.0,0.0,0.0,0.0,0.0,0.0,0.0,0.0,0.0,0.0,0.0,0.0,-2.6987,-2.7712,-2.7036,-2.4917,-2.3754,-2.3529,-2.4451,0.0,0.0,0.0,0.0,0.0,0.0,0.0,0.0,0.0,0.0,0.0,0.0,0.0,0.0,0.0,0.0,0.0,0.0,0.0,0.0,0.0,0.0,0.0,0.0,0.0,0.0,0.0,0.0,0.0,0.0,0.0,0.0,0.0,0.0,0.0,0.0,0.0,0.0,0.0,0.0,0.0,0.0,0.0,0.0,0.0,0.0,0.0,0.0,0.0,0.0,0.0,0.0,0.0,0.0,0.0,0.0,0.0,0.0,0.0,0.0,0.0,0.0,0.0,0.0,0.0,0.0,0.0,0.0,0.0,0.0,0.0,0.0,0.0,0.0,0.0,0.0,0.0,0.0,0.0,0.0,0.0,0.0,0.0,0.0,0.0,0.0,0.0,0.0,0.0,0.0,0.0,0.0,0.0,0.0,0.0,0.0,0.0,0.0,0.0,0.0,0.0,0.0,0.0,0.0,0.0,0.0,0.0,0.0,-3.0888,-3.0937,-2.967,-2.6907,-2.5732,-2.4891,0.0,0.0,0.0,0.0,0.0,0.0,0.0,0.0,0.0,0.0,0.0,0.0,0.0,0.0,0.0,0.0,0.0,0.0,0.0,0.0,0.0,0.0,0.0,0.0,0.0,0.0,0.0,0.0,0.0,0.0,0.0,0.0,0.0,0.0,0.0,0.0,0.0,0.0,0.0,0.0,0.0,0.0,0.0,0.0,0.0,0.0,0.0,0.0,0.0,0.0,0.0,0.0,0.0,0.0,0.0,0.0,0.0,0.0,0.0,0.0,0.0,0.0,0.0,0.0,0.0,0.0,0.0,0.0,0.0,0.0,0.0,0.0,0.0,0.0,0.0,0.0,0.0,0.0,0.0,0.0,0.0,0.0,0.0,0.0,0.0,0.0,0.0,0.0,0.0,0.0,0.0,0.0,0.0,0.0,0.0,0.0,0.0,0.0,0.0,0.0,0.0,0.0,0.0,0.0,0.0,0.0,0.0,0.0,0.0,-3.1332,-3.1606,-3.0655,-2.819,-2.6573,-2.5308,0.0,0.0,0.0,0.0,0.0,0.0,0.0,0.0,0.0,0.0,0.0,0.0,0.0,0.0,0.0,0.0,0.0,0.0,0.0,0.0,0.0,0.0,0.0,0.0,0.0,0.0,0.0,0.0,0.0,0.0,0.0,0.0,0.0,0.0,0.0,0.0,0.0,0.0,0.0,0.0,0.0,0.0,0.0,0.0,0.0,0.0,0.0,0.0,0.0,0.0,0.0,0.0,0.0,0.0,0.0,0.0,0.0,0.0,0.0,0.0,0.0,0.0,0.0,0.0,0.0,0.0,0.0,0.0,0.0,0.0,0.0,0.0,0.0,0.0,0.0,0.0,0.0,0.0,0.0,0.0,0.0,0.0,0.0,0.0,0.0,0.0,0.0,0.0,0.0,0.0,0.0,0.0,0.0,0.0,0.0,0.0,0.0,0.0,0.0,0.0,0.0,0.0,0.0,0.0,0.0,0.0,0.0,0.0,-3.1595,-3.269,-3.239,-3.1637,-3.0301,-2.8551,-2.6854,0.0,0.0,0.0,0.0,0.0,0.0,0.0,0.0,0.0,0.0,0.0,0.0,0.0,0.0,0.0,0.0,0.0,0.0,0.0,0.0,0.0,0.0,0.0,0.0,0.0,0.0,0.0,0.0,0.0,0.0,0.0,0.0,0.0,0.0,0.0,0.0,0.0,0.0,0.0,0.0,0.0,0.0,0.0,0.0,0.0,0.0,0.0,0.0,0.0,0.0,0.0,0.0,0.0,0.0,0.0,0.0,0.0,0.0,0.0,0.0,0.0,0.0,0.0,0.0,0.0,0.0,0.0,0.0,0.0,0.0,0.0,0.0,0.0,0.0,0.0,0.0,0.0,0.0,0.0,0.0,0.0,0.0,0.0,0.0,0.0,0.0,0.0,0.0,0.0,0.0,0.0,0.0,0.0,0.0,0.0,0.0,0.0,0.0,0.0,0.0,0.0,0.0,0.0,0.0,0.0,0.0,0.0,0.0,-3.3212,-3.4168,-3.3312,-3.2625,-3.2545,-3.0889,-2.8764,0.0,0.0,0.0,0.0,0.0,0.0,0.0,0.0,0.0,0.0,0.0,0.0,0.0,0.0,0.0,0.0,0.0,0.0,0.0,0.0,0.0,0.0,0.0,0.0,0.0,0.0,0.0,0.0,0.0,0.0,0.0,0.0,0.0,0.0,0.0,0.0,0.0,0.0,0.0,0.0,0.0,0.0,0.0,0.0,0.0,0.0,0.0,0.0,0.0,0.0,0.0,0.0,0.0,0.0,0.0,0.0,0.0,0.0,0.0,0.0,0.0,0.0,0.0,0.0,0.0,0.0,0.0,0.0,0.0,0.0,0.0,0.0,0.0,0.0,0.0,0.0,0.0,0.0,0.0,0.0,0.0,0.0,0.0,0.0,0.0,0.0,0.0,0.0,0.0,0.0,0.0,0.0,0.0,0.0,0.0,0.0,0.0,0.0,0.0,0.0,0.0,0.0,0.0,0.0,0.0,0.0,0.0,0.0,-3.3664,-3.2599,-3.2955,-3.312,-3.2893,-3.1183,-2.9339,0.0,0.0,0.0,0.0,0.0,0.0,0.0,0.0,0.0,0.0,0.0,0.0,0.0,0.0,0.0,0.0,0.0,0.0,0.0,0.0,0.0,0.0,0.0,0.0,0.0,0.0,0.0,0.0,0.0,0.0,0.0,0.0,0.0,0.0,0.0,0.0,0.0,0.0,0.0,0.0,0.0,0.0,0.0,0.0,0.0,0.0,0.0,0.0,-2.8535,0.0,0.0,0.0,0.0,0.0,0.0,0.0,0.0,0.0,0.0,0.0,0.0,0.0,0.0,0.0,0.0,0.0,0.0,0.0,0.0,0.0,0.0,0.0,0.0,0.0,0.0,0.0,0.0,0.0,0.0,0.0,0.0,0.0,0.0,0.0,0.0,0.0,0.0,0.0,0.0,0.0,0.0,0.0,0.0,0.0,0.0,0.0,0.0,0.0,0.0,0.0,0.0,0.0,0.0,0.0,0.0,0.0,0.0,0.0,-3.3246,-3.2633,-3.3106,-3.3334,-3.316,-3.2278,-3.0635,0.0,0.0,0.0,0.0,0.0,0.0,0.0,0.0,0.0,0.0,0.0,0.0,0.0,0.0,0.0,0.0,0.0,0.0,0.0,0.0,0.0,0.0,0.0,0.0,0.0,0.0,0.0,0.0,0.0,0.0,0.0,0.0,0.0,0.0,0.0,0.0,0.0,0.0,0.0,0.0,0.0,0.0,0.0,0.0,0.0,0.0,0.0,0.0,0.0,0.0,0.0,0.0,0.0,0.0,0.0,0.0,0.0,0.0,0.0,0.0,0.0,0.0,0.0,0.0,0.0,0.0,0.0,0.0,0.0,0.0,0.0,0.0,0.0,0.0,0.0,0.0,0.0,0.0,0.0,0.0,0.0,0.0,0.0,0.0,0.0,0.0,0.0,0.0,0.0,0.0,0.0,0.0,0.0,0.0,0.0,0.0,0.0,0.0,0.0,0.0,0.0,0.0,0.0,0.0,0.0,0.0,0.0,-3.1806,-3.2789,-3.309,-3.3307,-3.3454,-3.3414,-3.3454,-3.2038,-2.9005,0.0,0.0,0.0,0.0,0.0,0.0,0.0,0.0,0.0,0.0,0.0,0.0,0.0,0.0,0.0,0.0,0.0,0.0,0.0,0.0,0.0,0.0,0.0,0.0,0.0,0.0,0.0,0.0,0.0,0.0,0.0,0.0,0.0,0.0,0.0,0.0,0.0,0.0,-2.9746,-3.1875,0.0,0.0,0.0,0.0,0.0,0.0,0.0,0.0,-2.8607,0.0,0.0,0.0,0.0,0.0,0.0,0.0,0.0,0.0,0.0,0.0,0.0,0.0,0.0,0.0,0.0,0.0,0.0,0.0,0.0,0.0,0.0,0.0,0.0,0.0,0.0,0.0,0.0,0.0,0.0,0.0,0.0,0.0,0.0,0.0,0.0,0.0,0.0,0.0,0.0,0.0,0.0,0.0,0.0,0.0,0.0,0.0,0.0,0.0,0.0,0.0,0.0,0.0,0.0,0.0,0.0,-3.3547,-3.3725,-3.3586,-3.2933,-3.3521,-3.3681,-3.3427,-3.3668,-3.2639,-3.0181,0.0,0.0,0.0,0.0,0.0,0.0,0.0,0.0,0.0,0.0,0.0,0.0,0.0,0.0,0.0,0.0,0.0,0.0,0.0,0.0,0.0,0.0,0.0,0.0,0.0,0.0,0.0,0.0,0.0,0.0,0.0,0.0,0.0,0.0,0.0,0.0,0.0,0.0,0.0,-3.5078,-3.5918,0.0,0.0,0.0,0.0,0.0,0.0,0.0,0.0,-2.7926,0.0,0.0,0.0,0.0,0.0,0.0,0.0,0.0,0.0,0.0,0.0,0.0,0.0,0.0,0.0,0.0,0.0,0.0,0.0,0.0,0.0,0.0,0.0,0.0,0.0,0.0,0.0,0.0,0.0,0.0,0.0,0.0,0.0,0.0,0.0,0.0,0.0,0.0,0.0,0.0,0.0,0.0,0.0,0.0,0.0,0.0,0.0,0.0,0.0,0.0,0.0,0.0,0.0,0.0,0.0,-3.2793,-3.329,-3.3547,-3.3414,-3.3881,-3.4042,-3.3895,-3.4028,-3.3,0.0,0.0,0.0,0.0,0.0,0.0,0.0,0.0,0.0,0.0,0.0,0.0,0.0,0.0,0.0,0.0,0.0,0.0,0.0,0.0,0.0,0.0,0.0,0.0,0.0,0.0,0.0,0.0,0.0,0.0,0.0,0.0,0.0,0.0,0.0,0.0,0.0,0.0,0.0,0.0,-3.6133,-3.6992,-3.791,0.0,0.0,0.0,0.0,0.0,0.0,-2.7621,-2.6281,0.0,0.0,0.0,0.0,0.0,0.0,0.0,0.0,0.0,0.0,0.0,0.0,0.0,0.0,0.0,0.0,0.0,0.0,0.0,0.0,0.0,0.0,0.0,0.0,0.0,0.0,0.0,0.0,0.0,0.0,0.0,0.0,0.0,0.0,0.0,0.0,0.0,0.0,0.0,0.0,0.0,0.0,0.0,0.0,0.0,0.0,0.0,0.0,0.0,0.0,0.0,0.0,0.0,0.0,0.0,-3.1763,-3.238,-3.3093,-3.3855,-3.4229,-3.4376,-3.4322,-3.4376,-3.3307,0.0,0.0,0.0,0.0,0.0,0.0,0.0,0.0,0.0,0.0,0.0,0.0,0.0,0.0,0.0,0.0,0.0,0.0,0.0,0.0,0.0,0.0,0.0,0.0,0.0,0.0,0.0,0.0,0.0,0.0,0.0,0.0,0.0,0.0,0.0,0.0,0.0,0.0,0.0,0.0,0.0,-3.8105,-3.9863,-3.748,0.0,0.0,0.0,0.0,-3.0705,-2.7992,0.0,0.0,0.0,0.0,0.0,0.0,0.0,0.0,0.0,0.0,0.0,0.0,0.0,0.0,0.0,0.0,0.0,0.0,0.0,0.0,0.0,0.0,0.0,0.0,0.0,0.0,0.0,0.0,0.0,0.0,0.0,0.0,0.0,0.0,0.0,0.0,0.0,0.0,0.0,0.0,0.0,0.0,0.0,0.0,0.0,0.0,0.0,0.0,0.0,0.0,0.0,0.0,0.0,0.0,0.0,0.0,-3.2569,-3.2152,-3.2492,-3.3828,-3.4416,-3.4576,-3.4336,-3.4576,-3.3601,0.0,0.0,0.0,0.0,0.0,0.0,0.0,0.0,0.0,0.0,0.0,0.0,0.0,0.0,0.0,0.0,0.0,0.0,0.0,0.0,0.0,0.0,0.0,0.0,0.0,0.0,0.0,0.0,0.0,0.0,0.0,0.0,0.0,0.0,0.0,0.0,0.0,0.0,0.0,0.0,0.0,-4.0312,-4.0937,-3.9355,-3.8242,0.0,0.0,-3.2576,-3.2559,-3.1414,0.0,0.0,0.0,0.0,0.0,0.0,0.0,0.0,0.0,0.0,0.0,0.0,0.0,0.0,0.0,0.0,0.0,0.0,0.0,0.0,0.0,0.0,0.0,0.0,0.0,0.0,0.0,0.0,0.0,0.0,0.0,0.0,0.0,0.0,0.0,0.0,0.0,0.0,0.0,0.0,0.0,0.0,0.0,0.0,0.0,0.0,0.0,0.0,0.0,0.0,0.0,0.0,0.0,0.0,0.0,-3.0046,-3.1284,-3.2237,-3.3213,-3.4349,-3.495,-3.5271,-3.5311,-3.5271,-3.4148,0.0,0.0,0.0,0.0,0.0,0.0,0.0,0.0,0.0,0.0,0.0,0.0,0.0,0.0,0.0,0.0,0.0,0.0,0.0,0.0,0.0,0.0,0.0,0.0,0.0,0.0,0.0,0.0,0.0,0.0,0.0,0.0,0.0,0.0,0.0,0.0,0.0,0.0,0.0,0.0,0.0,0.0,-4.2734,-4.012,0.0,0.0,0.0,-3.1252,-3.1302,0.0,0.0,0.0,0.0,0.0,0.0,0.0,0.0,0.0,0.0,0.0,0.0,0.0,0.0,0.0,0.0,0.0,0.0,0.0,0.0,0.0,0.0,0.0,0.0,0.0,0.0,0.0,0.0,0.0,0.0,0.0,0.0,0.0,0.0,0.0,0.0,0.0,0.0,0.0,0.0,0.0,0.0,0.0,0.0,0.0,0.0,0.0,0.0,0.0,0.0,0.0,0.0,0.0,0.0,0.0,0.0,0.0,-3.0374,-3.2285,-3.3855,-3.475,-3.5324,-3.5765,-3.6059,-3.5778,0.0,0.0,0.0,0.0,0.0,0.0,0.0,0.0,0.0,0.0,0.0,0.0,0.0,0.0,0.0,0.0,0.0,0.0,0.0,0.0,0.0,0.0,0.0,0.0,0.0,0.0,0.0,-2.6562,0.0,0.0,0.0,0.0,0.0,0.0,0.0,0.0,0.0,0.0,0.0,0.0,0.0,0.0,-4.0976,-4.3984,-4.0871,-3.8725,0.0,0.0,-3.1726,-3.1342,-3.073,-2.9367,0.0,0.0,0.0,0.0,0.0,0.0,0.0,0.0,0.0,0.0,0.0,0.0,0.0,0.0,0.0,0.0,0.0,0.0,0.0,0.0,0.0,0.0,0.0,0.0,0.0,0.0,0.0,0.0,0.0,0.0,0.0,0.0,0.0,0.0,0.0,0.0,0.0,0.0,0.0,0.0,0.0,0.0,0.0,0.0,0.0,0.0,0.0,0.0,0.0,0.0,0.0,0.0,0.0,0.0,-2.8973,-3.1029,-3.2693,-3.3881,-3.4736,-3.5338,-3.5765,-3.6059,-3.5792,-3.4536,0.0,0.0,0.0,0.0,0.0,0.0,0.0,0.0,0.0,0.0,0.0,0.0,0.0,0.0,0.0,0.0,0.0,0.0,0.0,0.0,0.0,0.0,0.0,0.0,0.0,0.0,0.0,0.0,0.0,0.0,0.0,0.0,0.0,0.0,0.0,0.0,0.0,0.0,0.0,0.0,0.0,-4.0996,-4.3984,-4.2143,-4.088,0.0,-4.0368,-3.7606,-3.4321,-3.5425,-3.4406,-2.7588,0.0,0.0,0.0,0.0,0.0,0.0,0.0,0.0,0.0,0.0,0.0,0.0,0.0,0.0,0.0,0.0,0.0,0.0,0.0,0.0,0.0,0.0,0.0,0.0,0.0,0.0,0.0,0.0,0.0,0.0,0.0,0.0,0.0,0.0,0.0,0.0,0.0,0.0,0.0,0.0,0.0,0.0,0.0,0.0,0.0,0.0,0.0,0.0,0.0,0.0,0.0,0.0,0.0,-2.8762,-3.0142,-3.253,-3.4322,-3.5525,-3.5965,-3.6393,-3.6874,-3.6593,-3.5418,0.0,0.0,0.0,0.0,0.0,0.0,0.0,0.0,0.0,0.0,0.0,0.0,0.0,0.0,0.0,0.0,0.0,0.0,0.0,0.0,0.0,0.0,0.0,0.0,0.0,0.0,0.0,0.0,-3.1387,-3.1816,-3.0879,0.0,0.0,0.0,0.0,0.0,0.0,0.0,0.0,0.0,0.0,-4.0521,-4.3373,-4.2619,0.0,0.0,-3.8777,-3.5707,-3.3285,-3.2885,-3.174,-2.8811,-2.6921,0.0,0.0,0.0,0.0,0.0,0.0,0.0,0.0,0.0,0.0,0.0,0.0,0.0,0.0,0.0,0.0,0.0,0.0,0.0,0.0,0.0,0.0,0.0,0.0,0.0,0.0,0.0,0.0,0.0,0.0,0.0,0.0,0.0,0.0,0.0,0.0,0.0,0.0,0.0,0.0,0.0,0.0,0.0,0.0,0.0,0.0,0.0,0.0,0.0,0.0,0.0,0.0,-2.8353,-2.9593,-3.2438,-3.4549,-3.5912,-3.6313,-3.678,-3.7355,-3.7181,-3.6153,0.0,0.0,0.0,0.0,0.0,0.0,0.0,0.0,0.0,0.0,0.0,0.0,0.0,0.0,0.0,0.0,0.0,0.0,0.0,0.0,0.0,0.0,0.0,0.0,0.0,0.0,0.0,0.0,-3.2422,-3.2461,-3.1445,0.0,0.0,0.0,0.0,0.0,0.0,0.0,0.0,0.0,0.0,-4.0385,-4.3,-4.3378,-4.2744,-4.1548,-3.8392,-3.5074,-3.2436,-3.1647,-3.1138,-2.9878,0.0,0.0,0.0,0.0,0.0,0.0,0.0,0.0,0.0,0.0,0.0,0.0,0.0,0.0,0.0,0.0,0.0,0.0,0.0,0.0,0.0,0.0,0.0,0.0,0.0,0.0,0.0,-1.9813,0.0,0.0,-1.9439,0.0,0.0,0.0,0.0,0.0,0.0,0.0,0.0,0.0,0.0,0.0,0.0,0.0,0.0,0.0,0.0,0.0,0.0,0.0,0.0,0.0,0.0,-2.7562,-2.99,-3.2559,-3.4482,-3.5631,-3.6206,-3.6794,-3.7355,-3.7382,-3.654,-3.479,0.0,0.0,0.0,0.0,0.0,0.0,0.0,0.0,0.0,0.0,0.0,0.0,0.0,0.0,0.0,0.0,0.0,0.0,0.0,0.0,0.0,0.0,0.0,0.0,0.0,0.0,-3.1074,-3.1328,-3.1426,0.0,0.0,0.0,0.0,0.0,0.0,0.0,0.0,0.0,-3.2618,-3.7076,-4.0916,-4.3451,-4.4303,-4.3714,-4.1716,-4.0137,-3.736,-3.2476,-3.3671,-3.394,0.0,0.0,0.0,0.0,0.0,0.0,0.0,0.0,0.0,0.0,0.0,0.0,0.0,0.0,0.0,0.0,0.0,0.0,0.0,0.0,0.0,0.0,0.0,0.0,0.0,0.0,0.0,-2.2712,-2.2432,0.0,0.0,0.0,0.0,0.0,0.0,0.0,0.0,0.0,0.0,0.0,-2.7014,-2.7989,0.0,0.0,0.0,0.0,0.0,0.0,0.0,0.0,0.0,0.0,0.0,0.0,-2.8323,-3.0515,-3.3307,-3.5231,-3.6179,-3.6593,-3.6981,-3.7368,-3.7569,-3.6847,-3.5097,0.0,0.0,0.0,0.0,0.0,0.0,0.0,0.0,0.0,0.0,0.0,0.0,0.0,0.0,0.0,0.0,0.0,0.0,0.0,0.0,0.0,0.0,0.0,0.0,0.0,-3.0501,0.0,0.0,0.0,0.0,0.0,0.0,0.0,0.0,0.0,0.0,-3.0852,-3.2159,-3.4034,-3.544,-3.8234,-4.3534,-4.3016,-4.2217,0.0,0.0,0.0,0.0,0.0,0.0,0.0,0.0,0.0,0.0,0.0,0.0,0.0,0.0,-2.9523,-2.6586,-2.5716,-2.6299,-2.8963,0.0,0.0,0.0,0.0,0.0,0.0,0.0,0.0,0.0,0.0,0.0,0.0,0.0,0.0,-2.485,-2.4676,-2.4476,0.0,0.0,0.0,0.0,0.0,0.0,0.0,0.0,-2.7976,-2.8871,-2.9285,-3.0154,-3.0047,-2.9112,-2.8711,-2.7575,0.0,0.0,0.0,0.0,0.0,0.0,0.0,0.0,-2.9179,-3.1263,-3.3855,-3.5525,-3.6179,-3.6687,-3.7088,-3.7368,-3.7462,-3.6927,-3.5685,-3.4135,-3.2666,0.0,0.0,0.0,0.0,0.0,0.0,0.0,0.0,0.0,0.0,0.0,0.0,0.0,0.0,0.0,0.0,0.0,0.0,0.0,0.0,0.0,0.0,0.0,-3.0889,0.0,0.0,0.0,0.0,0.0,0.0,0.0,0.0,0.0,-3.0102,-3.1245,-3.2422,-3.3512,-3.4442,-3.7194,-4.2863,0.0,0.0,0.0,0.0,0.0,0.0,0.0,-3.1917,-3.173,-3.1009,-3.0167,-2.9352,-3.0034,-3.0595,-3.0274,0.0,0.0,-2.8016,-2.6867,-2.7086,-2.9774,-3.0756,-3.174,-3.3694,-3.4836,-3.5612,0.0,0.0,0.0,0.0,-2.5144,0.0,0.0,0.0,-2.6533,-2.6533,0.0,-2.6493,0.0,0.0,0.0,0.0,-2.5251,-2.6333,0.0,0.0,-3.1303,-3.2385,-3.2933,-3.32,-3.308,-3.2585,-3.2492,-3.1757,-3.0287,-2.7575,0.0,0.0,0.0,0.0,0.0,0.0,-3.01,-3.2104,-3.4162,-3.5351,-3.5672,-3.65,-3.7074,-3.7355,-3.7101,-3.6807,-3.6473,-3.4897,-3.3414,-3.2171,-2.9419,0.0,0.0,0.0,0.0,0.0,0.0,0.0,0.0,0.0,0.0,0.0,0.0,0.0,0.0,0.0,0.0,0.0,0.0,0.0,0.0,-3.0348,0.0,0.0,0.0,0.0,0.0,0.0,0.0,0.0,0.0,-3.1872,-2.885,-3.0671,-3.2012,-3.1421,0.0,0.0,0.0,0.0,-4.4781,-4.2924,-4.1948,-3.9378,-3.4309,-3.3494,-3.3454,-3.3454,0.0,0.0,-3.1623,-3.2251,-3.2519,-3.1183,-3.1877,-3.2318,-3.1423,-3.0261,-3.0328,-3.2528,-3.3487,-3.4738,-3.6852,-3.8088,-3.9041,-2.9566,0.0,0.0,0.0,0.0,-2.7175,-2.7896,-2.8925,-2.9138,-2.9112,-2.8898,-2.8684,0.0,0.0,0.0,0.0,0.0,0.0,-2.9285,-3.0835,-3.1289,-3.2131,-3.3307,-3.3374,-3.332,-3.316,-3.316,-3.2839,-3.2225,-3.1597,-2.9406,-2.5852,0.0,0.0,0.0,0.0,-3.1303,-3.2746,-3.4563,-3.5645,-3.5952,-3.6593,-3.7088,-3.7368,-3.7101,-3.6901,-3.6821,-3.6126,-3.4923,-3.3133,-3.1637,0.0,0.0,0.0,0.0,0.0,0.0,0.0,0.0,0.0,0.0,0.0,0.0,0.0,0.0,0.0,0.0,0.0,0.0,0.0,-2.6175,-2.8198,-2.9218,0.0,0.0,0.0,0.0,0.0,0.0,0.0,0.0,0.0,-2.9426,-3.1782,-3.3705,0.0,0.0,-3.5362,-4.0268,-3.9473,-3.8795,-4.0233,-3.8825,0.0,-3.5509,-3.4963,-3.4683,-3.4683,-3.4416,-3.4082,-3.3801,-3.3694,-3.3561,-3.3307,-3.3414,-3.3414,-3.3146,-3.2345,-3.2545,-3.4813,-3.5702,-3.6443,-3.8425,-3.9356,-3.9649,-3.1971,-3.0595,-2.9299,-2.8885,-2.9112,-2.9285,-2.9967,-3.0969,-3.1142,-3.1196,-3.1116,-3.0942,-3.0274,-2.9232,-2.8604,0.0,0.0,0.0,-3.0875,-3.2278,-3.2278,-3.2826,-3.3748,-3.3774,-3.3774,-3.3761,-3.3654,-3.3574,-3.3507,-3.3574,-3.2064,-2.9112,0.0,-2.9619,-2.9499,-3.1089,-3.2385,-3.336,-3.4963,-3.5832,-3.5912,-3.6567,-3.7021,-3.7195,-3.7034,-3.6941,-3.6941,-3.666,-3.5939,-3.4696,-3.324,-3.173,0.0,0.0,0.0,0.0,0.0,0.0,0.0,0.0,0.0,0.0,0.0,-2.6807,-2.5375,0.0,0.0,0.0,-2.7523,-2.7688,-2.7691,-2.9007,0.0,0.0,0.0,0.0,0.0,0.0,0.0,-3.0723,-3.0295,-3.0114,-3.0862,-3.2543,-3.3815,-3.4188,-3.3574,-3.4759,-3.9261,0.0,-3.7743,-3.9492,-3.8667,-3.7325,-3.6275,-3.5778,-3.5538,-3.5551,-3.5257,-3.507,-3.5231,-3.4977,-3.483,-3.4937,-3.487,-3.475,-3.475,-3.4295,-3.4165,-3.5167,-3.5564,-3.6158,-3.7328,-3.7644,-3.7719,-3.3975,-3.3774,-3.161,-3.0982,-3.1383,-3.1396,-3.1864,-3.2599,-3.2612,-3.2759,-3.3,-3.3013,-3.2559,-3.1744,-3.0715,0.0,-3.1851,-3.1891,-3.2652,-3.3988,-3.3988,-3.4148,-3.4416,-3.4402,-3.4389,-3.4389,-3.4122,-3.4122,-3.4322,-3.4108,-3.3694,-3.312,-3.2612,-3.2305,-3.2238,-3.2786,-3.3387,-3.4002,-3.5324,-3.5899,-3.5725,-3.654,-3.6967,-3.6981,-3.6994,-3.7008,-3.6967,-3.6714,-3.6553,-3.6446,-3.4402,-3.2839,-3.1957,0.0,0.0,0.0,0.0,0.0,0.0,0.0,0.0,0.0,0.0,0.0,0.0,0.0,0.0,0.0,-2.957,0.0,-3.0314,-3.1847,0.0,0.0,0.0,-3.0499,-3.2749,-3.0694,-3.0164,-3.2887,0.0,0.0,-3.2532,-3.2612,-3.2639,-3.2679,-3.34,-3.5115,-3.8089,-3.8959,-3.9521,-3.9605,-3.9678,-3.8868,-3.6626,-3.6166,-3.6139,-3.6139,-3.6126,-3.6072,-3.6059,-3.6019,-3.6046,-3.5992,-3.6059,-3.6032,-3.6059,-3.5925,-3.5658,-3.4528,-3.4295,-3.4456,-3.4869,-3.4869,-3.4882,-3.475,-3.4509,-3.3948,-3.34,-3.2893,-3.2893,-3.3013,-3.32,-3.32,-3.324,-3.3307,-3.332,-3.3213,-3.2986,-3.2959,-3.3093,-3.3374,-3.3828,-3.4336,-3.487,-3.4883,-3.5044,-3.5297,-3.5097,-3.499,-3.499,-3.4923,-3.4803,-3.467,-3.4817,-3.4696,-3.4362,-3.4416,-3.4015,-3.3187,-3.3708,-3.4295,-3.4883,-3.5231,-3.5698,-3.6286,-3.6941,-3.7275,-3.7275,-3.7489,-3.7502,-3.7288,-3.7208,-3.6967,-3.6513,-3.5752,-3.503,-3.4362,-3.1343,0.0,0.0,0.0,0.0,0.0,0.0,0.0,0.0,0.0,-2.7036,-2.412,0.0,-2.7462,0.0,-3.059,-3.1396,-3.0154,-3.1394,0.0,0.0,-3.0396,-3.0287,-3.2459,-3.0927,-3.0482,-3.2409,-3.2381,-3.2305,-3.3106,-3.32,-3.3374,-3.3828,-3.4082,-3.4541,-3.5734,-3.6683,-3.7385,-3.7454,-3.7633,-3.7359,-3.6934,-3.6727,-3.6714,-3.6727,-3.654,-3.6406,-3.6406,-3.6219,-3.6072,-3.6072,-3.6072,-3.6072,-3.6086,-3.6072,-3.5979,-3.5631,-3.5618,-3.5658,-3.5658,-3.5645,-3.5645,-3.5498,-3.5351,-3.5338,-3.5057,-3.4563,-3.4042,-3.3814,-3.3828,-3.3961,-3.4015,-3.4015,-3.4162,-3.4215,-3.4229,-3.4523,-3.4656,-3.4696,-3.5137,-3.5431,-3.5578,-3.5458,-3.5471,-3.5618,-3.5338,-3.5271,-3.5391,-3.5257,-3.5177,-3.5151,-3.5177,-3.511,-3.4963,-3.5124,-3.487,-3.4269,-3.4549,-3.4817,-3.5004,-3.5391,-3.6006,-3.6861,-3.7221,-3.7382,-3.7395,-3.7662,-3.7622,-3.7195,-3.7435,-3.7248,-3.654,-3.6233,-3.5752,-3.5017,-3.3026,-3.161,0.0,0.0,0.0,0.0,0.0,0.0,0.0,0.0,0.0,0.0,0.0,-2.835,-2.8965,-3.1383,-3.2372,-3.1009,-3.2225,-3.3026,-3.2853,-3.2011,-3.1851,-3.2826,-3.2064,-3.1851,-3.2812,-3.2906,-3.3133,-3.3734,-3.3814,-3.3988,-3.4456,-3.4629,-3.4817,-3.5151,-3.5939,-3.654,-3.6687,-3.6834,-3.6941,-3.6941,-3.6941,-3.6941,-3.6927,-3.6807,-3.67,-3.6687,-3.6567,-3.646,-3.646,-3.646,-3.646,-3.646,-3.646,-3.646,-3.646,-3.646,-3.6366,-3.6126,-3.6072,-3.6072,-3.6166,-3.6126,-3.6126,-3.6112,-3.5992,-3.4977,-3.4549,-3.4563,-3.4817,-3.4937,-3.495,-3.5191,-3.5311,-3.5324,-3.5578,-3.5712,-3.5765,-3.6046,-3.6179,-3.6166,-3.5912,-3.5765,-3.5672,-3.5391,-3.5378,-3.5605,-3.5338,-3.5364,-3.5672,-3.5471,-3.5338,-3.5324,-3.5378,-3.5364,-3.5257,-3.5297,-3.5151,-3.4843,-3.5645,-3.6446,-3.7195,-3.7355,-3.7435,-3.7448,-3.7756,-3.7676,-3.7141,-3.7569,-3.7448,-3.666,-3.634,-3.5805,-3.4977,-3.4509,-3.328,0.0,-3.0782,0.0,0.0,0.0,0.0,0.0,0.0,0.0,0.0,-3.1177,-3.0688,-2.9793,-3.2038,-3.3227,-3.2505,-3.3681,-3.4482,-3.4482,-3.4229,-3.3935,-3.3627,-3.3547,-3.3534,-3.3534,-3.3774,-3.4055,-3.4322,-3.4376,-3.4482,-3.4776,-3.5004,-3.5271,-3.5645,-3.6139,-3.6607,-3.6941,-3.7034,-3.7128,-3.7101,-3.7088,-3.7088,-3.7074,-3.7088,-3.7048,-3.7074,-3.7061,-3.7034,-3.6994,-3.6967,-3.6967,-3.6954,-3.6927,-3.6927,-3.6901,-3.6887,-3.6754,-3.6353,-3.6233,-3.6179,-3.6633,-3.6433,-3.642,-3.6286,-3.6046,-3.5832,-3.5738,-3.5738,-3.5805,-3.5832,-3.5832,-3.5885,-3.5912,-3.5912,-3.5965,-3.6126,-3.6353,-3.6647,-3.6767,-3.6767,-3.6714,-3.6433,-3.5992,-3.5685,-3.5578,-3.5605,-3.5338,-3.5471,-3.5992,-3.6166,-3.6139,-3.5925,-3.638,-3.6259,-3.5591,0.0,0.0,0.0,-3.5752,-3.6153,-3.6353,-3.7248,-3.7729,-3.7742,-3.8263,0.0,-3.8036,-3.7889,-3.7635,-3.7235,-3.6927,0.0,0.0,0.0,0.0,0.0,0.0,0.0,0.0,0.0,0.0,0.0,-3.1137,-3.0975,-3.0299,-3.1692,-3.2104,-3.1076,-3.2879,-3.4175,-3.4255,-3.4923,-3.5378,-3.5378,-3.511,-3.483,-3.4549,-3.4295,-3.4148,-3.4148,-3.4202,-3.4362,-3.4629,-3.4683,-3.479,-3.5044,-3.5164,-3.5418,-3.5925,-3.6286,-3.67,-3.7181,-3.7462,-3.7622,-3.7649,-3.7622,-3.7595,-3.7649,-3.7649,-3.7635,-3.7622,-3.7622,-3.7542,-3.7355,-3.7301,-3.7221,-3.7008,-3.6941,-3.6981,-3.6941,-3.6954,-3.6901,-3.6794,-3.678,-3.678,-3.7074,-3.6941,-3.6941,-3.6767,0.0,-3.65,-3.65,-3.6473,-3.6193,-3.6153,-3.6299,-3.6433,-3.65,-3.65,-3.65,-3.658,-3.6727,-3.6874,-3.7021,-3.7141,-3.6861,-3.6647,-3.6487,-3.6059,-3.5925,-3.6046,-3.5912,-3.6072,-3.6487,-3.6647,-3.6647,-3.65,-3.6647,-3.65,-3.6086,-3.6206,-3.6206,-3.6059,-3.6487,-3.6861,-3.7155,-3.7729,-3.8036,-3.805,-3.8477,0.0,0.0,0.0,0.0,0.0,0.0,0.0,0.0,-3.5231,0.0,-3.3668,-3.2799,-3.2251,-3.2091,-3.1957,-3.2118,-3.2706,-3.2893,-3.2666,-3.1931,-3.2973,-3.34,-3.2853,-3.3868,-3.4603,-3.4763,-3.5284,-3.5631,-3.5618,-3.5498,-3.5297,-3.5017,-3.4843,-3.4696,-3.4589,-3.467,-3.4817,-3.495,-3.4977,-3.503,-3.5177,-3.5204,-3.5471,-3.6126,-3.6406,-3.6754,-3.7462,-3.7702,-3.7809,-3.7809,-3.7809,-3.7823,-3.7809,-3.7809,-3.7809,-3.7809,-3.7809,-3.7756,-3.7622,-3.7595,-3.7542,-3.7422,-3.7368,-3.7368,-3.7368,-3.7368,-3.7368,-3.7355,-3.7141,-3.6994,-3.7462,-3.7462,-3.7462,-3.7315,-3.7088,-3.7088,-3.7034,-3.6901,-3.638,0.0,0.0,-3.6807,-3.6967,-3.7021,-3.7074,-3.7128,-3.7168,-3.7168,-3.7301,-3.7515,-3.7034,-3.6861,-3.6914,-3.6446,-3.6353,-3.6567,-3.6527,-3.6714,-3.7088,-3.7101,-3.7088,-3.7074,-3.6901,-3.6794,-3.674,-3.674,-3.6874,-3.7168,-3.7315,-3.7609,-3.809,-3.8263,-3.8344,-3.8344,-3.8691,-3.8638,-3.8157,-3.8517,-3.8384,-3.7662,-3.7515,-3.7088,-3.6286,-3.5939,-3.5605,-3.5217,-3.4923,-3.4736,-3.4683,-3.4456,-3.4322,-3.4322,-3.4376,-3.4269,-3.3988,-3.4175,-3.4322,-3.4322,-3.4589,-3.4776,-3.4843,-3.5364,-3.5725,-3.5778,-3.5778,-3.5685,-3.5458,-3.5378,-3.5244,-3.5004,-3.5124,-3.5271,-3.5271,-3.5217,-3.5244,-3.5324,-3.5338,-3.5618,-3.6433,-3.6807,-3.7155,-3.7756,-3.7983,-3.801,-3.7983,-3.801,-3.7969,-3.8023,-3.801,-3.7969,-3.7969,-3.7969,-3.7956,-3.7903,-3.7903,-3.7863,-3.7823,-3.7769,-3.7809,-3.7809,-3.7809,-3.7809,-3.7769,-3.7448,-3.7208,-3.7756,-3.7756,-3.7742,-3.7729,-3.7689,-3.7689,-3.7408,-3.6914,-3.658,-3.6473,-3.6527,-3.6807,-3.7074,-3.7328,-3.7582,-3.7823,-3.8063,-3.8076,-3.8103,-3.813,-3.805,-3.7635,-3.6954,-3.6861,-3.6834,-3.6861,-3.6633,-3.6914,-3.7622,-3.7702,-3.7689,-3.7729,-3.7903,-3.7889,-3.7649,-3.7635,-3.7769,-3.8063,-3.7609,-3.7422,-3.7515,-3.8263,-3.8651,-3.8678,-3.9185,-3.9439,-3.9359,-3.8945,-3.8664,-3.8531,-3.8036,-3.7475,-3.6861,-3.654,-3.6032,-3.5257,-3.4923,-3.4656,-3.4416,-3.4336,-3.4322,-3.4336,-3.4549,-3.4576,-3.4295,-3.4295,-3.4322,-3.4336,-3.4616,-3.487,-3.5124,-3.5658,-3.6086,-3.6326,-3.638,-3.6366,-3.6286,-3.6099,-3.5845,-3.5551,-3.5538,-3.5591,-3.5605,-3.5418,-3.5471,-3.5778,-3.5778,-3.5992,-3.6994,-3.7702,-3.8023,-3.8197,-3.8437,-3.8571,-3.8557,-3.8597,-3.8597,-3.8597,-3.8597,-3.8597,-3.8597,-3.8597,-3.8517,-3.8263,-3.825,-3.8143,-3.7929,-3.7809,-3.7876,-3.7903,-3.7929,-3.7903,-3.7943,-3.7823,-3.7742,-3.805,-3.8063,-3.805,-3.7956,-3.7809,-3.7809,-3.7582,-3.7168,-3.6874,-3.6647,-3.6553,-3.6981,-3.7261,-3.7395,-3.7689,-3.7889,-3.801,-3.801,-3.8103,-3.825,-3.8263,-3.805,-3.7689,-3.7649,-3.7569,-3.7435,-3.7622,-3.7916,-3.8303,-3.8624,-3.8784,-3.8784,-3.8771,-3.8597,-3.8344,-3.8464,-3.8691,-3.8972,-3.8571,-3.8344,-3.8357,-3.8905,-3.9199,-3.9212,-3.9479,-3.9599,-3.9599,-3.9346,-3.9199,-3.9199,-3.8771,-3.8197,-3.7462,-3.7141,-3.6593,-3.5738,-3.5391,-3.5177,-3.503,-3.503,-3.5097,-3.5257,-3.5391,-3.5418,-3.5284,-3.4977,-3.479,-3.479,-3.4923,-3.5044,-3.5204,-3.5725,-3.6179,-3.6473,-3.678,-3.6901,-3.678,-3.6794,-3.6607,-3.6219,-3.6246,-3.634,-3.634,-3.6219,-3.6139,-3.6313,-3.6286,-3.6674,-3.7502,-3.813,-3.8517,-3.8531,-3.8758,-3.8931,-3.8972,-3.9105,-3.9185,-3.9199,-3.9199,-3.9199,-3.9199,-3.9199,-3.9132,-3.9012,-3.8865,-3.8704,-3.8544,-3.8397,-3.8384,-3.8517,-3.8544,-3.8584,-3.8718,-3.8784,-3.8611,-3.8464,-3.8464,-3.8531,-3.8424,-3.8223,-3.821,-3.805,-3.7769,-3.7475,-3.7168,-3.6967,-3.7261,-3.7448,-3.7609,-3.7956,-3.8157,-3.821,-3.821,-3.8344,-3.8531,-3.8491,-3.8424,-3.8357,-3.8303,-3.813,-3.7996,-3.8464,-3.8758,-3.8878,-3.9346,-3.9559,-3.9479,-3.9265,-3.9038,-3.8825,-3.9038,-3.9306,-3.9573,-3.9439,-3.9319,-3.9265,-3.9546,-3.9693,-3.9693,-3.9773,-3.98,-3.9786,-3.9733,-3.9693,-3.968,-3.9412,-3.8905,-3.817,-3.7716,-3.7141,-3.6446,-3.6019,-3.5859,-3.5925,-3.5925,-3.6032,-3.6246,-3.6273,-3.6273,-3.6233,-3.5859,-3.5525,-3.5431,-3.5471,-3.5511,-3.5605,-3.6046,-3.646,-3.67,-3.7155,-3.7368,-3.7208,-3.7342,-3.7288,-3.6834,-3.6901,-3.7021,-3.7034,-3.6981,-3.6821,-3.6674,-3.6954,-3.7422,-3.7876,-3.8424,-3.8798,-3.8945,-3.9118,-3.9239,-3.9265,-3.9426,-3.9546,-3.9599,-3.9586,-3.9546,-3.9546,-3.9573,-3.9586,-3.9506,-3.9386,-3.9239,-3.9225,-3.9078,-3.9025,-3.9159,-3.9185,-3.9279,-3.9452,-3.9493,-3.9386,-3.9065,-3.9118,-3.9332,-3.9466,-3.9386,-3.9399,-3.9225,-3.8945,-3.8678,-3.8384,-3.8036,-3.7595,-3.7689,-3.821,-3.8758,-3.9118,-3.9372,-3.9426,-3.9412,-3.9412,-3.9199,-3.8931,-3.8678,-3.841,-3.8237,-3.8263,-3.8584,-3.8905,-3.9132,-3.9466,-3.9479,-3.9225,-3.9172,-3.9159,-3.9118,-3.9145,-3.9319,-3.9599,-3.9827,-3.9827,-3.9599,-3.984,-4.0,-4.0,-4.0254,-4.0401,-4.0348,-4.0134,-3.9987,-3.9974,-3.9733,-3.9399,-3.8998,-3.8237,-3.7622,-3.7275,-3.674,-3.654,-3.678,-3.6821,-3.6807,-3.6847,-3.6861,-3.6861,-3.6861,-3.6807,-3.654,-3.6193,-3.6246,-3.6326,-3.642,-3.6874,-3.7195,-3.7261,-3.7569,-3.7756,-3.7729,-3.7756,-3.7649,-3.7342,-3.7368,-3.7342,-3.7382,-3.7235,-3.7034,-3.7061,-3.7582,-3.8076,-3.8317,-3.8704,-3.9212,-3.9426,-3.9559,-3.9559,-3.9573,-3.9573,-3.968,-3.9653,-3.9626,-3.9666,-3.9706,-3.968,-3.9613,-3.976,-3.9613,-3.9573,-3.9559,-3.9519,-3.9506,-3.9533,-3.9573,-3.9586,-3.9613,-3.9653,-3.9573,-3.9159,-3.9185,-3.9479,-3.9599,-3.9599,-3.9599,-3.9533,-3.9386,-3.8918,-3.8651,-3.8491,-3.809,-3.813,-3.8557,-3.8972,-3.9319,-3.9586,-3.9599,-3.9599,-3.9613,-3.964,-3.9426,-3.9012,-3.9052,-3.8878,-3.8597,-3.9012,-3.9306,-3.9479,-3.988,-3.988,-3.9479,-3.9586,-3.9506,-3.9212,-3.9506,-3.9733,-3.9853,-4.0147,-4.0241,-4.0134,-4.0054,-3.9947,-3.9827,-4.0067,-4.0308,-4.0441,-4.0348,-4.0374,-4.0508,-4.0267,-3.9907,-3.9439,-3.8905,-3.8477,-3.817,-3.7609,-3.7248,-3.7208,-3.7195,-3.7275,-3.7448,-3.7462,-3.7462,-3.7462,-3.7462,-3.7342,-3.7141,-3.6901,-3.6767,-3.6807,-3.7141,-3.7448,-3.7635,-3.7903,-3.809,-3.8076,-3.8237,-3.8237,-3.7969,-3.8063,-3.817,-3.8157,-3.8076,-3.7996,-3.7983,-3.8223,-3.8424,-3.8918,-3.9132,-3.9412,-3.996,-4.012,-4.0027,-3.992,-4.0027,-4.0094,-4.012,-4.012,-4.012,-4.012,-4.012,-4.012,-4.012,-3.9987,-3.988,-3.9853,-3.9706,-3.964,-3.9786,-4.004,-4.012,-4.012,-4.012,-4.0174,-3.9212,-3.9332,-3.968,-3.984,-3.984,-3.984,-3.984,-3.9773,-3.9292,-3.9038,-3.8931,-3.8638,-3.8718,-3.9065,-3.9225,-3.9479,-3.9813,-3.984,-3.9893,-3.996,-4.0094,-3.9933,-3.9559,-3.964,-3.9452,-3.9132,-3.9559,-3.9933,-4.0094,-4.0388,-4.0334,-3.9933,-3.9974,-3.9813,-3.9493,-3.9907,-4.0201,-4.0294,-4.0561,-4.0682,-4.0575,-4.0388,-4.0134,-3.9893,-4.012,-4.0374,-4.0588,-4.0668,-4.0802,-4.1002,-4.0815,-4.0495,-3.9987,-3.9533,-3.9118,-3.8744,-3.8317,-3.805,-3.7983,-3.7996,-3.8076,-3.8277,-3.8303,-3.8303,-3.8303,-3.8303,-3.8303,-3.8277,-3.7916,-3.7649,-3.7342,-3.7569,-3.7863,-3.8157,-3.8397,-3.8531,-3.8638,-3.8838,-3.8878,-3.8691,-3.8811,-3.8972,-3.8958,-3.8931,-3.8891,-3.8784,-3.8651,-3.8718,-3.9372,-3.9426,-3.9573,-4.0334,-4.0521,-4.0468,-4.0241,-4.0388,-4.0561,-4.0628,-4.0628,-4.0708,-4.0722,-4.0708,-4.0708,-4.0682,-4.0441,-4.0294,-4.0294,-4.0107,-3.9947,-4.0214,-4.0441,-4.0615,-4.0695,-4.0695,-4.0829,-3.9319,-3.9666,-4.0201,-4.0441,-4.0441,-4.0441,-4.0441,-4.0414,-4.0094,-3.9827,-3.9546,-3.9252,-3.9439,-3.9893,-3.9693,-3.9907,-4.0388,-4.0441,-4.0575,-4.0762,-4.0575,-4.0441,-4.0401,-4.0147,-3.9853,-3.9559,-4.0067,-4.0642,-4.1149,-4.0989,-4.0748,-4.0428,-4.0174,-4.0014,-3.9974,-4.0254,-4.0588,-4.0775,-4.1082,-4.1149,-4.0922,-4.0882,-4.0708,-4.0468,-4.0695,-4.0829,-4.0895,-4.1149,-4.1296,-4.1323,-4.1283,-4.1136,-4.0802,-4.004,-3.9346,-3.8838,-3.8718,-3.8918,-3.9332,-3.9372,-3.9399,-3.9452,-3.9372,-3.9466,-3.9346,-3.9346,-3.9346,-3.9466,-3.9292,-3.8985,-3.8357,-3.8437,-3.8718,-3.8985,-3.9078,-3.9212,-3.9466,-3.9426,-3.9546,-3.9479,-3.9452,-3.9466,-3.9519,-3.9559,-3.9412,-3.9239,-3.9132,-3.9265,-3.9559,-3.9626,-3.9867,-4.0348,-4.0682,-4.0788,-4.0561,-4.0708,-4.0855,-4.0909,-4.1029,-4.1229,-4.1283,-4.131,-4.1283,-4.1216,-4.0962,-4.0815,-4.0802,-4.0735,-4.0628,-4.0708,-4.0802,-4.0949,-4.1056,-4.1229,-4.1336,-4.0281,-4.0722,-4.0949,-4.1029,-4.1029,-4.1029,-4.1029,-4.1002,-4.0722,-4.0428,-4.0147,-3.984,-3.984,-4.004,-4.012,-4.0481,-4.1002,-4.1029,-4.1082,-4.1176,-4.1082,-4.0842,-4.0481,-4.0361,-4.0054,-3.9746,-4.0201,-4.0775,-4.1269,-4.1229,-4.0935,-4.0535,-4.0374,-4.0147,-3.9907,-4.0241,-4.0535,-4.0668,-4.1096,-4.1283,-4.1203,-4.1189,-4.1042,-4.0762,-4.0668,-4.0722,-4.0909,-4.1016,-4.1229,-4.1603,-4.1443,-4.1296,-4.1136,-4.0535,-3.9987,-3.9599,-3.9386,-3.9372,-3.9559,-3.9599,-3.9599,-3.9599,-3.9599,-3.9613,-3.9599,-3.9599,-3.9599,-3.9613,-3.9599,-3.9399,-3.9252,-3.9225,-3.9319,-3.9412,-3.9439,-3.9479,-3.9559,-3.9599,-3.9599,-3.9599,-3.9599,-3.9599,-3.9666,-3.976,-3.9827,-3.9746,-3.972,-3.9827,-4.0027,-4.0014,-4.008,-4.0588,-4.0842,-4.0949,-4.1069,-4.1096,-4.1189,-4.1203,-4.1269,-4.1323,-4.1363,-4.1403,-4.139,-4.1416,-4.1269,-4.1176,-4.1096,-4.1069,-4.1029,-4.1096,-4.1189,-4.1229,-4.1323,-4.1456,-4.1577,-4.0842,-4.1176,-4.131,-4.1336,-4.1336,-4.1336,-4.1336,-4.1323,-4.1136,-4.0829,-4.0495,-4.0267,-4.0227,-4.0334,-4.0535,-4.1002,-4.155,-4.1443,-4.139,-4.1483,-4.1483,-4.1229,-4.0829,-4.0762,-4.0441,-4.0054,-4.0481,-4.1016,-4.143,-4.1483,-4.1229,-4.0788,-4.0668,-4.0374,-4.0054,-4.0468,-4.0762,-4.0869,-4.1336,-4.163,-4.1617,-4.1617,-4.1483,-4.1216,-4.1002,-4.0935,-4.1056,-4.1136,-4.1403,-4.1817,-4.1724,-4.1537,-4.1323,-4.0882,-4.0481,-4.0201,-3.9987,-3.988,-3.988,-3.988,-3.9893,-3.988,-3.9893,-3.988,-3.988,-3.988,-3.988,-3.988,-3.988,-3.9893,-3.988,-3.988,-3.9853,-3.9773,-3.9746,-3.9786,-3.9867,-3.9893,-3.9893,-3.992,-3.992,-3.9907,-3.9907,-4.0067,-4.0147,-4.0174,-4.0107,-4.0147,-4.0361,-4.0334,-4.0334,-4.0815,-4.1096,-4.1283,-4.1443,-4.155,-4.1537,-4.1537,-4.1617,-4.159,-4.1563,-4.1563,-4.1577,-4.1577,-4.1537,-4.1443,-4.139,-4.1363,-4.139,-4.1456,-4.1497,-4.1537,-4.1603,-4.167,-4.179,-4.0935,-4.1042,-4.1229,-4.1403,-4.1416,-4.143,-4.1376,-4.1403,-4.139,-4.1096,-4.0682,-4.0521,-4.0655,-4.0855,-4.0895,-4.1376,-4.1911,-4.163,-4.1563,-4.1777,-4.179,-4.1603,-4.1283,-4.1243,-4.0976,-4.0481,-4.1042,-4.1456,-4.1724,-4.1764,-4.163,-4.135,-4.1069,-4.0829,-4.0508,-4.1029,-4.1323,-4.1416,-4.1857,-4.2151,-4.2218,-4.2151,-4.1991,-4.1764,-4.1697,-4.1563,-4.1363,-4.1577,-4.1817,-4.2138,-4.2151,-4.1924,-4.1456,-4.1096,-4.0788,-4.0588,-4.0481,-4.0441,-4.0454,-4.0428,-4.0388,-4.0388,-4.0428,-4.0388,-4.0414,-4.0428,-4.0454,-4.0481,-4.0481,-4.0481,-4.0481,-4.0481,-4.0361,-4.0094,-4.004,-4.0147,-4.0374,-4.0468,-4.0468,-4.0441,-4.0414,-4.0454,-4.0454,-4.0414,-4.0428,-4.0414,-4.0294,-4.0267,-4.0548,-4.0575,-4.0642,-4.0962,-4.1323,-4.1603,-4.1804,-4.1978,-4.1924,-4.1884,-4.2004,-4.2044,-4.1991,-4.1978,-4.1951,-4.1937,-4.1844,-4.1764,-4.1657,-4.163,-4.167,-4.1724,-4.1777,-4.1831,-4.1897,-4.1964,-4.2044,-4.163,-4.1817,-4.1897,-4.1937,-4.1951,-4.1937,-4.1951,-4.1951,-4.1937,-4.1724,-4.139,-4.1163,-4.1122,-4.1189,-4.1216,-4.147,-4.1897,-4.1911,-4.1991,-4.2071,-4.2084,-4.1804,-4.1416,-4.1336,-4.1136,-4.0882,-4.1163,-4.1497,-4.1777,-4.1991,-4.2031,-4.1897,-4.1644,-4.1483,-4.1336,-4.1563,-4.1644,-4.1684,-4.2018,-4.2218,-4.2218,-4.2218,-4.2071,-4.1831,-4.179,-4.1737,-4.1657,-4.155,-4.1724,-4.2191,-4.2031,-4.1924,-4.1844,-4.147,-4.1269,-4.1296,-4.0788,-4.0575,-4.0722,-4.0601,-4.0508,-4.0481,-4.0481,-4.0588,-4.0735,-4.0775,-4.0855,-4.1016,-4.1069,-4.1069,-4.1069,-4.1069,-4.0855,-4.0388,-4.0348,-4.0454,-4.0708,-4.0775,-4.0775,-4.0748,-4.0601,-4.0495,-4.0481,-4.0495,-4.0601,-4.0748,-4.0682,-4.0735,-4.0962,-4.1029,-4.1189,-4.1483,-4.1737,-4.1871,-4.2018,-4.2098,-4.2071,-4.2044,-4.2138,-4.2218,-4.2218,-4.2218,-4.2218,-4.2191,-4.2098,-4.2018,-4.1924,-4.1897,-4.1924,-4.1978,-4.2031,-4.2111,-4.2191,-4.2218,-4.2218,-4.2058,-4.2218,-4.2218,-4.2218,-4.2218,-4.2218,-4.2218,-4.2218,-4.2218,-4.2044,-4.1777,-4.159,-4.151,-4.151,-4.151,-4.1737,-4.2098,-4.2312,-4.2378,-4.2365,-4.2245,-4.1951,-4.1523,-4.1376,-4.1256,-4.1189,-4.147,-4.1764,-4.1964,-4.2325,-4.2432,-4.2218,-4.2031,-4.1804,-4.1684,-4.1844,-4.1911,-4.1871,-4.2178,-4.2338,-4.2245,-4.2218,-4.2178,-4.2124,-4.2111,-4.2165,-4.2231,-4.1978,-4.1951,-4.2151,-4.2044,-4.2044,-4.2165,-4.1871,-4.171,-4.1644,-4.1323,-4.1016,-4.1056,-4.0922,-4.0802,-4.0788,-4.0802,-4.0869,-4.1042,-4.1069,-4.1176,-4.1296,-4.1323,-4.1336,-4.1336,-4.1336,-4.1163,-4.0855,-4.0815,-4.0882,-4.1042,-4.1069,-4.1069,-4.1029,-4.0922,-4.0815,-4.0802,-4.0802,-4.0869,-4.1042,-4.1069,-4.1096,-4.1323,-4.1416,-4.1617,-4.1777,-4.1897,-4.2031,-4.2165,-4.2218,-4.2218,-4.2191,-4.2191,-4.2218,-4.2218,-4.2218,-4.2218,-4.2218,-4.2165,-4.2151,-4.2071,-4.2111,-4.2138,-4.2218,-4.2218,-4.2218,-4.2218,-4.2218,-4.2218,-4.2218,-4.2218,-4.2218,-4.2218,-4.2231,-4.2258,-4.2271,-4.2258,-4.2312,-4.2178,-4.1951,-4.1897,-4.1884,-4.1884,-4.1911,-4.2165,-4.2605,-4.2659,-4.2686,-4.2619,-4.2445,-4.2151,-4.1817,-4.155,-4.1376,-4.139,-4.1844,-4.2138,-4.2191,-4.2672,-4.2819,-4.2432,-4.2298,-4.2044,-4.1844,-4.2058,-4.2151,-4.2084,-4.2445,-4.2552,-4.2338,-4.2312,-4.2418,-4.2646,-4.2659,-4.2752,-4.2886,-4.2712,-4.2499,-4.2298,-4.2258,-4.2258,-4.2258,-4.2231,-4.2058,-4.1857,-4.179,-4.1577,-4.143,-4.1283,-4.1256,-4.1243,-4.1243,-4.135,-4.135,-4.1376,-4.1416,-4.1483,-4.147,-4.1443,-4.1456,-4.1456,-4.143,-4.1403,-4.135,-4.135,-4.1363,-4.1363,-4.1363,-4.1363,-4.135,-4.1323,-4.1256,-4.1256,-4.1296,-4.1363,-4.1376,-4.1403,-4.1523,-4.1684,-4.1777,-4.1911,-4.2044,-4.2111,-4.2218,-4.2218,-4.2218,-4.2218,-4.2231,-4.2231,-4.2231,-4.2231,-4.2218,-4.2218,-4.2298,-4.2271,-4.2245,-4.2271,-4.2245,-4.2231,-4.2231,-4.2218,-4.2231,-4.2258,-4.2338,-4.2218,-4.2218,-4.2218,-4.2218,-4.2258,-4.2445,-4.2539,-4.2579,-4.2766,-4.2779,-4.2699,-4.2525,-4.2525,-4.2712,-4.2512,-4.2646,-4.2913,-4.298,-4.298,-4.2966,-4.2913,-4.2565,-4.2138,-4.1804,-4.1563,-4.147,-4.179,-4.2004,-4.2231,-4.2659,-4.2926,-4.3167,-4.2739,-4.2712,-4.2899,-4.2659,-4.2646,-4.2739,-4.2859,-4.2953,-4.2859,-4.2833,-4.2899,-4.2966,-4.298,-4.302,-4.31,-4.302,-4.2846,-4.2579,-4.2552,-4.2539,-4.2525,-4.2365,-4.2218,-4.2111,-4.1911,-4.1777,-4.1657,-4.1483,-4.1363,-4.1336,-4.1403,-4.1443,-4.1644,-4.167,-4.1777,-4.1911,-4.1991,-4.1964,-4.1978,-4.1964,-4.1964,-4.1964,-4.179,-4.167,-4.167,-4.167,-4.167,-4.1644,-4.1497,-4.1416,-4.139,-4.1403,-4.147,-4.1617,-4.1684,-4.1724,-4.1844,-4.1937,-4.2031,-4.2084,-4.2178,-4.2191,-4.2218,-4.2218,-4.2218,-4.2218,-4.2231,-4.2258,-4.2258,-4.2258,-4.2231,-4.2218,-4.2499,-4.2552,-4.2445,-4.2392,-4.2338,-4.2325,-4.2271,-4.2298,-4.2325,-4.2365,-4.2512,-4.2285,-4.2405,-4.2405,-4.2472,-4.2592,-4.2779,-4.2846,-4.2873,-4.302,-4.31,-4.306,-4.2926,-4.2939,-4.306,-4.2913,-4.3006,-4.326,-4.3273,-4.3273,-4.3273,-4.326,-4.3006,-4.2619,-4.2285,-4.2058,-4.1937,-4.2058,-4.2312,-4.2605,-4.2886,-4.3207,-4.3394,-4.3193,-4.3167,-4.322,-4.3193,-4.3033,-4.3113,-4.3193,-4.3233,-4.3113,-4.31,-4.318,-4.3233,-4.3287,-4.3327,-4.3447,-4.3487,-4.3287,-4.2953,-4.2846,-4.2846,-4.2833,-4.2699,-4.2539,-4.2418,-4.2231,-4.2111,-4.1964,-4.1804,-4.1724,-4.171,-4.171,-4.179,-4.1924,-4.1964,-4.2071,-4.2165,-4.2218,-4.2218,-4.2218,-4.2218,-4.2218,-4.2165,-4.2071,-4.1964,-4.1964,-4.1964,-4.1964,-4.1924,-4.1817,-4.171,-4.171,-4.1697,-4.179,-4.1911,-4.1964,-4.2044,-4.2138,-4.2205,-4.2218,-4.2218,-4.2231,-4.2231,-4.2312,-4.2352,-4.2432,-4.2418,-4.2499,-4.2472,-4.2458,-4.2445,-4.2485,-4.2552,-4.2726,-4.2806,-4.2699,-4.2632,-4.2632,-4.2592,-4.2472,-4.2418,-4.2485,-4.2579,-4.2726,-4.2445,-4.2712,-4.2712,-4.2859,-4.306,-4.3127,-4.314,-4.314,-4.322,-4.3247,-4.3233,-4.3207,-4.3247,-4.3193,-4.3273,-4.334,-4.3581,-4.3581,-4.3581,-4.3581,-4.3567,-4.342,-4.3193,-4.2886,-4.2672,-4.2552,-4.2632,-4.2793,-4.298,-4.3287,-4.3487,-4.3554,-4.3541,-4.3407,-4.338,-4.342,-4.338,-4.3327,-4.3487,-4.3487,-4.334,-4.3314,-4.3407,-4.3554,-4.3581,-4.3701,-4.3875,-4.3928,-4.3728,-4.322,-4.3167,-4.314,-4.3127,-4.3127,-4.2966,-4.2739,-4.2619,-4.2485,-4.2298,-4.2191,-4.2165,-4.2138,-4.2151,-4.2218,-4.2178,-4.2178,-4.2191,-4.2218,-4.2218,-4.2218,-4.2218,-4.2218,-4.2218,-4.2218,-4.2205,-4.2218,-4.2218,-4.2218,-4.2218,-4.2218,-4.2205,-4.2218,-4.2218,-4.2218,-4.2205,-4.2071,-4.2124,-4.2151,-4.2191,-4.2205,-4.2218,-4.2218,-4.2231,-4.2245,-4.2365,-4.2485,-4.2605,-4.2686,-4.2833,-4.2873,-4.2833,-4.2833,-4.2873,-4.2953,-4.3033,-4.3046,-4.2993,-4.2953,-4.2966,-4.2846,-4.2726,-4.2699,-4.2726,-4.2859,-4.3006,-4.2739,-4.3006,-4.3006,-4.3033,-4.3127,-4.334,-4.3434,-4.3447,-4.3701,-4.3754,-4.3795,-4.3795,-4.3781,-4.3781,-4.3754,-4.3848,-4.3861,-4.3875,-4.3901,-4.3901,-4.3901,-4.3875,-4.3728,-4.3461,-4.31,-4.2819,-4.2672,-4.2833,-4.3073,-4.3233,-4.3447,-4.3821,-4.3674,-4.3621,-4.3754,-4.3607,-4.3648,-4.3768,-4.3875,-4.3848,-4.3781,-4.3754,-4.3795,-4.3875,-4.3875,-4.3915,-4.3982,-4.4008,-4.3941,-4.3781,-4.3567,-4.3434,-4.3407,-4.3247,-4.3113,-4.2993,-4.2806,-4.2659,-4.2552,-4.2378,-4.2231,-4.2258,-4.2231,-4.2218,-4.2218,-4.2218,-4.2218,-4.2218,-4.2218,-4.2218,-4.2218,-4.2218,-4.2218,-4.2218,-4.2218,-4.2218,-4.2218,-4.2218,-4.2218,-4.2218,-4.2218,-4.2218,-4.2218,-4.2218,-4.2218,-4.2218,-4.2218,-4.2218,-4.2218,-4.2218,-4.2258,-4.2285,-4.2312,-4.2378,-4.2592,-4.2766,-4.2939,-4.3073,-4.3207,-4.3273,-4.3247,-4.3193,-4.322,-4.326,-4.3287,-4.3287,-4.33,-4.3327,-4.3354,-4.3167,-4.3006,-4.3006,-4.3033,-4.3167,-4.3287,-4.2913,-4.3287,-4.33,-4.338,-4.3527,-4.3674,-4.3754,-4.3781,-4.3915,-4.4008,-4.4008,-4.4008,-4.4008,-4.4008,-4.4008,-4.3995,-4.4008,-4.4008,-4.4008,-4.3995,-4.3995,-4.4008,-4.3995,-4.3821,-4.3501,-4.31,-4.2926,-4.3033,-4.322,-4.3327,-4.3567,-4.3955,-4.3821,-4.3835,-4.3968,-4.3821,-4.3848,-4.3941,-4.4008,-4.4008,-4.4008,-4.4008,-4.4008,-4.4008,-4.4008,-4.4008,-4.4008,-4.4008,-4.4008,-4.3955,-4.3835,-4.3754,-4.3741,-4.3594,-4.3461,-4.3287,-4.318,-4.298,-4.2846,-4.2605,-4.2432,-4.2418,-4.2312,-4.2231,-4.2218,-4.2218,-4.2218,-4.2218,-4.2218,-4.2218,-4.2218,-4.2218,-4.2218,-4.2218,-4.2231,-4.2218,-4.2218,-4.2218,-4.2218,-4.2218,-4.2218,-4.2218,-4.2218,-4.2218,-4.2218,-4.2218,-4.2218,-4.2218,-4.2218,-4.2231,-4.2352,-4.2392,-4.2432,-4.2552,-4.2819,-4.3046,-4.33,-4.3461,-4.3621,-4.3674,-4.3674,-4.3621,-4.3567,-4.3581,-4.3607,-4.3661,-4.3688,-4.3714,-4.3634,-4.3434,-4.33,-4.33,-4.3314,-4.338,-4.3541,-4.3113,-4.3594,-4.3594,-4.3754,-4.3982,-4.3995,-4.3995,-4.3995,-4.4008,-4.4008,-4.3731,-4.3454,-4.2648,-4.2925,-4.2912,-4.319,-4.4008,-4.4008,-4.4008,-4.4008,-4.4008,-4.4008,-4.3995,-4.3941,-4.3835,-4.3581,-4.33,-4.3327,-4.3447,-4.3554,-4.3661,-4.3955,-4.4008,-4.3982,-4.3995,-4.4008,-4.3982,-4.4008,-4.4008,-4.4008,-4.4008,-4.4008,-4.4008,-4.4008,-4.4008,-4.4008,-4.4008,-4.4008,-4.4008,-4.4008,-4.4008,-4.4008,-4.4008,-4.3995,-4.3915,-4.3607,-4.3514,-4.3354,-4.3153,-4.2899,-4.2712,-4.2672,-4.2458,-4.2271,-4.2245,-4.2231,-4.2271,-4.2325,-4.2378,-4.2432,-4.2352,-4.2432,-4.2418,-4.2392,-4.2365,-4.2352,-4.2352,-4.2338,-4.2378,-4.2218,-4.2218,-4.2218,-4.2218,-4.2218,-4.2218,-4.2218,-4.2218,-4.2231,-4.2231,-4.2312,-4.2445,-4.2579,-4.2632,-4.2833,-4.31,-4.3367,-4.3607,-4.3701,-4.3901,-4.3915,-4.3941,-4.3875,-4.3795,-4.3888,-4.3928,-4.3928,-4.3915,-4.3888,-4.3781,-4.3634,-4.3594,-4.3607,-4.3607,-4.3607,-4.3741,-4.3594,-4.3928,-4.3928,-4.3955,-4.4008,-4.4008,-4.4008,-4.4008,-4.4008,-4.4008,-4.3731,-4.1007,-3.9919,-3.9653,-3.9375,-4.1007,-4.2912,-4.3731,-4.4008,-4.4008,-4.4008,-4.4008,-4.4008,-4.4008,-4.3955,-4.3861,-4.3621,-4.3514,-4.3541,-4.3541,-4.3741,-4.3955,-4.4008,-4.4008,-4.4008,-4.4008,-4.4008,-4.4008,-4.4008,-4.4008,-4.4008,-4.4008,-4.4008,-4.4008,-4.4008,-4.4008,-4.4008,-4.4008,-4.4008,-4.4008,-4.4008,-4.4008,-4.4008,-4.4008,-4.3968,-4.3861,-4.3688,-4.3541,-4.3434,-4.3193,-4.2913,-4.2726,-4.2592,-4.2458,-4.2312,-4.2258,-4.2378,-4.2592,-4.2779,-4.2913,-4.2939,-4.2859,-4.2913,-4.2926,-4.2886,-4.2886,-4.2886,-4.2846,-4.2699,-4.2418,-4.2312,-4.2285,-4.2352,-4.2338,-4.2271,-4.2258,-4.2245,-4.2285,-4.2325,-4.2445,-4.2605,-4.2739,-4.2873,-4.3127,-4.3407,-4.3674,-4.3901,-4.3875,-4.3968,-4.3968,-4.3995,-4.3995,-4.4008,-4.4008,-4.4008,-4.3982,-4.3995,-4.4008,-4.3968,-4.3821,-4.3861,-4.3901,-4.3848,-4.3795,-4.3848,-4.3714,-4.3995,-4.4008,-4.4008,-4.4008,-4.4008,-4.4008,-4.4008,-4.4008,-4.4008,-4.2912,-4.0463,-3.8563,-3.8029,-3.6412,-3.7762,-4.0741,-4.3454,-4.4008,-4.4008,-4.4008,-4.4008,-4.3744,-4.3731,-4.4008,-4.3968,-4.3835,-4.3768,-4.3768,-4.3781,-4.3861,-4.3955,-4.4008,-4.4008,-4.4008,-4.4008,-4.4008,-4.4008,-4.4008,-4.4008,-4.4008,-4.4008,-4.4008,-4.4008,-4.4008,-4.4008,-4.4008,-4.4008,-4.4008,-4.4008,-4.4008,-4.4008,-4.4008,-4.4008,-4.4008,-4.3982,-4.3848,-4.3768,-4.3714,-4.3501,-4.326,-4.3113,-4.2873,-4.2712,-4.2619,-4.2592,-4.2605,-4.2833,-4.2966,-4.31,-4.3073,-4.3113,-4.31,-4.31,-4.3113,-4.3127,-4.3113,-4.3113,-4.2939,-4.2686,-4.2592,-4.2592,-4.2659,-4.2579,-4.2392,-4.2312,-4.2298,-4.2352,-4.2445,-4.2619,-4.2819,-4.3113,-4.3273,-4.3447,-4.3661,-4.3821,-4.4008,-4.4008,-4.4008,-4.4008,-4.4008,-4.4008,-4.4008,-4.4008,-4.4008,-4.4008,-4.4008,-4.4008,-4.4008,-4.4008,-4.3982,-4.3968,-4.3982,-4.4008,-4.4008,-4.3768,-4.4008,-4.319,-4.2912,-4.2912,-4.2912,-4.2912,-4.2912,-4.2912,-4.2635,-4.237,-3.8296,-3.6132,-3.5595,-3.424,-3.452,-3.8563,-4.1828,-4.237,-4.2648,-4.237,-4.2648,-4.1828,-4.2648,-4.2648,-4.2357,-4.3705,-4.4008,-4.3968,-4.3968,-4.3995,-4.4008,-4.4008,-4.4008,-4.4008,-4.4008,-4.4008,-4.4008,-4.4008,-4.4008,-4.4008,-4.4008,-4.4008,-4.4008,-4.4008,-4.4008,-4.4008,-4.4008,-4.4008,-4.4008,-4.4008,-4.4008,-4.4008,-4.4008,-4.4008,-4.4008,-4.4008,-4.4008,-4.3928,-4.3795,-4.3581,-4.342,-4.3086,-4.3006,-4.298,-4.2939,-4.2953,-4.3127,-4.3287,-4.334,-4.338,-4.33,-4.3314,-4.3327,-4.3327,-4.33,-4.3354,-4.338,-4.3407,-4.318,-4.298,-4.2886,-4.2939,-4.2873,-4.2686,-4.2672,-4.2659,-4.2659,-4.2752,-4.2886,-4.3127,-4.3501,-4.3728,-4.3835,-4.3928,-4.3901,-4.4008,-4.4008,-4.4008,-4.4008,-4.4008,-4.4008,-4.4008,-4.4008,-4.4008,-4.4008,-4.4008,-4.4008,-4.4008,-4.4008,-4.4008,-4.4008,-4.4008,-4.4008,-4.4008,-4.3968,-4.3731,-4.0476,-3.9108,-3.9108,-3.9108,-3.9108,-3.9108,-3.9108,-3.9108,-3.8842,-3.2621,-2.9647,-2.9103,-2.9103,-3.235,-3.6668,-3.9375,-3.9653,-3.9387,-3.9653,-3.8308,-3.5875,-3.8029,-3.9375,-4.0185,-4.237,-4.3731,-4.4008,-4.4008,-4.4008,-4.4008,-4.4008,-4.4008,-4.4008,-4.4008,-4.4008,-4.4008,-4.4008,-4.4008,-4.4008,-4.4008,-4.4008,-4.4008,-4.4008,-4.4008,-4.4008,-4.4008,-4.4008,-4.4008,-4.4008,-4.4008,-4.4008,-4.4008,-4.4008,-4.4008,-4.4008,-4.4008,-4.3995,-4.3928,-4.3795,-4.3634,-4.3407,-4.33,-4.3233,-4.3327,-4.3407,-4.3461,-4.3688,-4.3808,-4.3781,-4.3848,-4.3875,-4.3835,-4.3768,-4.3795,-4.3821,-4.3648,-4.3674,-4.3648,-4.3434,-4.326,-4.3193,-4.31,-4.302,-4.302,-4.302,-4.3006,-4.3073,-4.322,-4.3367,-4.3728,-4.3875,-4.3968,-4.4008,-4.4008,-4.4008,-4.4008,-4.4008,-4.4008,-4.4008,-4.4008,-4.4008,-4.4008,-4.4008,-4.4008,-4.4008,-4.4008,-4.4008,-4.4008,-4.4008,-4.4008,-4.4008,-4.4008,-4.4008,-3.7773,-3.8041,-3.8296,-3.7483,-3.5606,-3.5606,-3.5595,-3.5595,-3.5595,-3.5595,-3.452,-3.0191,-2.6671,-2.5591,-2.6671,-2.9375,-3.2891,-3.64,-3.7215,-3.6412,-3.6948,-3.6412,-3.452,-3.4789,-3.6143,-3.8296,-4.0185,-4.2105,-4.319,-4.4008,-4.4008,-4.4008,-4.4008,-4.4008,-4.4008,-4.4008,-4.4008,-4.4008,-4.4008,-4.4008,-4.4008,-4.4008,-4.4008,-4.4008,-4.4008,-4.4008,-4.4008,-4.4008,-4.4008,-4.4008,-4.4008,-4.4008,-4.4008,-4.4008,-4.4008,-4.4008,-4.4008,-4.4008,-4.4008,-4.4008,-4.3915,-4.3795,-4.3648,-4.3461,-4.342,-4.3594,-4.3781,-4.3795,-4.3915,-4.3995,-4.4008,-4.4008,-4.4008,-4.4008,-4.4008,-4.4008,-4.4008,-4.4008,-4.3928,-4.3928,-4.3888,-4.3674,-4.3447,-4.33,-4.3273,-4.3314,-4.3273,-4.322,-4.3367,-4.3594,-4.3741,-4.3901,-4.3982,-4.3995,-4.4008,-4.4008,-4.4008,-4.4008,-4.4008,-4.4008,-4.4008,-4.4008,-4.4008,-4.4008,-4.4008,-4.4008,-4.4008,-4.4008,-4.4008,-4.4008,-4.4008,-4.4008,-4.4008,-4.4008,-4.4008,-3.1277,-3.0744,-3.425,-3.424,-3.1819,-3.1819,-3.1819,-3.1819,-3.1819,-3.1819,-3.0734,-2.803,-2.4507,-2.3427,-2.5049,-2.6945,-2.8294,-3.3431,-3.3701,-3.3701,-3.3701,-3.3171,-3.1006,-3.1015,-3.3161,-3.6132,-3.8296,-3.9919,-4.1828,-4.3454,-4.4008,-4.4008,-4.4008,-4.4008,-4.4008,-4.4008,-4.4008,-4.4008,-4.4008,-4.4008,-4.4008,-4.4008,-4.4008,-4.4008,-4.4008,-4.4008,-4.4008,-4.4008,-4.4008,-4.4008,-4.4008,-4.4008,-4.4008,-4.4008,-4.4008,-4.4008,-4.4008,-4.4008,-4.4008,-4.4008,-4.4008,-4.3928,-4.3848,-4.3688,-4.3688,-4.3888,-4.4008,-4.3968,-4.3982,-4.4008,-4.4008,-4.4008,-4.4008,-4.4008,-4.4008,-4.4008,-4.4008,-4.4008,-4.4008,-4.3982,-4.3955,-4.3982,-4.3754,-4.3541,-4.3501,-4.3581,-4.3541,-4.3447,-4.3607,-4.3848,-4.3915,-4.3995,-4.4008,-4.4008,-4.4008,-4.4008,-4.4008,-4.4008,-4.4008,-4.4008,-4.4008,-4.4008,-4.4008,-4.4008,-4.4008,-4.4008,-4.4008,-4.4008,-4.4008,-4.4008,-4.4008,-4.4008,-4.4008,-4.4008,-4.4008,-2.6139,-2.3427,-2.6945,-2.8567,-2.803,-2.803,-2.8021,-2.803,-2.8021,-2.8021,-2.7757,-2.4507,-2.2882,-2.2613,-2.3151,-2.4782,-2.7483,-2.8294,-2.8567,-2.8567,-2.8021,-2.7492,-2.6139,-2.6945,-2.8567,-3.0453,-3.397,-3.7215,-3.9653,-4.2093,-4.319,-4.4008,-4.4008,-4.4008,-4.4008,-4.4008,-4.4008,-4.4008,-4.4008,-4.4008,-4.4008,-4.4008,-4.4008,-4.4008,-4.4008,-4.4008,-4.4008,-4.4008,-4.4008,-4.4008,-4.4008,-4.4008,-4.4008,-4.4008,-4.4008,-4.4008,-4.4008,-4.4008,-4.4008,-4.4008,-4.4008,-4.3995,-4.3955,-4.3915,-4.3901,-4.3955,-4.4008,-4.4008,-4.4008,-4.4008,-4.4008,-4.4008,-4.4008,-4.4008,-4.4008,-4.4008,-4.4008,-4.4008,-4.4008,-4.4008,-4.4008,-4.4008,-4.4008,-4.3768,-4.3714,-4.3795,-4.3821,-4.3714,-4.3768,-4.3955,-4.3968,-4.4008,-4.4008,-4.4008,-4.4008,-4.4008,-4.4008,-4.4008,-4.4008,-4.4008,-4.4008,-4.4008,-4.4008,-4.4008,-4.4008,-4.4008,-4.4008,-4.4008,-4.4008,-4.4008,-4.4008,-4.4008,-4.4008,-4.4008,-4.4008,-2.3696,-2.2337,-2.3971,-2.4239,-2.4507,-2.4507,-2.4507,-2.4507,-2.4507,-2.4507,-2.4514,-2.2882,-2.2344,-2.2344,-2.2337,-2.2882,-2.4782,-2.6945,-2.6131,-2.5865,-2.5857,-2.5324,-2.4239,-2.3971,-2.5591,-2.7757,-3.0996,-3.5047,-3.883,-4.0197,-4.2093,-4.319,-4.3731,-4.4008,-4.4008,-4.4008,-4.4008,-4.4008,-4.4008,-4.4008,-4.4008,-4.4008,-4.4008,-4.4008,-4.4008,-4.4008,-4.4008,-4.4008,-4.4008,-4.4008,-4.4008,-4.4008,-4.4008,-4.4008,-4.4008,-4.4008,-4.4008,-4.4008,-4.4008,-4.4008,-4.4008,-4.4008,-4.4008,-4.4008,-4.4008,-4.4008,-4.4008,-4.4008,-4.4008,-4.4008,-4.4008,-4.4008,-4.4008,-4.4008,-4.4008,-4.4008,-4.4008,-4.4008,-4.4008,-4.4008,-4.4008,-4.4008,-4.4008,-4.3982,-4.3968,-4.3982,-4.3995,-4.4008,-4.4008,-4.4008,-4.4008,-4.4008,-4.4008,-4.4008,-4.4008,-4.4008,-4.4008,-4.4008,-4.4008,-4.4008,-4.4008,-4.4008,-4.4008,-4.4008,-4.4008,-4.4008,-4.4008,-4.4008,-4.4008,-4.4008,-4.4008,-4.4008,-4.4008,-4.4008,-4.4008,-2.2344,-2.2344,-2.2344,-2.2344,-2.2344,-2.2344,-2.2344,-2.2344,-2.2337,-2.2344,-2.2344,-2.2344,-2.2344,-2.2344,-2.2344,-2.2337,-2.3151,-2.4507,-2.4239,-2.4239,-2.4239,-2.4239,-2.3158,-2.2613,-2.3696,-2.5857,-2.7757,-3.0996,-3.4509,-3.7215,-3.9919,-4.1828,-4.3467,-4.4008,-4.4008,-4.4008,-4.4008,-4.4008,-4.4008,-4.4008,-4.4008,-4.4008,-4.4008,-4.4008,-4.4008,-4.4008,-4.4008,-4.4008,-4.4008,-4.4008,-4.4008,-4.4008,-4.4008,-4.4008,-4.4008,-4.4008,-4.4008,-4.4008,-4.4008,-4.4008,-4.4008,-4.4008,-4.4008,-4.4008,-4.4008,-4.4008,-4.4008,-4.4008,-4.4008,-4.4008,-4.4008,-4.4008,-4.4008,-4.4008,-4.4008,-4.4008,-4.4008,-4.4008,-4.4008,-4.4008,-4.4008,-4.4008,-4.4008,-4.4008,-4.4008,-4.4008,-4.4008,-4.4008,-4.4008,-4.4008,-4.4008,-4.4008,-4.4008,-4.4008,-4.4008,-4.4008,-4.4008,-4.4008,-4.4008,-4.4008,-4.4008,-4.4008,-4.4008,-4.4008,-4.4008,-4.4008,-4.4008,-4.4008,-4.4008,-4.4008,-4.4008,-4.4008,-4.4008,-4.4008,-4.4008,-2.2344,-2.2344,-2.2344,-2.2344,-2.2344,-2.2344,-2.2344,-2.2344,-2.2344,-2.2344,-2.2344,-2.2344,-2.2344,-2.2344,-2.2344,-2.2344,-2.2344,-2.2613,-2.2613,-2.2882,-2.2882,-2.2613,-2.2337,-2.2613,-2.2606,-2.3427,-2.5324,-2.7483,-2.9103,-3.397,-3.7215,-3.9108,-4.0741,-4.319,-4.3744,-4.4008,-4.4008,-4.4008,-4.4008,-4.4008,-4.4008,-4.4008,-4.4008,-4.4008,-4.4008,-4.4008,-4.4008,-4.4008,-4.4008,-4.4008,-4.4008,-4.4008,-4.4008,-4.4008,-4.4008,-4.4008,-4.4008,-4.4008,-4.4008,-4.4008,-4.4008,-4.4008,-4.4008,-4.4008,-4.4008,-4.4008,-4.4008,-4.4008,-4.4008,-4.4008,-4.4008,-4.4008,-4.4008,-4.4008,-4.4008,-4.4008,-4.4008,-4.4008,-4.4008,-4.4008,-4.4008,-4.4008,-4.4008,-4.4008,-4.4008,-4.4008,-4.4008,-4.4008,-4.4008,-4.4008,-4.4008,-4.4008,-4.4008,-4.4008,-4.4008,-4.4008,-4.4008,-4.4008,-4.4008,-4.4008,-4.4008,-4.4008,-4.4008,-4.4008,-4.4008,-4.4008,-4.4008,-4.4008,-4.4008,-4.4008,-4.4008,-4.4008,-4.4008,-4.4008,-4.4008,-2.2344,-2.2344,-2.2344,-2.2344,-2.2344,-2.2344,-2.2344,-2.2344,-2.2344,-2.2344,-2.2344,-2.2344,-2.2344,-2.2344,-2.2344,-2.2344,-2.2344,-2.2344,-2.2344,-2.2344,-2.2344,-2.2344,-2.2344,-2.2344,-2.2344,-2.2613,-2.3971,-2.5865,-2.8021,-3.1267,-3.3161,-3.4789,-3.7227,-3.9399,-4.2648,-4.4008,-4.4008,-4.4008,-4.4008,-4.4008,-4.4008,-4.4008,-4.4008,-4.4008,-4.4008,-4.4008,-4.4008,-4.4008,-4.4008,-4.4008,-4.4008,-4.4008,-4.4008,-4.4008,-4.4008,-4.4008,-4.4008,-4.4008,-4.4008,-4.4008,-4.4008,-4.4008,-4.4008,-4.4008,-4.4008,-4.4008,-4.4008,-4.4008,-4.4008,-4.4008,-4.4008,-4.4008,-4.4008,-4.4008,-4.4008,-4.4008,-4.4008,-4.4008,-4.4008,-4.4008,-4.4008,-4.4008,-4.4008,-4.4008,-4.4008,-4.4008,-4.4008,-4.4008,-4.4008,-4.4008,-4.4008,-4.4008,-4.4008,-4.4008,-4.4008,-4.4008,-4.4008,-4.4008,-4.4008,-4.4008,-4.4008,-4.4008,-4.4008,-4.4008,-4.4008,-4.4008,-4.4008,-4.4008,-4.4008,-4.4008,-4.4008,-4.4008,-4.4008,-4.4008,-4.4008,-2.2344,-2.2344,-2.2344,-2.2344,-2.2344,-2.2344,-2.2344,-2.2344,-2.2344,-2.2344,-2.2344,-2.2344,-2.2344,-2.2344,-2.2344,-2.2344,-2.2344,-2.2344,-2.2344,-2.2344,-2.2344,-2.2344,-2.2344,-2.2344,-2.2344,-2.2344,-2.2613,-2.3696,-2.5591,-2.6937,-2.9919,-3.2631,-3.3181,-3.5875,-3.912,-4.0741,-4.257,-4.3085,-4.3875,-4.4008,-4.4008,-4.4008,-4.4008,-4.4008,-4.4008,-4.4008,-4.4008,-4.4008,-4.4008,-4.4008,-4.4008,-4.4008,-4.4008,-4.4008,-4.4008,-4.4008,-4.4008,-4.4008,-4.4008,-4.4008,-4.4008,-4.4008,-4.4008,-4.4008,-4.4008,-4.4008,-4.4008,-4.4008,-4.4008,-4.4008,-4.4008,-4.4008,-4.4008,-4.4008,-4.4008,-4.4008,-4.4008,-4.4008,-4.4008,-4.4008,-4.4008,-4.4008,-4.4008,-4.4008,-4.4008,-4.4008,-4.4008,-4.4008,-4.4008,-4.4008,-4.4008,-4.4008,-4.4008,-4.4008,-4.4008,-4.4008,-4.4008,-4.4008,-4.4008,-4.4008,-4.4008,-4.4008,-4.4008,-4.4008,-4.4008,-4.4008,-4.4008,-4.4008,-4.4008,-4.4008,-4.4008,-4.4008,-4.4008,-4.4008,-4.4008,-2.2344,-2.2344,-2.2344,-2.2344,-2.2344,-2.2344,-2.2344,-2.2344,-2.2344,-2.2344,-2.2344,-2.2344,-2.2344,-2.2344,-2.2344,-2.233,-2.231,-2.231,-2.231,-2.231,-2.2289,-2.2316,-2.2337,-2.2344,-2.2344,-2.2344,-2.2337,-2.2613,-2.2882,-2.5049,-2.8575,-3.1006,-3.1015,-3.2341,-3.3939,-3.6903,-3.9798,-4.1662,-4.3532,-4.3665,-4.3982,-4.4008,-4.4008,-4.4008,-4.4008,-4.4008,-4.4008,-4.4008,-4.4008,-4.4008,-4.4008,-4.4008,-4.4008,-4.4008,-4.4008,-4.4008,-4.4008,-4.4008,-4.4008,-4.4008,-4.4008,-4.4008,-4.4008,-4.4008,-4.4008,-4.4008,-4.4008,-4.4008,-4.4008,-4.4008,-4.4008,-4.4008,-4.4008,-4.4008,-4.4008,-4.4008,-4.4008,-4.4008,-4.4008,-4.4008,-4.4008,-4.4008,-4.4008,-4.4008,-4.4008,-4.4008,-4.4008,-4.4008,-4.4008,-4.4008,-4.4008,-4.4008,-4.4008,-4.4008,-4.4008,-4.4008,-4.4008,-4.4008,-4.4008,-4.4008,-4.4008,-4.4008,-4.4008,-4.4008,-4.4008,-4.4008,-4.4008,-4.4008,-4.4008,-4.4008,-4.4008,-4.4008,-4.4008,-4.4008,-4.4008,-2.2344,-2.2344,-2.2344,-2.2344,-2.2344,-2.2344,-2.2344,-2.2344,-2.2344,-2.2344,-2.2344,-2.2344,-2.2344,-2.2344,-2.2344,-2.2276,-2.2215,-2.2181,-2.2174,-2.2188,-2.2221,-2.2262,-2.2303,-2.2344,-2.2344,-2.2344,-2.2344,-2.2344,-2.2337,-2.3964,-2.4239,-2.5057,-2.6413,-2.7433,-2.9837,-3.2821,-3.6312,-3.9786,-4.2164,-4.3585,-4.3968,-4.4008,-4.4008,-4.4008,-4.4008,-4.4008,-4.4008,-4.4008,-4.4008,-4.4008,-4.4008,-4.4008,-4.4008,-4.4008,-4.4008,-4.4008,-4.4008,-4.4008,-4.4008,-4.4008,-4.4008,-4.4008,-4.4008,-4.4008,-4.4008,-4.4008,-4.4008,-4.4008,-4.4008,-4.4008,-4.4008,-4.4008,-4.4008,-4.4008,-4.4008,-4.4008,-4.4008,-4.4008,-4.4008,-4.4008,-4.4008,-4.4008,-4.4008,-4.4008,-4.4008,-4.4008,-4.4008,-4.4008,-4.4008,-4.4008,-4.4008,-4.4008,-4.4008,-4.4008,-4.4008,-4.4008,-4.4008,-4.4008,-4.4008,-4.4008,-4.4008,-4.4008,-4.4008,-4.4008,-4.4008,-4.4008,-4.4008,-4.4008,-4.4008,-4.4008,-4.4008,-4.4008,-4.4008,-4.4008,-4.4008,-2.2344,-2.2344,-2.2344,-2.2344,-2.2344,-2.2344,-2.2344,-2.2344,-2.2344,-2.2344,-2.2344,-2.2344,-2.2344,-2.2344,-2.2337,-2.2262,-2.2133,-2.2201,-2.2201,-2.214,-2.216,-2.2255,-2.2323,-2.2344,-2.2344,-2.2344,-2.2344,-2.2344,-2.2344,-2.2344,-2.2613,-2.2613,-2.2344,-2.337,-2.5763,-2.8997,-3.2811,-3.6846,-4.063,-4.3059,-4.3928,-4.4008,-4.4008,-4.4008,-4.4008,-4.4008,-4.4008,-4.4008,-4.4008,-4.4008,-4.4008,-4.4008,-4.4008,-4.4008,-4.4008,-4.4008,-4.4008,-4.4008,-4.4008,-4.4008,-4.4008,-4.4008,-4.4008,-4.4008,-4.4008,-4.4008,-4.4008,-4.4008,-4.4008,-4.4008,-4.4008,-4.4008,-4.4008,-4.4008,-4.4008,-4.4008,-4.4008,-4.4008,-4.4008,-4.4008,-4.4008,-4.4008,-4.4008,-4.4008,-4.4008,-4.4008,-4.4008,-4.4008,-4.4008,-4.4008,-4.4008,-4.4008,-4.4008,-4.4008,-4.4008,-4.4008,-4.4008,-4.4008,-4.4008,-4.4008,-4.4008,-4.4008,-4.4008,-4.4008,-4.4008,-4.4008,-4.4008,-4.4008,-4.4008,-4.4008,-4.4008,-4.4008,-4.4008,-4.4008,-4.4008,-2.2344,-2.2344,-2.2344,-2.2344,-2.2344,-2.2344,-2.2344,-2.2344,-2.2344,-2.2344,-2.2344,-2.2344,-2.2344,-2.2344,-2.2337,-2.2249,-2.2174,-2.2201,-2.2194,-2.212,-2.2194,-2.2283,-2.2323,-2.2344,-2.2344,-2.2344,-2.2344,-2.2344,-2.2344,-2.2344,-2.2344,-2.2344,-2.2344,-2.2862,-2.366,-2.6549,-3.0062,-3.304,-3.8771,-4.2873,-4.3705,-4.4008,-4.4008,-4.4008,-4.4008,-4.4008,-4.4008,-4.4008,-4.4008,-4.4008,-4.4008,-4.4008,-4.4008,-4.4008,-4.4008,-4.4008,-4.4008,-4.4008,-4.4008,-4.4008,-4.4008,-4.4008,-4.4008,-4.4008,-4.4008,-4.4008,-4.4008,-4.4008,-4.4008,-4.4008,-4.4008,-4.4008,-4.4008,-4.4008,-4.4008,-4.4008,-4.4008,-4.4008,-4.4008,-4.4008,-4.4008,-4.4008,-4.4008,-4.4008,-4.4008,-4.4008,-4.4008,-4.4008,-4.4008,-4.4008,-4.4008,-4.4008,-4.4008,-4.4008,-4.4008,-4.4008,-4.4008,-4.4008,-4.4008,-4.4008,-4.4008,-4.4008,-4.4008,-4.4008,-4.4008,-4.4008,-4.4008,-4.4008,-4.4008,-4.4008,-4.4008,-4.4008,-4.4008,-4.4008,-4.4008,-2.2344,-2.2344,-2.2344,-2.2344,-2.2344,-2.2344,-2.2344,-2.2344,-2.2344,-2.2344,-2.2344,-2.2344,-2.2344,-2.2344,-2.2337,-2.2255,-2.216,-2.2181,-2.2147,-2.2127,-2.2181,-2.2276,-2.2323,-2.2344,-2.2344,-2.2344,-2.2344,-2.2344,-2.2344,-2.2344,-2.2344,-2.2344,-2.2344,-2.2344,-2.2613,-2.5505,-2.7927,-3.0025,-3.5251,-4.0439,-4.2596,-4.3718,-4.4008,-4.4008,-4.4008,-4.4008,-4.4008,-4.4008,-4.4008,-4.4008,-4.4008,-4.4008,-4.4008,-4.4008,-4.4008,-4.4008,-4.4008,-4.4008,-4.4008,-4.4008,-4.4008,-4.4008,-4.4008,-4.4008,-4.4008,-4.4008,-4.4008,-4.4008,-4.4008,-4.4008,-4.4008,-4.4008,-4.4008,-4.4008,-4.4008,-4.4008,-4.4008,-4.4008,-4.4008,-4.4008,-4.4008,-4.4008,-4.4008,-4.4008,-4.4008,-4.4008,-4.4008,-4.4008,-4.4008,-4.4008,-4.4008,-4.4008,-4.4008,-4.4008,-4.4008,-4.4008,-4.4008,-4.4008,-4.4008,-4.4008,-4.4008,-4.4008,-4.4008,-4.4008,-4.4008,-4.4008,-4.4008,-4.4008,-4.4008,-4.4008,-4.4008,-4.4008,-4.4008,-4.4008,-4.4008,-2.2344,-2.2344,-2.2344,-2.2344,-2.2344,-2.2344,-2.2344,-2.2344,-2.2344,-2.2344,-2.2344,-2.2344,-2.2344,-2.2344,-2.2337,-2.2262,-2.2154,-2.2194,-2.2167,-2.2147,-2.2188,-2.2269,-2.2316,-2.2344,-2.2344,-2.2344,-2.2344,-2.2344,-2.2344,-2.2344,-2.2344,-2.235,-2.235,-2.2357,-2.262,-2.45,-2.6333,-2.7765,-3.2252,-3.5798,-3.9556,-4.1474,-4.3718,-4.4008,-4.4008,-4.3731,-4.4008,-4.4008,-4.4008,-4.4008,-4.4008,-4.4008,-4.4008,-4.4008,-4.4008,-4.4008,-4.4008,-4.4008,-4.4008,-4.4008,-4.4008,-4.4008,-4.4008,-4.4008,-4.4008,-4.4008,-4.4008,-4.4008,-4.4008,-4.4008,-4.4008,-4.4008,-4.4008,-4.4008,-4.4008,-4.4008,-4.4008,-4.4008,-4.4008,-4.4008,-4.4008,-4.4008,-4.4008,-4.4008,-4.4008,-4.4008,-4.4008,-4.4008,-4.4008,-4.4008,-4.4008,-4.4008,-4.4008,-4.4008,-4.4008,-4.4008,-4.4008,-4.4008,-4.4008,-4.4008,-4.4008,-4.4008,-4.4008,-4.4008,-4.4008,-4.4008,-4.4008,-4.4008,-4.4008,-4.4008,-4.4008,-4.4008,-4.4008,-4.4008,-4.4008,-2.2344,-2.2344,-2.2344,-2.2344,-2.2344,-2.2344,-2.2344,-2.2344,-2.2344,-2.2344,-2.2344,-2.2344,-2.2344,-2.2344,-2.2337,-2.2242,-2.2208,-2.2262,-2.2228,-2.2221,-2.2276,-2.231,-2.2323,-2.2344,-2.2344,-2.2344,-2.2344,-2.2344,-2.2344,-2.2371,-2.2398,-2.2378,-2.2384,-2.2398,-2.2391,-2.2654,-2.3986,-2.6044,-2.8488,-2.9819,-3.4115,-3.87,-4.0704,-4.2105,-4.2648,-4.2648,-4.2648,-4.319,-4.2925,-4.3467,-4.3467,-4.4008,-4.4008,-4.4008,-4.4008,-4.4008,-4.4008,-4.4008,-4.4008,-4.4008,-4.4008,-4.4008,-4.4008,-4.4008,-4.4008,-4.4008,-4.4008,-4.4008,-4.4008,-4.4008,-4.4008,-4.4008,-4.4008,-4.4008,-4.4008,-4.4008,-4.4008,-4.4008,-4.4008,-4.4008,-4.4008,-4.4008,-4.4008,-4.4008,-4.4008,-4.4008,-4.4008,-4.4008,-4.4008,-4.4008,-4.4008,-4.4008,-4.4008,-4.4008,-4.4008,-4.4008,-4.4008,-4.4008,-4.4008,-4.4008,-4.4008,-4.4008,-4.4008,-4.4008,-4.4008,-4.4008,-4.4008,-4.4008,-4.4008,-4.4008,-4.4008,-4.4008,-4.4008,-4.4008,-4.4008,-2.2344,-2.2344,-2.2344,-2.2344,-2.2344,-2.2344,-2.2344,-2.2344,-2.2344,-2.2344,-2.2344,-2.2344,-2.2344,-2.2344,-2.2344,-2.2303,-2.2283,-2.233,-2.233,-2.2316,-2.2323,-2.2337,-2.2344,-2.2344,-2.2344,-2.2344,-2.2344,-2.2344,-2.2364,-2.2445,-2.2506,-2.25,-2.2642,-2.2676,-2.2676,-2.2915,-2.3098,-2.4596,-2.6171,-2.8089,-2.897,-3.2492,-3.4499,-3.5337,-3.5327,-3.5327,-3.5875,-3.8296,-3.9108,-4.0463,-4.237,-4.3731,-4.4008,-4.4008,-4.4008,-4.4008,-4.4008,-4.4008,-4.4008,-4.4008,-4.4008,-4.4008,-4.4008,-4.4008,-4.4008,-4.4008,-4.4008,-4.4008,-4.4008,-4.4008,-4.4008,-4.4008,-4.4008,-4.4008,-4.4008,-4.4008,-4.4008,-4.4008,-4.4008,-4.4008,-4.4008,-4.4008,-4.4008,-4.4008,-4.4008,-4.4008,-4.4008,-4.4008,-4.4008,-4.4008,-4.4008,-4.4008,-4.4008,-4.4008,-4.4008,-4.4008,-4.4008,-4.4008,-4.4008,-4.4008,-4.4008,-4.4008,-4.4008,-4.4008,-4.4008,-4.4008,-4.4008,-4.4008,-4.4008,-4.4008,-4.4008,-4.4008,-4.4008,-4.4008,-4.4008]}]]